[[{"header":{"parameterUnit":"m.s-1","parameterCategory":1,"la1":30.6,"la2":29.2853,"lo1":-89.7004,"lo2":-87.6739,"dy":0.0162,"dx":0.0183,"nx":112,"ny":82,"refTime":"2024-08-21T18:00:00:Z","depth":0,"parameterNumber":2,"parameterNumberName":"U-component_of_WINDS"},"data":[0.0,0.0,0.0,0.0,0.0,0.0,0.0,0.0,0.0,0.0,0.0,0.0,0.0,0.0,0.0,0.0,0.0,0.0,0.0,0.0,0.0,0.0,0.0,0.0,0.0,0.0,0.0,0.0,0.0,0.0,0.0,0.0,0.0,0.0,0.0,0.0,0.0,0.0,0.0,0.0,0.0,0.0,0.0,0.0,0.0,0.0,0.0,0.0,0.0,0.0,0.0,0.0,0.0,0.0,0.0,0.0,0.0,0.0,0.0,0.0,0.0,0.0,0.0,0.0,0.0,0.0,0.0,0.0,0.0,0.0,0.0,0.0,0.0,0.0,0.0,0.0,0.0,0.0,0.0,0.0,0.0,0.0,0.0,0.0,0.0,0.0,0.0,0.0,0.0,0.0,0.0,-2.7371,-2.8154,-2.867,-2.8851,-2.9142,-2.8283,-2.5907,0.0,0.0,0.0,0.0,0.0,0.0,0.0,0.0,0.0,0.0,0.0,0.0,0.0,0.0,0.0,0.0,0.0,0.0,0.0,0.0,0.0,0.0,0.0,0.0,0.0,0.0,0.0,0.0,0.0,0.0,0.0,0.0,0.0,0.0,0.0,0.0,0.0,0.0,0.0,0.0,0.0,0.0,0.0,0.0,0.0,0.0,0.0,0.0,0.0,0.0,0.0,0.0,0.0,0.0,0.0,0.0,0.0,0.0,0.0,0.0,0.0,0.0,0.0,0.0,0.0,0.0,0.0,0.0,0.0,0.0,0.0,0.0,0.0,0.0,0.0,0.0,0.0,0.0,0.0,0.0,0.0,0.0,0.0,0.0,0.0,0.0,0.0,0.0,0.0,0.0,0.0,0.0,0.0,0.0,0.0,0.0,0.0,0.0,0.0,0.0,0.0,0.0,0.0,0.0,-2.7013,-2.916,-2.9392,-2.9262,-2.8854,-2.9117,-2.8197,-2.5619,0.0,0.0,0.0,0.0,0.0,0.0,0.0,0.0,0.0,0.0,0.0,0.0,0.0,0.0,0.0,0.0,0.0,0.0,0.0,0.0,0.0,0.0,0.0,0.0,0.0,0.0,0.0,0.0,0.0,0.0,0.0,0.0,0.0,0.0,0.0,0.0,0.0,0.0,0.0,0.0,0.0,0.0,0.0,0.0,0.0,0.0,0.0,0.0,0.0,0.0,0.0,0.0,0.0,0.0,0.0,0.0,0.0,0.0,0.0,0.0,0.0,0.0,0.0,0.0,0.0,0.0,0.0,0.0,0.0,0.0,0.0,0.0,0.0,0.0,0.0,0.0,0.0,0.0,0.0,0.0,0.0,0.0,0.0,0.0,0.0,0.0,0.0,0.0,0.0,0.0,0.0,0.0,0.0,0.0,0.0,0.0,0.0,0.0,0.0,0.0,0.0,0.0,0.0,-2.6279,-2.7792,-2.9254,-2.9078,-2.8581,-2.7881,-2.834,-2.7581,-2.5066,-2.4429,0.0,0.0,0.0,0.0,0.0,0.0,0.0,0.0,0.0,0.0,0.0,0.0,0.0,0.0,0.0,0.0,0.0,0.0,0.0,0.0,0.0,0.0,0.0,0.0,0.0,0.0,0.0,0.0,0.0,0.0,0.0,0.0,0.0,0.0,0.0,0.0,0.0,0.0,0.0,0.0,0.0,0.0,0.0,0.0,0.0,0.0,0.0,0.0,0.0,0.0,0.0,0.0,0.0,0.0,0.0,0.0,0.0,0.0,0.0,0.0,0.0,0.0,0.0,0.0,0.0,0.0,0.0,0.0,0.0,0.0,0.0,0.0,0.0,0.0,0.0,0.0,0.0,0.0,0.0,0.0,0.0,0.0,0.0,0.0,0.0,0.0,0.0,0.0,0.0,0.0,0.0,0.0,0.0,0.0,0.0,0.0,0.0,0.0,0.0,0.0,0.0,0.0,-2.8051,-2.8726,-2.9208,-2.8806,-2.8131,-2.7214,-2.7412,-2.6732,-2.4718,-2.3655,0.0,0.0,0.0,0.0,0.0,0.0,0.0,0.0,0.0,0.0,0.0,0.0,0.0,0.0,0.0,0.0,0.0,0.0,0.0,0.0,0.0,0.0,0.0,0.0,0.0,0.0,0.0,0.0,0.0,0.0,0.0,0.0,0.0,0.0,0.0,0.0,0.0,0.0,0.0,0.0,0.0,0.0,0.0,0.0,0.0,0.0,0.0,0.0,0.0,0.0,0.0,0.0,0.0,0.0,0.0,0.0,0.0,0.0,0.0,0.0,0.0,0.0,0.0,0.0,0.0,0.0,0.0,0.0,0.0,0.0,0.0,0.0,0.0,0.0,0.0,0.0,0.0,0.0,0.0,0.0,0.0,0.0,0.0,0.0,0.0,0.0,0.0,0.0,0.0,0.0,0.0,0.0,0.0,0.0,0.0,0.0,0.0,0.0,0.0,0.0,0.0,0.0,-2.9068,-3.0236,-2.9796,-2.948,-2.8848,-2.7654,-2.6629,-2.5723,-2.4917,-2.2847,0.0,0.0,0.0,0.0,0.0,0.0,0.0,0.0,0.0,0.0,0.0,0.0,0.0,0.0,0.0,0.0,0.0,0.0,0.0,0.0,0.0,0.0,0.0,0.0,0.0,0.0,0.0,0.0,0.0,0.0,0.0,0.0,0.0,0.0,0.0,0.0,0.0,0.0,0.0,0.0,0.0,0.0,0.0,0.0,0.0,0.0,0.0,0.0,0.0,0.0,0.0,0.0,0.0,0.0,0.0,0.0,0.0,0.0,0.0,0.0,0.0,0.0,0.0,0.0,0.0,0.0,0.0,0.0,0.0,0.0,0.0,0.0,0.0,0.0,0.0,0.0,0.0,0.0,0.0,0.0,0.0,0.0,0.0,0.0,0.0,0.0,0.0,0.0,0.0,0.0,0.0,0.0,0.0,0.0,0.0,0.0,0.0,0.0,0.0,0.0,0.0,0.0,-2.8287,-2.9332,0.0,-2.9633,-2.8808,-2.6996,-2.6414,-2.5376,-2.3573,0.0,0.0,0.0,0.0,0.0,0.0,0.0,0.0,0.0,0.0,0.0,0.0,0.0,0.0,0.0,0.0,0.0,0.0,0.0,0.0,0.0,0.0,0.0,0.0,0.0,0.0,0.0,0.0,0.0,0.0,0.0,0.0,0.0,0.0,0.0,0.0,0.0,0.0,0.0,0.0,0.0,0.0,0.0,0.0,0.0,0.0,0.0,0.0,0.0,0.0,0.0,0.0,0.0,0.0,0.0,0.0,0.0,0.0,0.0,0.0,0.0,0.0,0.0,0.0,0.0,0.0,0.0,0.0,0.0,0.0,0.0,0.0,0.0,0.0,0.0,0.0,0.0,0.0,0.0,0.0,0.0,0.0,0.0,0.0,0.0,0.0,0.0,0.0,0.0,0.0,0.0,0.0,0.0,0.0,0.0,0.0,0.0,0.0,0.0,0.0,0.0,0.0,-2.621,-2.757,-2.8552,0.0,-2.9104,-2.8247,-2.6659,-2.5888,-2.4756,-2.2983,0.0,0.0,0.0,0.0,0.0,0.0,0.0,0.0,0.0,0.0,0.0,0.0,0.0,0.0,0.0,0.0,0.0,0.0,0.0,0.0,0.0,0.0,0.0,0.0,0.0,0.0,0.0,0.0,0.0,0.0,0.0,0.0,0.0,0.0,0.0,0.0,0.0,0.0,0.0,0.0,0.0,0.0,0.0,0.0,0.0,0.0,0.0,0.0,0.0,0.0,0.0,0.0,0.0,0.0,0.0,0.0,0.0,0.0,0.0,0.0,0.0,0.0,0.0,0.0,0.0,0.0,0.0,0.0,0.0,0.0,0.0,0.0,0.0,0.0,0.0,0.0,0.0,0.0,0.0,0.0,0.0,0.0,0.0,0.0,0.0,0.0,0.0,0.0,0.0,0.0,0.0,0.0,0.0,0.0,0.0,0.0,0.0,0.0,0.0,0.0,0.0,0.0,-2.5492,-2.7209,-2.8261,-2.8465,-2.7835,-2.7236,-2.6834,-2.4974,-2.3697,0.0,0.0,0.0,0.0,0.0,0.0,0.0,0.0,0.0,0.0,0.0,0.0,0.0,0.0,0.0,0.0,0.0,0.0,0.0,0.0,0.0,0.0,0.0,0.0,0.0,0.0,0.0,0.0,0.0,0.0,0.0,0.0,0.0,0.0,0.0,0.0,0.0,0.0,0.0,0.0,0.0,0.0,0.0,0.0,0.0,0.0,0.0,0.0,0.0,0.0,0.0,0.0,0.0,0.0,0.0,0.0,0.0,0.0,0.0,0.0,0.0,0.0,0.0,0.0,0.0,0.0,0.0,0.0,0.0,0.0,0.0,0.0,0.0,0.0,0.0,0.0,0.0,0.0,0.0,0.0,0.0,0.0,0.0,0.0,0.0,0.0,0.0,0.0,0.0,0.0,0.0,0.0,0.0,0.0,0.0,0.0,0.0,0.0,0.0,0.0,0.0,0.0,0.0,-2.6106,-2.7298,-2.8018,-2.8435,-2.7776,-2.6988,-2.6278,-2.5034,-2.3771,-2.2563,0.0,0.0,0.0,0.0,0.0,0.0,0.0,0.0,0.0,0.0,0.0,0.0,0.0,0.0,0.0,0.0,0.0,0.0,0.0,0.0,0.0,0.0,0.0,0.0,0.0,0.0,0.0,0.0,0.0,0.0,0.0,0.0,0.0,0.0,0.0,0.0,0.0,0.0,0.0,0.0,0.0,0.0,0.0,0.0,0.0,0.0,0.0,0.0,0.0,0.0,0.0,0.0,0.0,0.0,0.0,0.0,0.0,0.0,0.0,0.0,0.0,0.0,0.0,0.0,0.0,0.0,0.0,0.0,0.0,0.0,0.0,0.0,0.0,0.0,0.0,0.0,0.0,0.0,0.0,0.0,0.0,0.0,0.0,0.0,0.0,0.0,0.0,0.0,0.0,0.0,0.0,0.0,0.0,0.0,0.0,0.0,0.0,0.0,0.0,0.0,0.0,0.0,-2.5656,-2.6649,-2.7386,-2.8143,-2.7261,-2.6502,-2.6267,-2.5293,-2.3998,-2.2312,0.0,0.0,0.0,0.0,0.0,0.0,0.0,0.0,0.0,0.0,0.0,0.0,0.0,0.0,0.0,0.0,0.0,0.0,0.0,0.0,0.0,0.0,0.0,0.0,0.0,0.0,0.0,0.0,0.0,0.0,0.0,0.0,0.0,0.0,0.0,0.0,0.0,0.0,0.0,0.0,0.0,0.0,0.0,0.0,0.0,0.0,0.0,0.0,0.0,0.0,0.0,0.0,0.0,0.0,0.0,0.0,0.0,0.0,0.0,0.0,0.0,0.0,0.0,0.0,0.0,0.0,0.0,0.0,0.0,0.0,0.0,0.0,0.0,0.0,0.0,0.0,0.0,0.0,0.0,0.0,0.0,0.0,0.0,0.0,0.0,0.0,0.0,0.0,0.0,0.0,0.0,0.0,0.0,0.0,0.0,0.0,0.0,0.0,0.0,0.0,0.0,0.0,-2.4607,-2.5704,-2.6611,-2.7577,-2.6523,-2.5931,-2.6377,-2.5549,-2.4258,-2.2551,0.0,0.0,0.0,0.0,0.0,0.0,0.0,0.0,0.0,0.0,0.0,0.0,0.0,0.0,0.0,0.0,0.0,0.0,0.0,0.0,0.0,0.0,0.0,0.0,0.0,0.0,0.0,0.0,0.0,0.0,0.0,0.0,0.0,0.0,0.0,0.0,0.0,0.0,0.0,0.0,0.0,0.0,0.0,0.0,0.0,0.0,0.0,0.0,0.0,0.0,0.0,0.0,0.0,0.0,0.0,0.0,0.0,0.0,0.0,0.0,-2.4101,0.0,0.0,0.0,0.0,0.0,0.0,0.0,0.0,0.0,0.0,0.0,0.0,0.0,0.0,0.0,0.0,0.0,0.0,0.0,0.0,0.0,0.0,0.0,0.0,0.0,0.0,0.0,0.0,0.0,0.0,0.0,0.0,0.0,0.0,0.0,0.0,0.0,0.0,0.0,0.0,0.0,-2.4897,-2.5932,-2.6493,-2.668,-2.6356,-2.5839,-2.5166,-2.503,-2.4347,-2.2797,0.0,0.0,0.0,0.0,0.0,0.0,0.0,0.0,0.0,0.0,0.0,0.0,0.0,0.0,0.0,0.0,0.0,0.0,0.0,0.0,0.0,0.0,0.0,0.0,0.0,0.0,0.0,0.0,0.0,0.0,0.0,0.0,0.0,0.0,0.0,0.0,0.0,0.0,0.0,0.0,0.0,0.0,0.0,0.0,0.0,0.0,0.0,0.0,0.0,0.0,0.0,0.0,0.0,0.0,0.0,0.0,0.0,0.0,0.0,0.0,0.0,-2.5695,0.0,0.0,0.0,0.0,0.0,0.0,0.0,0.0,0.0,0.0,0.0,0.0,0.0,0.0,0.0,0.0,0.0,0.0,0.0,0.0,0.0,0.0,0.0,0.0,0.0,0.0,0.0,0.0,0.0,0.0,0.0,0.0,0.0,0.0,0.0,0.0,0.0,0.0,0.0,0.0,-2.4931,-2.5962,-2.6591,-2.6801,-2.6418,-2.6084,-2.5931,-2.5739,-2.505,-2.3749,-2.348,0.0,0.0,0.0,0.0,0.0,0.0,0.0,0.0,0.0,0.0,0.0,0.0,0.0,0.0,0.0,0.0,0.0,0.0,0.0,0.0,0.0,0.0,0.0,0.0,0.0,0.0,0.0,0.0,0.0,0.0,0.0,0.0,0.0,0.0,0.0,0.0,0.0,0.0,0.0,0.0,0.0,0.0,0.0,0.0,0.0,0.0,0.0,0.0,0.0,0.0,0.0,0.0,0.0,-3.0413,-3.0566,-3.0217,-3.0344,-2.9869,-2.8842,-2.7726,-2.6865,-2.6287,0.0,0.0,0.0,0.0,0.0,0.0,0.0,0.0,0.0,0.0,0.0,0.0,0.0,0.0,0.0,0.0,0.0,0.0,0.0,0.0,0.0,0.0,0.0,0.0,0.0,-2.409,-2.4055,0.0,0.0,0.0,0.0,0.0,0.0,0.0,0.0,0.0,0.0,0.0,0.0,-2.4905,-2.5925,-2.662,-2.7038,-2.6611,-2.6511,-2.6958,-2.668,-2.6062,-2.4951,-2.4675,-2.4052,0.0,0.0,0.0,0.0,0.0,0.0,0.0,0.0,0.0,0.0,0.0,0.0,0.0,0.0,0.0,0.0,0.0,0.0,0.0,0.0,0.0,0.0,0.0,0.0,0.0,0.0,0.0,0.0,0.0,0.0,0.0,0.0,-2.2129,-2.3834,0.0,0.0,0.0,0.0,0.0,0.0,0.0,0.0,0.0,0.0,0.0,0.0,0.0,0.0,-3.0069,-2.9883,-2.9788,-2.9695,-2.9939,-2.9584,-2.8692,-2.9358,-2.9236,-2.8475,-2.871,0.0,-2.8171,-2.7632,0.0,0.0,0.0,0.0,0.0,0.0,0.0,0.0,0.0,0.0,0.0,0.0,0.0,0.0,0.0,0.0,0.0,0.0,0.0,0.0,0.0,0.0,-2.4543,-2.4461,-2.4429,-2.4532,0.0,-2.435,-2.3661,-2.3402,0.0,0.0,0.0,0.0,0.0,0.0,0.0,0.0,-2.5182,-2.6029,-2.6379,-2.612,-2.6827,-2.7,-2.6219,-2.6876,-2.6988,-2.6152,-2.5045,-2.45,-2.4664,-2.2917,0.0,0.0,0.0,0.0,0.0,0.0,0.0,0.0,0.0,0.0,0.0,0.0,0.0,0.0,0.0,0.0,0.0,0.0,0.0,0.0,0.0,0.0,0.0,0.0,0.0,0.0,0.0,0.0,0.0,-2.3011,-2.459,-2.5476,-2.6639,-2.7413,0.0,0.0,0.0,0.0,0.0,0.0,0.0,0.0,0.0,-2.9975,-3.0262,-3.0513,-3.0727,-3.0606,-3.0503,-3.0413,-3.0204,-2.9817,-2.9395,-2.9758,-2.9735,-2.9406,-2.9612,-2.9387,-2.8858,-2.8562,-2.8495,-2.8521,0.0,0.0,0.0,0.0,0.0,-2.5584,-2.6157,-2.5976,0.0,0.0,0.0,0.0,0.0,0.0,0.0,0.0,0.0,0.0,0.0,0.0,0.0,-2.4559,-2.4497,-2.4559,-2.4755,-2.4451,-2.4081,0.0,-2.4551,-2.4536,-2.3235,0.0,0.0,0.0,0.0,0.0,-2.5093,-2.5977,-2.6467,-2.635,-2.6865,-2.7082,-2.6772,-2.7033,-2.6896,-2.6071,-2.5559,-2.5198,-2.4938,-2.3717,-2.3417,0.0,0.0,0.0,0.0,0.0,0.0,0.0,0.0,0.0,0.0,0.0,0.0,0.0,0.0,0.0,0.0,0.0,0.0,0.0,0.0,0.0,0.0,0.0,0.0,0.0,0.0,0.0,0.0,-2.4236,-2.571,-2.6422,-2.759,-2.8449,0.0,0.0,0.0,0.0,0.0,0.0,-2.9682,-3.0181,-3.0663,-3.1192,-3.1559,-3.1476,-3.0968,-3.1109,-3.1087,-3.0763,-3.0514,-3.0205,-2.9943,-2.9988,-2.9943,-2.976,-2.9795,-2.9439,-2.8852,-2.9071,-2.8621,-2.791,-2.8177,-2.8023,-2.7565,-2.7463,-2.6537,-2.5466,-2.612,-2.6078,-2.5678,-2.5461,0.0,-2.5771,-2.5223,0.0,0.0,0.0,0.0,-2.4497,-2.4497,0.0,-2.4921,-2.458,-2.4497,-2.4497,-2.4497,-2.4658,-2.4798,0.0,-2.5374,-2.5589,-2.4091,0.0,0.0,0.0,0.0,-2.4097,-2.4915,-2.554,-2.5931,-2.6035,-2.6299,-2.6539,-2.6688,-2.6756,-2.6561,-2.6114,-2.6032,-2.5734,-2.5204,-2.4439,-2.4261,-2.4701,0.0,0.0,0.0,0.0,0.0,0.0,0.0,0.0,0.0,0.0,0.0,0.0,0.0,0.0,0.0,0.0,0.0,0.0,0.0,0.0,0.0,0.0,0.0,0.0,0.0,0.0,0.0,0.0,0.0,-2.57,-2.6187,0.0,0.0,0.0,0.0,-2.8971,-2.9464,-3.0168,-3.1128,-3.1038,-3.1203,-3.1756,-3.1802,-3.1504,-3.0893,-3.1481,-3.1242,-3.0236,-3.074,-3.0339,-2.9174,-2.9439,-2.9163,-2.8488,-2.8689,-2.8502,-2.8096,-2.854,-2.8746,-2.8779,-2.8219,-2.8444,-2.8932,-2.7737,-2.7249,-2.7037,-2.6194,-2.564,-2.5282,-2.572,-2.5854,-2.5947,-2.6351,-2.5854,0.0,0.0,-2.4817,-2.4497,-2.4497,-2.4518,-2.4528,-2.4507,-2.4497,-2.4497,-2.4497,-2.5137,-2.5495,0.0,-2.4563,-2.4451,-2.3988,0.0,-2.392,-2.4318,-2.3968,-2.3965,-2.4703,-2.448,-2.4217,-2.4228,-2.4755,-2.5098,-2.511,-2.5755,-2.6338,-2.6822,-2.6299,-2.5973,-2.5949,-2.5106,-2.453,-2.4222,-2.3769,0.0,0.0,0.0,0.0,0.0,0.0,0.0,0.0,0.0,0.0,0.0,0.0,0.0,0.0,0.0,0.0,0.0,0.0,0.0,0.0,0.0,0.0,0.0,0.0,0.0,0.0,0.0,0.0,-2.5583,-2.6468,0.0,-2.7362,-2.7122,-2.7089,-2.7576,-2.7508,-2.7881,-2.8827,-2.9126,-2.9492,-2.9997,-3.0687,-3.1011,-3.0748,-3.1383,-3.1308,-3.0467,-3.0487,-2.9932,-2.8874,-2.9301,-2.9255,-2.885,-2.9117,-2.8839,-2.8279,-2.8443,-2.8253,-2.7839,-2.7321,-2.7285,-2.7449,-2.6673,-2.6208,-2.5902,-2.5568,-2.5357,-2.5261,-2.574,-2.5875,-2.5854,-2.574,-2.5492,-2.5127,-2.4828,-2.4621,-2.4497,-2.4497,-2.4497,-2.4497,-2.4497,-2.4497,-2.4497,-2.4497,-2.4733,-2.4861,-2.4583,-2.4935,-2.5144,-2.4513,-2.4251,-2.4259,-2.4648,-2.452,-2.4404,-2.4597,-2.4568,-2.4476,-2.4299,-2.4612,-2.4743,-2.4612,-2.529,-2.5397,-2.4696,-2.5374,-2.5457,-2.4672,-2.4751,-2.4725,-2.4517,-2.3835,-2.3421,0.0,0.0,0.0,0.0,0.0,0.0,0.0,0.0,0.0,0.0,0.0,0.0,0.0,0.0,0.0,0.0,0.0,0.0,0.0,0.0,0.0,0.0,0.0,0.0,0.0,0.0,-2.4754,-2.5419,-2.6195,-2.6731,-2.699,-2.6491,-2.6406,-2.6862,-2.6793,-2.7041,-2.7849,-2.8287,-2.8677,-2.9011,-3.013,-3.0618,-3.0411,-3.1431,-3.1357,-3.011,-3.0371,-2.973,-2.8436,-2.8998,-2.9071,-2.8746,-2.8932,-2.8699,-2.8243,-2.8243,-2.7961,-2.7505,-2.7014,-2.6853,-2.6812,-2.6501,-2.5968,-2.5409,-2.5055,-2.4952,-2.5024,-2.5513,-2.5658,-2.5637,-2.5492,-2.5347,-2.5127,-2.4817,-2.4621,-2.4497,-2.4497,-2.4497,-2.4497,-2.4497,-2.4497,-2.4497,-2.4497,-2.4497,-2.4497,-2.4497,-2.4978,-2.5209,-2.4713,-2.446,-2.4407,-2.4705,-2.4585,-2.4352,-2.4105,-2.4045,-2.3909,-2.3567,-2.3708,-2.3781,-2.3658,-2.4491,-2.4613,-2.3587,-2.4774,-2.5099,-2.4194,-2.4532,-2.4661,-2.457,-2.3793,-2.3381,-2.3346,0.0,0.0,0.0,0.0,0.0,0.0,0.0,0.0,0.0,0.0,0.0,0.0,0.0,0.0,0.0,0.0,0.0,0.0,0.0,0.0,0.0,0.0,0.0,-2.2229,-2.2871,-2.3794,-2.5133,-2.5112,-2.5269,-2.5884,-2.619,-2.655,-2.7012,-2.7484,-2.8016,-2.8439,-2.8714,-2.8863,-2.8863,-2.9974,-3.0307,-2.9817,-3.1494,-3.1255,-2.9177,-3.0357,-2.978,-2.7737,-2.8411,-2.843,-2.7893,-2.794,-2.794,-2.7893,-2.7893,-2.7893,-2.7846,-2.7489,-2.7299,-2.7299,-2.7299,-2.6718,-2.5751,-2.4784,-2.4432,-2.4547,-2.5011,-2.5155,-2.5217,-2.5685,-2.5465,-2.5124,-2.5124,-2.4751,-2.4411,-2.4411,-2.4454,-2.4454,-2.4454,-2.4497,-2.4497,-2.4497,-2.4497,-2.4497,-2.4497,-2.4497,-2.4497,-2.4497,-2.4497,-2.4497,-2.4497,-2.4178,0.0,-2.3267,-2.2801,-2.2346,-2.1901,-2.198,-2.2132,-2.2143,-2.3357,-2.4001,-2.3788,-2.4598,-2.4943,-2.4675,-2.4475,-2.4355,-2.429,-2.366,-2.3349,-2.3337,0.0,0.0,0.0,0.0,0.0,0.0,0.0,0.0,0.0,0.0,0.0,0.0,0.0,0.0,0.0,0.0,0.0,0.0,0.0,0.0,0.0,0.0,-2.2448,-2.2664,-2.3215,-2.3888,-2.4548,-2.478,-2.4957,-2.5101,-2.5189,-2.5295,-2.5401,-2.5565,-2.571,-2.5817,-2.5926,-2.5926,-2.5926,-2.7041,-2.758,-2.7428,-2.8754,-2.8798,-2.7692,-2.8225,-2.7632,-2.6169,-2.6675,-2.6592,-2.6061,-2.6244,-2.6196,-2.6061,-2.6061,-2.5916,-2.5906,-2.7268,-2.7809,-2.7809,-2.7809,-2.6791,-2.5194,-2.3869,-2.3415,-2.3483,-2.3873,-2.3806,-2.3609,-2.3771,-2.3364,-2.2884,-2.2884,-2.2665,-2.2448,-2.2448,-2.2974,-2.3497,-2.3497,-2.4003,-2.4497,-2.4497,-2.4497,-2.4497,-2.4497,-2.4497,-2.4497,-2.4497,-2.4497,-2.4497,-2.4497,0.0,0.0,-2.3743,-2.3287,-2.2946,-2.2822,-2.254,-2.2517,-2.286,-2.3491,-2.3681,0.0,-2.4081,-2.4296,-2.3714,-2.4165,-2.4375,-2.4375,-2.4204,-2.4037,0.0,0.0,0.0,0.0,0.0,0.0,0.0,0.0,0.0,0.0,0.0,0.0,0.0,0.0,0.0,0.0,0.0,0.0,0.0,0.0,0.0,0.0,-2.1856,-2.2624,-2.3051,-2.364,-2.4179,-2.4518,-2.471,-2.4821,-2.4821,-2.4821,-2.4821,-2.4821,-2.4821,-2.4821,-2.4821,-2.4821,-2.4821,-2.4821,-2.5889,-2.6527,-2.6527,-2.7644,-2.7733,-2.6865,-2.7299,-2.6858,-2.5629,-2.6013,-2.6014,0.0,-2.5684,-2.5606,-2.547,-2.547,-2.5373,0.0,0.0,0.0,0.0,0.0,-2.5385,-2.4362,-2.3017,-2.2751,-2.304,-2.324,-2.3155,-2.3002,-2.3002,-2.2601,-2.2173,-2.2173,-2.2085,-2.1996,-2.1996,-2.235,-2.2658,-2.2658,-2.2833,-2.3008,-2.3139,-2.2999,-2.2911,-2.2965,0.0,0.0,-2.329,-2.396,-2.4497,-2.4497,-2.4497,-2.4332,0.0,-2.365,-2.3401,-2.3205,-2.2946,-2.2894,-2.3163,-2.3745,0.0,0.0,0.0,-2.3969,-2.2927,-2.3486,0.0,0.0,0.0,0.0,0.0,0.0,0.0,0.0,-2.3864,-2.4135,0.0,0.0,0.0,0.0,0.0,0.0,0.0,0.0,0.0,0.0,0.0,0.0,0.0,0.0,0.0,0.0,-2.1596,-2.2379,-2.3311,-2.3929,-2.4376,-2.4765,-2.4821,-2.4821,-2.4821,-2.4821,-2.4821,-2.4821,-2.4821,-2.4821,-2.4821,0.0,0.0,0.0,0.0,-2.6309,-2.6309,-2.7321,-2.7321,-2.6309,-2.689,-2.6629,-2.5628,-2.588,-2.5966,-2.5898,-2.5565,-2.543,-2.5382,-2.5382,-2.5363,-2.5314,-2.508,-2.4954,-2.4772,-2.3616,-2.3355,0.0,0.0,0.0,0.0,-2.2785,-2.2721,-2.2629,-2.2674,-2.2331,-2.1952,-2.1952,-2.1952,-2.1908,-2.1908,-2.1863,-2.1784,-2.173,-2.1302,-2.098,-2.1203,-2.0926,-2.0693,-2.089,-2.089,-2.1033,-2.1552,-2.3028,-2.4186,-2.4272,-2.4272,0.0,-2.3781,-2.3647,-2.3483,-2.3084,0.0,0.0,-2.3043,-2.3711,-2.3877,-2.3339,-2.3846,-2.3608,-2.2305,-2.2681,-2.2639,-2.2057,-2.2104,-2.227,-2.2617,-2.2568,-2.2795,-2.3214,-2.376,-2.4063,0.0,0.0,0.0,0.0,0.0,0.0,0.0,0.0,0.0,0.0,0.0,0.0,0.0,0.0,0.0,-2.1693,-2.2127,-2.2605,-2.3062,-2.3191,-2.3632,-2.471,-2.4821,-2.4821,-2.4821,-2.4821,-2.4821,-2.4821,-2.4821,-2.4821,-2.4821,-2.4821,0.0,-2.4821,-2.5034,-2.5145,-2.5145,-2.5357,-2.5357,-2.5136,0.0,0.0,-2.4492,-2.4551,-2.4465,-2.4149,-2.3771,-2.3595,-2.3577,-2.3311,-2.3179,-2.3379,-2.4924,-2.5353,-2.485,-2.3306,-2.2536,-2.2134,-2.0902,-2.0539,-2.0751,-2.1303,-2.1011,-2.0436,-2.0606,-2.0012,0.0,-1.9255,-1.9126,-1.8942,-1.8942,-1.9484,-1.9985,-1.9977,-2.0458,-2.0935,-2.098,-2.0935,-2.0845,-2.089,-2.089,-2.0935,-2.1033,-2.1721,-2.2359,-2.2755,-2.2799,-2.277,-2.2684,-2.2212,-2.1969,-2.2216,-2.1768,-2.1583,-2.1964,-2.1791,-2.1787,-2.2017,-2.2189,-2.2102,-2.1842,-2.2154,-2.2167,-2.1784,-2.2052,-2.2208,-2.2281,-2.1802,-2.1769,-2.2132,-2.2537,-2.2952,0.0,0.0,0.0,0.0,0.0,0.0,0.0,0.0,0.0,0.0,0.0,-1.904,-1.9092,0.0,-1.9975,-2.0889,-2.1089,-2.1524,-2.2647,-2.2671,-2.2901,-2.3809,-2.3921,-2.3921,-2.3921,-2.3921,-2.3921,-2.3921,-2.42,-2.42,-2.3921,-2.4487,-2.4535,-2.3921,-2.42,-2.42,-2.3921,-2.3921,-2.3921,-2.3921,-2.3921,-2.3813,-2.3577,-2.3379,-2.3153,-2.2843,-2.2435,-2.2127,-2.1998,-2.1808,-2.1733,-2.1827,-2.2902,-2.3525,-2.3682,-2.2323,-2.1656,-2.1195,-2.0036,-1.9615,-1.9613,-1.9933,-1.9678,-1.9241,-1.9486,-1.9043,-1.8488,-1.8589,-1.855,-1.8458,-1.8458,-1.8719,-1.8988,-1.8988,-1.9063,-1.9139,-1.9285,-1.9101,-1.8964,-1.9085,-1.9085,-1.9185,-1.9467,-1.9704,-2.0286,-2.1489,-2.1667,-2.1667,-2.1667,-2.159,-2.1641,-2.1845,-2.1766,-2.1817,-2.2031,-2.1722,-2.1651,-2.2031,-2.1908,-2.165,-2.1168,-2.1489,-2.1371,-2.0823,-2.1152,-2.1386,-2.1533,-2.1229,-2.1172,-2.1344,-2.1553,-2.1998,0.0,0.0,0.0,0.0,0.0,0.0,0.0,0.0,-1.7136,-1.7593,-1.7514,-1.7453,-1.7812,-1.7772,-1.8269,-2.001,-2.0032,-2.0419,-2.2154,-2.221,-2.2185,-2.2683,-2.2901,-2.3014,-2.3014,-2.3014,-2.3014,-2.3014,-2.3529,-2.3626,-2.3117,-2.4086,-2.415,-2.3117,-2.3569,-2.3537,-2.3014,-2.3014,-2.3014,-2.3014,-2.3014,-2.3014,-2.3006,-2.2656,-2.2426,-2.2194,-2.1727,-2.1262,-2.0925,-2.0925,-2.0925,-2.0925,-2.0925,-2.1479,-2.2148,-2.1169,-2.0611,-2.0214,-1.9228,-1.887,-1.8815,-1.8768,-1.8571,-1.8366,-1.8618,-1.8379,-1.811,-1.8311,-1.8357,-1.8357,-1.8357,-1.8265,-1.8125,-1.8125,-1.7652,-1.7239,-1.7441,-1.7207,-1.6972,-1.7192,-1.7239,-1.738,-1.7846,-1.7939,-1.8527,-2.0223,-2.0494,-2.0494,-2.0494,-2.0827,-2.106,-2.106,-2.1373,-2.1587,-2.1676,-2.1596,-2.1633,-2.184,-2.1661,-2.1212,-2.0489,-2.0763,-2.0612,-1.9854,-2.019,-2.046,-2.0769,-2.0769,-2.079,-2.0925,-2.0925,-2.1275,-1.7128,-1.7404,-1.7251,-1.6007,-1.582,-1.5885,0.0,0.0,-1.6009,-1.6789,-1.7143,-1.7489,-1.7753,-1.8236,-1.8981,-2.0348,-2.0529,-2.0801,-2.1671,-2.1781,-2.1765,-2.182,-2.2513,-2.3014,-2.3014,-2.3014,-2.3014,-2.3014,-2.3365,-2.354,-2.3425,-2.3877,-2.3901,-2.3433,-2.3483,-2.3389,-2.3022,-2.3014,-2.3014,-2.3014,-2.3014,-2.3014,-2.3014,-2.2974,-2.2934,-2.2863,-2.2188,-2.1528,-2.0925,-2.0925,-2.0925,-2.0925,-2.0925,-2.0968,-2.099,-2.0032,-1.9428,-1.8956,-1.8169,-1.8024,-1.814,-1.7938,-1.7658,-1.7431,-1.7478,-1.7174,-1.6817,-1.6817,-1.6864,-1.6864,-1.6864,-1.6817,-1.6817,-1.6817,-1.6723,-1.6676,-1.673,-1.6683,-1.673,-1.6972,-1.7026,-1.7113,-1.7333,-1.738,-1.7746,-1.8866,-1.905,-1.905,-1.905,-1.895,-1.8858,-1.8858,-1.8673,-1.8765,-1.918,-1.9608,-1.9895,-2.0017,-1.9986,-1.9937,-1.9974,-2.0176,-2.0118,-1.9748,-2.0009,-2.0166,-2.0289,-2.0289,-2.0512,-2.0925,-2.0925,-2.0976,-1.4395,-1.4784,-1.4977,-1.4198,-1.4468,-1.4927,-1.4851,-1.5124,-1.5384,-1.5722,-1.5875,-1.6073,-1.6639,-1.6562,-1.7055,0.0,-1.9026,-1.9074,-1.9886,-2.06,-2.0776,-2.0103,-2.1306,-2.223,-2.223,-2.2059,-2.2021,-2.2226,-2.2709,-2.2886,-2.2733,-2.3512,-2.3552,-2.2518,-2.2794,-2.2632,-2.1945,-2.1945,-2.1945,-2.1945,-2.1945,-2.1945,-2.1945,-2.1945,-2.1839,-2.1612,-2.1,-2.0545,-2.0219,-2.0029,-1.9946,-1.9946,-1.9946,-1.9946,-1.9966,-1.9784,-1.9425,-1.8926,-1.8176,-1.7721,-1.7441,-1.734,-1.7099,-1.6911,-1.7059,-1.6871,-1.6636,-1.6784,-1.6831,-1.6784,-1.6636,-1.673,-1.6784,-1.6636,-1.6588,-1.6588,-1.6588,-1.6588,-1.6636,-1.673,-1.6784,-1.6831,-1.7059,-1.7113,-1.7254,-1.7675,-1.7854,-1.7893,-1.7768,-1.804,-1.8357,-1.8635,-1.8589,-1.8596,-1.8781,-1.892,-1.9168,-1.963,-1.9507,-1.9433,-1.9484,-1.9741,-1.9646,-1.9067,-1.9402,-1.9577,-1.9625,-1.9683,-1.9776,-1.9939,-1.9793,-1.9702,-1.2335,-1.2904,-1.34,-1.3098,-1.3717,-1.4436,-1.4716,-1.4949,-1.5125,-1.5125,-1.4964,-1.4993,-1.5614,-1.5366,-1.5782,-1.8023,-1.8001,-1.8046,-1.8896,-1.9712,-1.9903,-1.9118,-2.0049,-2.0823,-2.0845,-2.1075,-2.1342,-2.1672,-2.2185,-2.2438,-2.2346,-2.3225,-2.314,-2.1906,-2.2237,-2.2094,-2.1218,-2.1211,-2.1211,-2.1211,-2.1211,-2.1211,-2.1211,-2.1211,-2.1035,-2.0691,-2.0135,-1.9842,-1.9793,-1.9463,-1.9279,-1.9279,-1.9279,-1.9279,-1.931,-1.9537,-1.931,-1.8799,-1.809,-1.7468,-1.6979,-1.6744,-1.6595,-1.6494,-1.6643,-1.6541,-1.6447,-1.669,-1.6744,-1.6643,-1.6494,-1.6595,-1.6643,-1.6447,-1.6393,-1.64,-1.6447,-1.6494,-1.6541,-1.6683,-1.673,-1.6784,-1.7019,-1.7026,-1.6979,-1.6878,-1.7012,-1.7099,-1.7026,-1.7488,-1.7947,-1.8272,-1.8404,-1.8496,-1.8496,-1.8542,-1.8813,-1.9418,-1.9241,-1.915,-1.9152,-1.9406,-1.9249,-1.8728,-1.8962,-1.9142,-1.9179,-1.9221,-1.9236,-1.914,-1.8994,-1.8723,-1.2208,-1.2899,-1.3674,-1.3665,-1.4147,-1.474,-1.5329,-1.5277,-1.5125,-1.5125,-1.4964,-1.4881,-1.5096,-1.5454,-1.6222,-1.7736,-1.8279,-1.8754,-1.9493,-1.9401,-1.9344,-1.9555,-1.8951,-1.8608,0.0,-2.0257,-2.1342,-2.1672,-2.1993,-2.2301,-2.2593,-2.2908,-2.286,-2.2184,-2.2229,-2.1921,-2.1218,-2.1211,-2.1211,-2.1211,-2.1211,-2.1211,-2.1211,-2.1211,-2.1035,-2.0706,-2.0369,-2.0047,-1.9793,-1.9463,-1.9279,-1.9279,-1.9279,-1.9279,-1.9235,-1.895,-1.8619,-1.8205,-1.7385,-1.7087,-1.6885,-1.6069,-1.6028,-1.6177,-1.5927,-1.5832,-1.5879,-1.617,-1.6028,-1.5879,-1.617,-1.6028,-1.5832,-1.5832,-1.5825,-1.5879,-1.6177,-1.6224,-1.6366,-1.6885,-1.6979,-1.7066,-1.7239,-1.7106,-1.6925,-1.6636,-1.6629,-1.673,-1.6979,-1.7026,-1.7026,-1.7026,-1.7473,-1.7738,-1.7738,-1.8396,-1.8877,-1.9028,-1.8996,-1.9056,-1.9105,-1.9047,-1.9024,-1.8965,-1.8951,-1.8967,-1.9114,-1.9128,-1.8992,-1.8811,-1.9118,-1.8499,-1.2321,-1.2795,-1.331,-1.3457,-1.3859,-1.437,-1.5101,-1.5184,-1.5125,-1.5125,-1.4842,-1.4666,-1.4881,-1.5057,-1.5571,-1.6642,-1.722,-1.7493,-1.7369,-1.8134,-1.844,-1.778,-1.8582,0.0,0.0,0.0,0.0,-1.9726,-1.9851,-2.0237,-2.0915,-2.1036,-2.0753,-1.9991,-1.9971,-1.9568,-1.868,-1.868,-1.8771,-1.8952,-1.8952,-1.8952,-1.8945,-1.8764,-1.8622,-1.8506,-1.8084,-1.8273,-1.8816,-1.8374,-1.8639,-1.9279,-1.9279,-1.9279,-1.9264,-1.9155,-1.8906,-1.8547,-1.7811,-1.7414,-1.7204,-1.676,-1.6548,-1.6447,-1.6346,-1.6211,-1.6076,-1.6177,-1.6265,-1.6258,-1.6021,-1.6116,-1.6305,-1.6123,-1.6076,-1.6123,-1.64,-1.6447,-1.6305,-1.5825,-1.573,-1.5581,-1.514,-1.5003,-1.5153,-1.5724,-1.6116,-1.6508,-1.6932,-1.6979,-1.7073,-1.72,-1.7333,-1.7419,-1.7419,-1.7652,-1.7985,-1.8387,-1.7702,-1.7271,-1.7287,-1.6587,-1.6037,-1.5689,-1.5682,-1.5724,-1.5756,-1.5771,-1.5757,-1.5652,-1.5626,-1.5341,-1.2278,-1.2691,-1.3179,-1.3334,-1.3703,-1.4161,-1.4814,-1.5018,-1.4993,-1.4915,-1.4676,-1.4504,-1.445,-1.4651,-1.5033,-1.5773,-1.6281,-1.654,-1.6466,-1.7075,-1.7303,-1.683,-1.7649,-1.8099,0.0,0.0,0.0,-1.8981,-1.9074,-1.9399,-2.0049,-2.0075,-1.9802,-1.9087,-1.8919,-1.8463,-1.7711,-1.7491,-1.7468,-1.7637,-1.7727,-1.7727,-1.7631,-1.7462,-1.7384,-1.7354,-1.6875,-1.7092,-1.7727,-1.7221,-1.7411,-1.8101,-1.8101,-1.8101,-1.8101,-1.8101,-1.7977,-1.7788,-1.7946,-1.7672,-1.7264,-1.6977,-1.6449,-1.592,-1.592,-1.5565,-1.521,-1.5306,-1.5588,-1.5759,-1.5325,-1.5618,-1.5909,-1.5531,-1.546,-1.5502,-1.5793,-1.5835,-1.569,-1.5149,-1.5052,-1.4857,-1.4368,-1.4178,-1.4276,-1.4863,-1.5204,-1.5673,-1.6333,-1.6447,-1.6346,-1.6096,-1.6096,-1.6096,-1.6096,-1.6137,-1.6286,-1.6667,-1.595,-1.556,-1.556,-1.4882,-1.4366,-1.4059,-1.4071,-1.4093,-1.4128,-1.4115,-1.4035,-1.3955,-1.389,-1.3714,-1.209,-1.2578,-1.3088,-1.3301,-1.3655,-1.4127,-1.4657,-1.4768,-1.4705,-1.4495,-1.4441,-1.4251,-1.3753,0.0,-1.4723,-1.5251,-1.5567,-1.6062,-1.6861,-1.6193,-1.5949,0.0,0.0,0.0,0.0,0.0,0.0,-1.9281,0.0,-1.9525,-1.9871,-1.9884,-1.9758,-1.9349,-1.8902,-1.8441,-1.8093,-1.7534,-1.7232,-1.7232,-1.7476,-1.747,-1.7232,-1.7214,-1.7208,-1.7178,-1.6723,-1.6546,-1.6548,-1.6037,-1.5873,-1.5914,-1.5914,-1.5914,-1.5914,-1.5914,-1.5914,-1.6143,-1.7733,-1.771,-1.6947,-1.6648,-1.5725,-1.4635,-1.4629,-1.407,-1.3463,-1.3695,-1.4147,-1.4459,-1.4145,-1.4489,-1.4818,-1.4258,-1.4112,-1.4214,-1.4468,-1.4525,-1.457,-1.4761,-1.4755,-1.4755,-1.4755,-1.4564,-1.4372,-1.4112,-1.4112,-1.4439,-1.5207,-1.5335,-1.4952,-1.3991,-1.3895,-1.3895,-1.3895,-1.4007,-1.4091,-1.4135,-1.4015,-1.3942,-1.3942,-1.3851,-1.387,-1.3908,-1.3914,-1.3916,-1.3917,-1.3917,-1.3805,-1.3546,-1.3821,-1.363,-1.217,-1.2311,-1.2654,-1.2871,-1.3169,-1.3509,-1.3942,-1.4024,-1.4069,-1.401,-1.3703,-1.3403,-1.3293,-1.3991,0.0,-1.5024,-1.5782,0.0,-1.6779,-1.6439,0.0,-1.6805,0.0,-1.659,-1.6797,-1.6669,0.0,0.0,-1.6806,-1.6488,-1.705,-1.7066,-1.6824,-1.6266,-1.6139,-1.5732,-1.51,-1.4917,-1.4887,-1.4887,-1.4943,-1.4938,-1.4882,-1.471,-1.4629,-1.4614,-1.4341,-1.4635,-1.5237,-1.4983,-1.5286,-1.5914,-1.5914,-1.5914,-1.5914,-1.5914,-1.5914,-1.5956,-1.6371,-1.6127,-1.545,-1.4939,-1.4379,-1.392,-1.3719,-1.3505,-1.3351,-1.3397,-1.365,-1.3813,-1.3574,-1.3903,-1.4286,-1.4146,-1.4265,-1.4468,-1.4767,-1.4811,-1.4609,-1.3897,-1.3136,-1.2581,-1.2581,-1.3192,-1.3653,-1.3601,-1.4202,-1.4612,-1.4439,-1.4421,-1.4315,-1.3997,-1.3992,-1.3992,-1.3992,-1.3998,-1.4139,-1.4397,-1.3406,-1.2912,-1.3127,-1.2123,-1.1536,-1.1589,-1.1589,-1.1561,-1.1555,-1.1555,-1.1529,-1.1485,-1.1533,-1.1502,-1.1553,-1.1648,-1.1941,-1.2321,-1.2534,-1.2697,-1.2927,-1.3279,-1.3356,-1.2942,-1.2947,-1.2909,-1.281,-1.3553,0.0,0.0,0.0,0.0,-1.6604,-1.6168,-1.6042,0.0,-1.6481,0.0,-1.6364,-1.6353,-1.6224,0.0,-1.5917,-1.609,-1.6418,-1.6423,-1.6237,-1.5728,-1.5499,-1.493,-1.4014,-1.4099,-1.3929,-1.3443,-1.3534,-1.3407,-1.3008,-1.2897,-1.2844,-1.2831,0.0,-1.2839,-1.3279,-1.303,-1.3216,-1.3689,-1.364,-1.3604,-1.3604,-1.3604,-1.3604,-1.3604,-1.3604,-1.3414,-1.3227,-1.4043,-1.3786,-1.3141,-1.2833,-1.2486,-1.2201,-1.2201,-1.2561,-1.2784,-1.2417,-1.284,-1.3314,-1.321,-1.3289,-1.3498,-1.375,-1.3802,-1.3645,-1.3078,-1.2456,-1.2038,-1.2038,-1.2557,-1.2973,-1.2973,-1.3441,-1.365,-1.3236,-1.352,-1.3596,-1.3074,-1.3023,-1.3023,-1.3023,-1.3013,-1.3075,-1.3283,-1.2505,-1.2096,-1.2257,-1.1502,-1.1076,-1.1076,-1.0966,-1.0857,-1.0857,-1.0747,-1.0692,-1.0692,-1.0692,-1.0692,-1.0272,-1.0516,-1.0923,-1.1372,-1.1677,-1.1819,-1.1839,-1.2379,-1.2594,-1.1772,0.0,-1.2497,-1.231,-1.2843,-1.3573,-1.4195,0.0,-1.5101,-1.6058,-1.5481,-1.5167,-1.5847,-1.5807,-1.5608,-1.5383,-1.5378,-1.5117,-1.4534,-1.5834,-1.6613,-1.6613,-1.6613,-1.6418,-1.6104,-1.5569,-1.4818,-1.3806,-1.3945,-1.3512,-1.2603,-1.2773,-1.2464,-1.1816,-1.1816,-1.1816,-1.1808,0.0,0.0,-1.1354,-1.1106,-1.0952,-1.0892,-1.0789,-1.0712,-1.0692,-1.0692,-1.0692,-1.0692,-1.0692,-1.0692,-1.1042,-1.3275,-1.3169,-1.2109,-1.185,-1.123,-1.0609,-1.0609,-1.1133,-1.1531,-1.1012,-1.1465,-1.2014,-1.1769,-1.176,-1.1815,-1.2085,-1.2085,-1.2085,-1.2085,-1.2217,-1.2231,-1.2231,-1.2368,-1.2387,-1.2387,-1.2387,-1.2332,-1.206,-1.2745,-1.2822,-1.1898,-1.1793,-1.1793,-1.1793,-1.1702,-1.1701,-1.1754,-1.1643,-1.1623,-1.1623,-1.1568,-1.1514,-1.1459,-1.1181,-1.1072,-1.1072,-1.0857,-1.0692,-1.0747,-1.0692,-1.0692,-0.7927,-0.8546,-0.9325,-0.9405,-1.0329,-1.1194,-1.1082,-1.1306,0.0,0.0,-1.1046,-1.1224,-1.1682,-1.2498,-1.3158,-1.3398,-1.3881,-1.4224,-1.4232,-1.3784,-1.3629,0.0,0.0,0.0,0.0,0.0,0.0,0.0,0.0,0.0,-1.4464,-1.4464,-1.4268,-1.394,-1.3362,-1.2906,-1.262,-1.2441,-1.2274,-1.1937,-1.197,-1.197,-1.1816,-1.1816,-1.1816,-1.1816,0.0,0.0,-1.1374,-1.1314,-1.117,-1.0904,-1.0871,-1.0826,-1.0692,-1.0692,-1.0692,-1.0692,-1.0692,-1.0692,-1.0739,-1.0979,-1.0787,-1.0367,-1.0105,-0.9875,-0.9636,-0.9636,-0.9741,-0.985,-0.9723,-0.997,-1.0213,-1.0193,-1.0359,-1.0516,-1.0569,-1.0569,-1.0569,-1.0569,-1.1058,-1.1478,-1.1478,-1.1999,-1.2387,-1.2387,-1.2387,-1.2382,-1.2332,-1.2267,-1.2112,-1.1684,-1.163,-1.163,-1.163,-1.1607,-1.1738,-1.1955,-1.1714,-1.1623,-1.1623,-1.1345,-1.1076,-1.0857,-1.0802,-1.0857,-1.1072,-1.0857,-1.0802,-1.1021,-1.0802,-1.0692,-0.6425,-0.6807,-0.7388,-0.7493,-0.8054,-0.8735,-0.9169,0.0,0.0,0.0,-1.0458,-1.0802,-1.1076,-1.1758,0.0,-1.2449,-1.2962,-1.3401,-1.3449,-1.3148,0.0,0.0,0.0,0.0,0.0,0.0,0.0,0.0,0.0,0.0,-1.4141,-1.3809,-1.3477,-1.3346,-1.2869,-1.2544,-1.243,-1.2251,-1.1887,-1.1409,-1.1316,-1.1091,-1.0789,-1.0789,-1.0789,-1.0789,-1.0789,0.0,-1.0546,-1.0469,-1.0343,-1.0196,-1.0165,-1.0084,-1.0013,-1.0013,-0.9958,-0.9939,-0.9939,-0.9828,-0.9761,-0.9599,-0.9815,-1.0074,-0.9806,-0.9645,-0.9585,-0.9585,-0.9585,-0.9585,-0.9585,-0.9693,-0.9827,-0.9894,-0.9977,-1.0083,-1.0083,-1.0044,-1.0,-1.0,-1.0389,-1.072,-1.072,-1.1176,-1.1544,-1.1594,-1.1607,-1.1753,-1.219,-1.2143,-1.2066,-1.2023,-1.2005,-1.2005,-1.2005,-1.2005,-1.206,-1.2223,-1.1951,-1.1896,-1.2005,-1.1728,-1.1564,-1.1564,-1.1459,-1.1459,-1.1568,-1.1295,-1.124,-1.135,-1.124,-1.1185,-0.4779,-0.5086,-0.5463,-0.5681,-0.5917,-0.6294,-0.7046,-0.7892,0.0,-0.8946,-0.9723,-1.0414,-1.0528,-1.0987,-1.1379,0.0,-1.2021,-1.2383,-1.2601,-1.2492,-1.248,0.0,0.0,0.0,0.0,0.0,0.0,0.0,0.0,0.0,-1.3748,-1.3218,-1.282,-1.282,-1.2491,-1.2277,-1.2044,-1.1936,-1.1513,-1.0791,-1.0627,-1.0304,-0.9822,-0.9822,-0.9822,-0.9822,-0.9822,0.0,0.0,-0.97,-0.9639,-0.9595,-0.9442,-0.9381,-0.9378,-0.9344,-0.9333,-0.9258,-0.9258,-0.9106,-0.8984,-0.8984,-0.9437,-0.9928,-0.9654,-0.9519,-0.9545,-0.9545,-0.9545,-0.9545,-0.9545,-0.9545,-0.9566,-0.9647,-0.9671,-0.9671,-0.9671,-0.9608,-0.953,-0.953,-0.9836,-1.0085,-1.0085,-1.0425,-1.0853,-1.1056,-1.1166,-1.1467,-1.2236,-1.2316,-1.2366,-1.2551,-1.2535,-1.2434,-1.2391,-1.2387,-1.2387,-1.2387,-1.2223,-1.2169,-1.2327,-1.2114,-1.206,-1.2219,-1.2001,-1.1946,-1.2005,-1.1732,-1.1568,-1.1514,-1.1568,-1.1459,-0.2378,-0.3099,-0.3902,-0.3956,-0.4743,-0.5471,-0.5433,0.0,-0.7227,-0.7157,-0.8318,-0.9469,-0.9969,-1.0373,-1.0725,-1.0759,-1.1014,-1.1073,-1.0814,-1.0837,-1.0923,0.0,0.0,0.0,0.0,0.0,0.0,0.0,0.0,0.0,0.0,-1.1644,-1.138,-1.138,-1.1049,-1.0844,-1.0688,-1.0543,-1.0328,-1.0108,-0.9954,-0.9883,-0.9822,-0.9822,-0.9822,-0.9822,0.0,0.0,0.0,-0.9805,-0.9727,-0.9595,-0.9442,-0.9381,-0.9364,-0.9282,-0.9309,-0.9361,-0.9361,-0.9316,-0.919,-0.919,-0.9006,-0.8838,-0.8784,-0.8742,-0.8628,-0.8628,-0.8628,-0.8628,-0.8628,-0.8628,-0.8625,-0.8611,-0.866,-0.866,-0.866,-0.8618,-0.8628,-0.8628,-0.9165,-0.9643,-0.9643,-1.0335,-1.1116,-1.1694,-1.1894,-1.2241,-1.2893,-1.3008,-1.2993,-1.3013,-1.2847,-1.2658,-1.2401,-1.2387,-1.2387,-1.2387,-1.2387,-1.2273,-1.206,-1.2005,-1.1896,-1.1678,-1.1623,-1.1787,-1.2005,-1.1732,-1.1459,-1.1126,-1.1459,-1.1021,-0.2022,-0.2336,-0.2684,-0.2598,-0.2962,-0.3478,-0.4104,-0.4618,-0.5355,-0.6759,-0.749,-0.8258,-0.9303,-0.973,-0.9929,-1.0025,-1.0179,-1.0232,-1.0195,-1.0358,-1.0487,0.0,0.0,0.0,0.0,0.0,0.0,0.0,0.0,0.0,0.0,-1.0986,-1.092,-1.092,-1.0787,-1.069,-1.0629,-1.0395,-1.0249,-1.0185,-0.9941,-0.9822,-0.9822,-0.9822,-0.9822,-0.9822,0.0,0.0,0.0,-0.9822,-0.9788,-0.973,-0.9669,-0.9595,-0.951,-0.9449,-0.9408,-0.9381,-0.9381,-0.934,-0.9333,-0.9241,-0.9129,-0.896,-0.8872,-0.8804,-0.8757,-0.8757,-0.8757,-0.8757,-0.8757,-0.8689,-0.8618,-0.8618,-0.8515,-0.8355,-0.8355,-0.8259,-0.8212,-0.8212,-0.858,-0.8948,-0.8948,-0.9382,-0.9835,-1.0213,-1.0368,-1.0744,-1.1491,-1.1656,-1.1799,-1.2041,-1.2611,-1.2913,-1.2824,-1.2814,-1.2814,-1.2814,-1.2646,-1.2534,-1.2651,-1.2478,-1.2197,-1.1911,-1.1911,-1.1742,-1.146,-1.1347,-1.1181,-1.0966,-1.0962,-1.0623,-0.1947,-0.1969,-0.1971,-0.195,-0.1915,-0.2117,-0.2917,-0.3378,-0.4062,-0.5723,-0.6433,-0.7106,-0.8456,-0.8878,-0.9127,-0.9593,-0.9754,-0.989,-1.0215,-1.0313,-1.0459,0.0,0.0,0.0,0.0,0.0,0.0,0.0,0.0,0.0,0.0,-1.0721,-1.0721,-1.0721,-1.0721,-1.0721,-1.0721,-1.0429,-1.028,-1.0276,-0.9968,-0.9822,-0.9822,-0.9822,-0.9822,-0.9822,0.0,0.0,0.0,-0.9822,-0.9822,-0.9819,-0.9774,-0.9724,-0.9659,-0.9574,-0.953,-0.9507,-0.9462,-0.9449,-0.9432,-0.9323,-0.9313,-0.9144,-0.8646,-0.867,-0.8885,-0.8885,-0.8885,-0.8885,-0.8885,-0.8804,-0.8777,-0.8777,-0.8618,-0.841,-0.8066,-0.7867,-0.7662,-0.7306,-0.7424,-0.759,-0.759,-0.7796,-0.8079,-0.8399,-0.8586,-0.8943,-0.9698,-0.9858,-1.0002,-1.0312,-1.1079,-1.1782,-1.244,-1.2488,-1.2488,-1.2488,-1.2316,-1.2259,-1.2488,-1.2259,-1.2003,-1.1775,-1.1775,-1.1517,-1.1005,-1.1005,-1.0831,-1.0548,-1.0484,-1.0139,-0.1855,-0.1954,-0.1977,-0.1976,-0.193,-0.1894,-0.1924,-0.2763,-0.3629,-0.3688,-0.4815,-0.6124,-0.7383,-0.7777,-0.8343,-0.9572,-0.9819,-1.005,-1.0675,-1.0591,0.0,0.0,0.0,0.0,0.0,0.0,0.0,0.0,0.0,0.0,0.0,-1.0721,-1.0721,-1.0721,-1.0721,-1.0721,-1.0721,-1.0429,-1.028,-1.0276,-0.9968,-0.9822,-0.9822,-0.9822,-0.9822,0.0,0.0,0.0,0.0,-0.9822,-0.9822,-0.9805,-0.9666,-0.9696,-0.9785,-0.9493,-0.9568,-0.9795,-0.9656,-0.9608,-0.9605,-0.9605,-0.9503,-0.9142,-0.7793,-0.8139,-0.8885,-0.8885,-0.8885,-0.8885,-0.8885,-0.8881,-0.8881,-0.8881,-0.8881,-0.8582,-0.7463,-0.7204,-0.6896,-0.5729,-0.5512,-0.5512,-0.5512,-0.5647,-0.5943,-0.6533,-0.6798,-0.7165,-0.7765,-0.7826,-0.7826,-0.7826,-0.7823,-0.8755,-1.0956,-1.1105,-1.1105,-1.1105,-1.1105,-1.1105,-1.1105,-1.1105,-1.1024,-1.0916,-1.0912,-1.0823,-1.0696,-1.0696,-1.0421,-0.982,-1.0091,-0.9588,-0.1883,-0.1907,-0.1915,-0.1915,-0.1884,-0.1863,-0.1893,-0.216,-0.2597,-0.3515,-0.4012,-0.4749,-0.6056,-0.6328,-0.6905,-0.8405,-0.8616,-0.9085,-1.0266,0.0,0.0,0.0,0.0,0.0,0.0,0.0,0.0,0.0,0.0,0.0,0.0,-0.7769,-0.864,-1.0654,-1.0721,-1.067,-1.0565,-1.0375,-1.0226,-1.012,-0.9917,-0.9822,-0.9822,-0.9822,0.0,0.0,0.0,0.0,0.0,-0.8471,-0.7978,-0.7118,-0.7084,-0.7049,-0.7007,-0.6881,-0.6899,-0.7022,-0.6943,-0.7001,-0.705,-0.6979,-0.6933,-0.6758,-0.626,-0.6927,-0.768,-0.6817,-0.6584,-0.6584,-0.6584,-0.6584,-0.6584,-0.6584,-0.6584,-0.6479,-0.6105,-0.6054,-0.5946,-0.5568,-0.5516,-0.5516,-0.5516,-0.554,-0.5617,-0.5789,-0.5988,-0.6168,-0.6346,-0.646,-0.6501,-0.6501,-0.6501,-0.7142,-0.8689,-0.886,-0.886,-0.886,-0.886,-0.886,-0.886,-0.886,-0.8605,-0.8153,-0.8153,-0.7895,-0.7444,-0.7444,-0.7169,-0.6628,-0.6674,-0.666,-0.1916,-0.1877,-0.1889,-0.19,-0.188,-0.1868,-0.1911,-0.1896,-0.2062,-0.2887,-0.308,-0.3458,-0.48,-0.5036,-0.5522,-0.7086,-0.7407,-0.7868,0.0,0.0,0.0,0.0,0.0,0.0,0.0,0.0,0.0,0.0,0.0,0.0,0.0,0.0,-0.7234,-0.9042,-0.9108,-0.9048,-0.8923,-0.8799,-0.8669,-0.8539,-0.841,-0.8346,-0.8346,-0.8346,0.0,0.0,0.0,0.0,0.0,-0.7121,-0.663,-0.5896,-0.5896,-0.5863,-0.5754,-0.5722,-0.573,-0.576,-0.5724,-0.5808,-0.5898,-0.5784,-0.5459,-0.5063,-0.4938,-0.5743,-0.6509,-0.575,-0.5516,-0.5516,-0.5516,-0.5516,-0.5516,-0.5516,-0.5516,-0.5348,-0.4909,-0.4798,-0.469,-0.4242,-0.4187,-0.4187,-0.4187,-0.4187,-0.4187,-0.4187,-0.4222,-0.431,-0.431,-0.4406,-0.443,-0.443,-0.443,-0.4734,-0.5521,-0.6494,-0.7104,-0.7104,-0.7104,-0.7104,-0.7104,-0.7104,-0.6906,-0.6449,-0.6449,-0.6189,-0.5736,-0.5736,-0.553,-0.5123,-0.5015,-0.514,0.0,-0.1922,-0.1951,-0.1981,-0.1907,-0.1901,-0.2021,-0.2014,0.0,-0.2007,-0.202,-0.241,-0.3665,-0.3864,-0.4313,-0.567,-0.6184,0.0,0.0,0.0,0.0,0.0,0.0,0.0,0.0,0.0,0.0,0.0,0.0,0.0,0.0,0.0,-0.6099,-0.6099,-0.6099,-0.6191,-0.6364,-0.6277,-0.6184,-0.6085,-0.5937,-0.5896,-0.5896,-0.5896,0.0,0.0,0.0,0.0,0.0,-0.5774,-0.5712,-0.5653,-0.5653,-0.5653,-0.5582,-0.5507,-0.5526,-0.5582,-0.5452,-0.5529,-0.5594,-0.56,-0.485,-0.3835,-0.3777,-0.4465,-0.524,-0.524,-0.524,-0.524,-0.524,-0.524,-0.524,-0.524,-0.524,-0.4968,-0.3846,-0.3559,-0.3271,-0.2217,-0.1977,-0.1977,-0.1977,-0.1977,-0.1977,-0.1977,-0.1977,-0.1977,-0.1977,-0.1977,-0.1977,-0.1977,-0.1977,-0.1977,-0.1977,-0.4246,-0.5653,-0.5653,-0.5653,-0.5653,-0.5653,-0.5653,-0.5555,-0.5422,-0.542,-0.5379,-0.524,-0.524,-0.5066,-0.4776,-0.4776,-0.4714,-0.2692,0.0,-0.2359,-0.2603,-0.2303,-0.2014,0.0,-0.2501,-0.2344,-0.2388,-0.2419,-0.2449,-0.2549,-0.2533,-0.3115,-0.4833,0.0,0.0,0.0,0.0,0.0,0.0,0.0,0.0,0.0,0.0,0.0,0.0,0.0,0.0,0.0,0.0,-0.316,-0.316,-0.316,-0.4182,-0.6204,-0.6244,-0.6088,-0.5929,-0.5906,-0.5896,-0.5896,-0.5896,0.0,0.0,0.0,0.0,-0.4366,-0.4366,-0.3816,-0.2899,-0.2899,-0.2899,-0.2898,-0.2888,-0.289,-0.2902,-0.2861,-0.2882,-0.2904,-0.3001,-0.2821,-0.2558,-0.2456,-0.26,-0.2807,-0.2807,-0.2807,-0.2807,-0.2807,-0.2807,-0.2807,-0.2807,-0.2807,-0.275,-0.2454,-0.2395,-0.2336,-0.2036,-0.1977,-0.1977,-0.1977,-0.1977,-0.1977,-0.1977,-0.1977,-0.1977,-0.1977,-0.1977,-0.1977,-0.1977,-0.1977,-0.1977,-0.1977,-0.2591,-0.2899,-0.2899,-0.2899,-0.2899,-0.2899,-0.2899,-0.2894,-0.2884,-0.2884,-0.2879,-0.2807,-0.2807,-0.2808,-0.2686,-0.2686,-0.3031,-0.337,-0.3069,-0.2773,-0.2975,-0.2752,-0.2593,-0.2946,-0.2895,-0.2783,-0.2825,-0.2852,-0.2809,-0.2568,-0.2582,-0.2924,0.0,-0.4079,0.0,0.0,0.0,0.0,0.0,0.0,0.0,0.0,0.0,0.0,0.0,0.0,0.0,0.0,0.0,-0.2222,-0.2222,-0.2141,-0.2834,-0.4313,-0.4311,-0.4261,-0.4102,-0.4137,-0.4137,-0.4101,-0.4136,0.0,0.0,0.0,0.0,-0.302,-0.302,-0.2652,-0.1977,-0.1977,-0.1977,-0.1977,-0.1977,-0.1977,-0.1979,-0.1994,-0.2017,-0.2042,-0.2059,-0.2074,-0.2079,-0.2048,-0.2029,-0.2011,-0.1984,-0.1977,-0.1979,-0.1992,-0.1996,-0.1999,-0.2014,-0.2006,-0.1996,-0.1996,-0.1986,-0.1977,-0.1977,-0.1977,-0.1977,-0.1977,-0.1977,-0.1977,-0.1977,-0.1977,-0.1977,-0.1977,-0.1977,-0.1977,-0.1977,-0.1977,-0.1977,-0.1977,-0.1977,-0.1977,-0.1977,-0.1977,-0.1977,-0.1977,-0.1977,-0.1977,-0.1977,-0.1977,-0.1977,-0.1977,-0.1977,-0.1977,-0.1977,-0.1977,-0.2274,-0.3899,-0.361,-0.3258,-0.3276,-0.3196,-0.3245,-0.3344,-0.326,-0.3183,-0.3288,-0.3303,-0.3245,-0.3193,-0.3239,0.0,0.0,0.0,0.0,0.0,0.0,0.0,0.0,0.0,0.0,0.0,0.0,0.0,0.0,0.0,0.0,0.0,0.0,0.0,-0.2356,-0.2258,-0.2226,-0.2258,-0.2124,-0.2044,-0.2018,-0.1994,-0.1995,-0.2018,-0.1994,0.0,0.0,0.0,0.0,-0.1977,-0.1977,-0.1977,-0.1977,-0.1977,-0.1977,-0.1977,-0.1977,-0.1977,-0.1977,-0.1977,-0.2075,-0.2186,-0.2186,-0.2207,-0.2228,-0.226,-0.225,-0.2237,-0.2178,-0.2107,-0.1995,-0.2019,-0.2025,-0.2032,-0.2058,-0.2044,-0.2025,-0.2025,-0.2007,-0.1988,-0.1984,-0.1983,-0.1981,-0.1977,-0.1977,-0.1977,-0.1977,-0.198,-0.1983,-0.1983,-0.1983,-0.1983,-0.1983,-0.1979,-0.1977,-0.1977,-0.1977,-0.1977,-0.1977,-0.1977,-0.1977,-0.1977,-0.1977,-0.1977,-0.1977,-0.1977,-0.1977,-0.1977,-0.1977,-0.1977,-0.1977,-0.1977,-0.1977,-0.3946,-0.407,-0.4085,-0.388,-0.3543,-0.3343,-0.3826,-0.3781,-0.3613,-0.3621,-0.3658,-0.3648,-0.3389,-0.3253,-0.3366,0.0,0.0,0.0,0.0,0.0,0.0,0.0,0.0,0.0,0.0,0.0,0.0,0.0,0.0,0.0,0.0,0.0,0.0,-0.3027,-0.2988,-0.2947,-0.2968,-0.2357,-0.2023,-0.2018,-0.2014,-0.2014,-0.2018,-0.2014,-0.1999,0.0,0.0,-0.1977,-0.1977,-0.1977,-0.1977,-0.1977,-0.1977,-0.1977,-0.1977,-0.1977,-0.1977,-0.1977,-0.1977,-0.2185,-0.2469,-0.2469,-0.2686,-0.2906,-0.2863,-0.2849,-0.2839,-0.2853,-0.2451,-0.2115,-0.2056,-0.2057,-0.2058,-0.2127,-0.2061,-0.2057,-0.2057,-0.2053,-0.2043,-0.2017,-0.2012,-0.2005,-0.1981,-0.1977,-0.1977,-0.1977,-0.1996,-0.2012,-0.2012,-0.2012,-0.2012,-0.2012,-0.1991,-0.1977,-0.1977,-0.1977,-0.1977,-0.1977,-0.1977,-0.1977,-0.1977,-0.1977,-0.1977,-0.1977,-0.1977,-0.1977,-0.1977,-0.1977,-0.1977,-0.1977,-0.1977,-0.1977,-0.3911,-0.412,-0.4239,-0.4154,-0.4006,-0.406,-0.4307,-0.4204,-0.4112,-0.4112,-0.404,-0.4053,-0.3901,0.0,-0.3945,-0.4185,0.0,0.0,0.0,0.0,0.0,0.0,0.0,0.0,0.0,0.0,0.0,0.0,0.0,0.0,0.0,0.0,0.0,0.0,-0.3063,-0.3018,-0.306,-0.2701,-0.2566,-0.2523,-0.2334,-0.2408,-0.2554,-0.2152,-0.2137,-0.2311,0.0,-0.2099,-0.2284,-0.2284,-0.2407,-0.2531,-0.2531,-0.2531,-0.2531,-0.2531,-0.2531,-0.2531,-0.2531,-0.2618,-0.2777,-0.2777,-0.2932,-0.3093,-0.3072,-0.3066,-0.3061,-0.3041,-0.2729,-0.2359,-0.255,-0.2322,-0.2154,-0.2349,-0.2219,-0.2089,-0.2089,-0.2076,-0.206,-0.2046,-0.2043,-0.2039,-0.2026,-0.2024,-0.2024,-0.2024,-0.2035,-0.2043,-0.2043,-0.2043,-0.2043,-0.2043,-0.2017,-0.2006,-0.2022,-0.2009,-0.1992,-0.1977,-0.1977,-0.1977,-0.1977,-0.1977,-0.1977,-0.1977,-0.1977,-0.1977,-0.1977,-0.1977,-0.1977,-0.1977,-0.1977,-0.1977,-0.3872,-0.4017,-0.4219,-0.4234,-0.4387,-0.4536,-0.4549,-0.4473,-0.4398,-0.4398,-0.4361,-0.4328,0.0,-0.4377,0.0,0.0,0.0,0.0,0.0,0.0,0.0,0.0,0.0,0.0,0.0,0.0,0.0,0.0,0.0,0.0,0.0,0.0,0.0,0.0,-0.3262,-0.3218,-0.3218,-0.3232,-0.3177,-0.3045,-0.2791,-0.2813,-0.3112,-0.249,-0.2405,-0.2711,-0.2361,-0.2407,-0.259,-0.259,-0.2775,-0.3023,-0.3023,-0.3023,-0.3023,-0.3023,-0.3023,-0.3023,-0.3023,-0.3047,-0.3139,-0.3139,-0.3164,-0.3257,-0.3257,-0.3257,-0.3257,-0.3257,-0.3048,-0.2778,-0.2979,-0.2709,-0.2427,-0.2624,-0.2493,-0.2361,-0.2361,-0.234,-0.232,-0.2312,-0.231,-0.2307,-0.23,-0.2298,-0.2298,-0.2298,-0.2305,-0.231,-0.231,-0.231,-0.231,-0.231,-0.228,-0.227,-0.2296,-0.2274,-0.2248,-0.2224,-0.2169,-0.2114,-0.1996,-0.2115,-0.211,-0.211,-0.211,-0.2169,-0.2223,-0.2223,-0.2223,-0.2223,-0.2161,-0.2099,-0.3872,-0.4017,-0.423,-0.4286,-0.4357,-0.4425,-0.4477,-0.4442,-0.4398,-0.4398,-0.4395,-0.4392,0.0,-0.4439,0.0,0.0,0.0,0.0,0.0,0.0,0.0,0.0,0.0,0.0,0.0,0.0,0.0,0.0,0.0,0.0,0.0,0.0,0.0,0.0,0.0,-0.391,-0.391,-0.3854,-0.357,-0.3092,-0.3092,-0.3117,-0.316,-0.3048,-0.3006,-0.309,-0.2981,-0.2961,-0.2961,-0.2961,-0.2961,-0.3023,-0.3023,-0.3023,-0.3023,-0.3023,-0.3023,-0.3023,-0.3023,-0.321,-0.3461,-0.3461,-0.365,-0.384,-0.384,-0.384,-0.384,-0.384,-0.3626,-0.3356,-0.3146,-0.3033,-0.3038,-0.3038,-0.3038,-0.3037,-0.3037,-0.3035,-0.3021,-0.2915,-0.2908,-0.2958,-0.2917,-0.2909,-0.2909,-0.2909,-0.2945,-0.2908,-0.2908,-0.2908,-0.2908,-0.2908,-0.2931,-0.2906,-0.2909,-0.2906,-0.2903,-0.29,-0.2625,-0.2345,-0.2121,-0.2348,-0.2456,-0.2456,-0.2456,-0.2628,-0.29,-0.29,-0.29,-0.29,-0.259,-0.2467,-0.3877,-0.4052,-0.4222,-0.4245,-0.4324,-0.4422,-0.4518,-0.4493,-0.4451,-0.4451,-0.4422,-0.4387,0.0,0.0,0.0,0.0,0.0,0.0,0.0,0.0,0.0,0.0,0.0,0.0,0.0,0.0,0.0,0.0,0.0,0.0,0.0,0.0,0.0,0.0,0.0,-0.392,-0.392,-0.3899,-0.3804,-0.369,-0.3467,-0.3573,-0.3821,-0.3312,-0.3231,-0.3431,-0.3161,-0.3207,-0.3359,-0.3328,-0.3441,-0.3623,-0.3592,-0.358,-0.358,-0.358,-0.358,-0.358,-0.358,-0.3642,-0.3765,-0.3765,-0.3826,-0.3889,-0.3889,-0.3889,-0.3889,-0.3889,-0.3844,-0.374,-0.3637,-0.3373,-0.3154,-0.3317,-0.3205,-0.3097,-0.3097,-0.3097,-0.3092,-0.3075,-0.3072,-0.3066,-0.3048,-0.3046,-0.3046,-0.3046,-0.306,-0.3072,-0.3072,-0.3072,-0.3072,-0.3072,-0.3056,-0.3035,-0.3005,-0.303,-0.3046,-0.3046,-0.2883,-0.2745,-0.2635,-0.2747,-0.2799,-0.2799,-0.2799,-0.2854,-0.3023,-0.3023,-0.3038,-0.3066,-0.2941,-0.2893,-0.375,-0.3732,-0.3627,-0.4108,-0.4308,-0.4401,-0.4518,-0.4499,-0.4455,-0.4455,-0.441,-0.4357,-0.4315,0.0,0.0,0.0,0.0,0.0,0.0,0.0,0.0,0.0,0.0,0.0,0.0,0.0,0.0,0.0,0.0,0.0,0.0,0.0,0.0,0.0,0.0,0.0,-0.3889,-0.3889,-0.3916,-0.3973,-0.3821,-0.3879,-0.4214,-0.3635,-0.3575,-0.3816,-0.3532,-0.3577,-0.3736,-0.3701,-0.38,-0.3966,-0.3911,-0.3889,-0.3889,-0.3889,-0.3889,-0.3889,-0.3889,-0.3889,-0.3889,-0.3889,-0.3889,-0.3889,-0.3889,-0.3591,-0.3292,-0.3292,-0.2929,-0.2686,-0.3171,-0.3333,-0.3428,-0.3581,-0.3475,-0.3373,-0.3373,-0.3373,-0.3373,-0.3373,-0.3373,-0.3373,-0.3373,-0.3373,-0.3373,-0.3373,-0.3373,-0.3373,-0.3373,-0.3373,-0.3373,-0.3373,-0.3373,-0.336,-0.3262,-0.3353,-0.3373,-0.3373,-0.3322,-0.3238,-0.3066,-0.3128,-0.3191,-0.3191,-0.3206,-0.3269,-0.3316,-0.3316,-0.3397,-0.3431,-0.3304,-0.3258,-0.3502,-0.2995,-0.2444,-0.3887,-0.4239,-0.4272,-0.4455,-0.4439,-0.4398,-0.4398,-0.435,-0.4308,-0.4308,0.0,0.0,0.0,0.0,0.0,0.0,0.0,0.0,0.0,0.0,0.0,0.0,0.0,0.0,0.0,0.0,0.0,0.0,0.0,0.0,0.0,0.0,0.0,-0.3889,-0.3889,-0.3916,-0.3971,-0.3971,-0.4033,-0.4214,-0.4153,-0.4159,-0.4214,-0.4153,-0.4127,-0.4128,-0.4127,-0.409,-0.3966,-0.3911,-0.3889,-0.3889,-0.3889,-0.3889,-0.3889,-0.3889,-0.3889,-0.3889,-0.3889,-0.3889,-0.3889,-0.3889,-0.2929,-0.1889,-0.1889,-0.0891,-0.0128,-0.1517,-0.2868,-0.3891,-0.3889,-0.3889,-0.3889,-0.3889,-0.3889,-0.3889,-0.3889,-0.3889,-0.3891,-0.3889,-0.3889,-0.3889,-0.3889,-0.3889,-0.3889,-0.3889,-0.3889,-0.3889,-0.3889,-0.3889,-0.3889,-0.3889,-0.3889,-0.3889,-0.3889,-0.3942,-0.3746,-0.316,-0.3416,-0.3608,-0.3608,-0.3661,-0.3858,-0.4125,-0.4125,-0.4125,-0.4062,-0.3738,-0.3609,-0.3771,-0.3034,-0.2169,-0.2614,-0.1949,-0.1244,-0.1242,-0.2892,-0.4398,-0.4398,-0.435,-0.4308,-0.4308,0.0,0.0,0.0,0.0,0.0,0.0,0.0,0.0,0.0,0.0,0.0,0.0,0.0,0.0,0.0,0.0,0.0,0.0,0.0,0.0,0.0,0.0,0.0,-0.3889,-0.3023,-0.2596,-0.2607,-0.1613,-0.2205,-0.4153,-0.4134,-0.4183,-0.4278,-0.4215,-0.4239,-0.4308,-0.4179,-0.409,-0.3966,-0.3911,-0.3332,-0.259,-0.259,-0.1973,-0.1171,-0.1171,-0.1171,-0.1171,-0.1171,-0.1171,-0.1173,-0.1123,-0.0816,-0.0505,-0.0446,-0.0128,0.0129,-0.032,-0.0701,-0.1518,-0.341,-0.3889,-0.3889,-0.3889,-0.3171,-0.2747,-0.3711,-0.232,-0.1642,-0.3592,-0.311,-0.2808,-0.3771,-0.3889,-0.353,-0.2625,-0.3291,-0.3532,-0.2564,-0.3352,-0.3889,-0.3889,-0.3889,-0.3905,-0.3944,-0.3963,-0.3916,-0.3745,-0.3846,-0.3932,-0.3932,-0.3948,-0.4014,-0.4125,-0.4125,-0.4149,-0.4189,-0.4057,-0.4014,-0.2141,-0.1363,-0.0535,-0.1066,-0.0544,0.0069,0.0069,-0.1304,0.0,0.0,-0.2638,-0.2622,-0.2622,0.0,0.0,0.0,0.0,0.0,0.0,0.0,0.0,0.0,0.0,0.0,0.0,0.0,0.0,0.0,0.0,0.0,0.0,0.0,0.0,0.0,0.0,0.0,-0.2343,-0.1603,-0.1233,-0.1171,-0.037,-0.0874,-0.2426,-0.2456,-0.2508,-0.2575,-0.25,-0.2512,-0.2603,-0.2456,-0.2404,-0.2368,-0.2272,-0.1812,-0.1181,-0.1181,-0.0681,0.0,0.0,0.0,0.0,0.0,0.0,0.0,0.0062,0.0439,0.0884,0.0961,0.1357,0.1689,0.1104,0.0974,0.0452,-0.1767,-0.2259,-0.2259,-0.2259,-0.1642,-0.133,-0.2137,-0.0954,-0.032,-0.2014,-0.158,-0.133,-0.2136,-0.2259,-0.1951,-0.1142,-0.1766,-0.1951,-0.1142,-0.1766,-0.2259,-0.2259,-0.2259,-0.2267,-0.235,-0.2364,-0.2371,-0.2371,-0.3493,-0.3901,-0.3314,-0.3858,-0.4198,-0.4198,-0.3606,-0.3358,-0.3387,-0.3387,-0.3402,0.0532,0.122,0.1927,0.0557,0.0346,0.0481,0.0481,0.0481,0.041,0.0067,0.0,0.0,0.0,0.0,0.0,0.0,0.0,0.0,0.0,0.0,0.0,0.0,0.0,0.0,0.0,0.0,0.0,0.0,0.0,0.0,0.0,0.0,0.0,0.0,0.0,0.0,0.0,0.0123,0.0185,0.0,0.0308,0.0372,0.0441,0.0194,0.0067,0.0068,0.0139,0.0139,0.0068,0.0135,0.0133,0.0131,0.0194,0.0255,0.0315,0.0315,0.0312,0.037,0.037,0.037,0.037,0.037,0.037,0.037,0.037,0.1246,0.2275,0.2377,0.3259,0.3954,0.2704,0.2374,0.2103,0.0843,0.0387,0.0193,0.0193,0.0322,0.0322,0.0193,0.0387,0.0517,0.0258,0.0322,0.0322,0.0193,0.0193,0.0258,0.0387,0.0258,0.0258,0.0387,0.0258,0.0193,0.0193,0.0193,0.0193,0.0193,0.013,0.0131,0.0263,-0.2372,-0.3233,-0.1912,-0.3208,-0.3902,-0.3902,-0.2622,-0.2017,-0.2017,-0.2017,-0.2017,0.0259,0.1269,0.2267,0.1997,0.2703,0.3556,0.3556,0.3528,0.2804,0.0472,0.0,0.0,0.0,0.0,0.0,0.0,0.0,0.0,0.0,0.0,0.0,0.0,0.0,0.0,0.0,0.0,0.0,0.0,0.0,0.0,0.0,0.0,0.0,0.0,0.0,0.0,0.0,0.1048,0.1541,0.0,0.259,0.3108,0.309,0.0962,0.0,-0.0067,0.0,0.0,-0.0066,0.0066,0.0132,0.0131,0.0194,0.0835,0.1728,0.1707,0.2263,0.3131,0.3096,0.3085,0.3085,0.3085,0.3085,0.3091,0.3126,0.3331,0.3612,0.3709,0.4009,0.4162,0.3941,0.3818,0.3748,0.3469,0.1767,0.0193,0.0193,0.1039,0.1436,0.0387,0.1968,0.2712,0.0582,0.1105,0.1435,0.0387,0.0193,0.0582,0.1635,0.0843,0.0582,0.1636,0.0843,0.0193,0.0193,0.0127,0.0127,0.0064,0.0,0.052,0.1644,0.0,-0.0736,-0.0468,-0.0738,-0.0941,-0.0941,-0.0605,-0.047,-0.047,-0.047,-0.047,0.2074,0.2726,0.3337,0.336,0.3953,0.4476,0.4448,0.4397,0.3937,0.2357,0.0,0.0,0.0,0.0,0.0,0.0,0.0,0.0,0.0,0.0,0.0,0.0,0.0,0.0,0.0,0.0,0.0,0.0,0.0,0.0,0.0,0.0,0.0,0.0,0.1849,0.1849,0.1849,0.259,0.2909,0.2991,0.3616,0.3959,0.4017,0.265,0.2033,0.1997,0.204,0.2035,0.1994,0.2061,0.2127,0.2126,0.2176,0.2553,0.312,0.3074,0.3487,0.3963,0.3908,0.3889,0.3889,0.3889,0.3889,0.3895,0.3923,0.3932,0.3951,0.4104,0.4151,0.4187,0.4248,0.4286,0.4308,0.4308,0.3192,0.2169,0.2169,0.2712,0.2986,0.2304,0.3329,0.3817,0.2439,0.2713,0.2985,0.2238,0.2169,0.2439,0.3123,0.2577,0.244,0.3124,0.2576,0.2164,0.2149,0.2067,0.2059,0.1996,0.2009,0.2351,0.3093,0.2402,0.1747,0.1075,0.0336,0.0,0.0,0.0739,0.1075,0.1075,0.1075,0.1075,0.4076,0.4171,0.4257,0.4395,0.444,0.4455,0.4409,0.4352,0.4308,0.4308,0.0,0.0,0.0,0.0,0.0,0.0,0.0,0.0,0.0,0.0,0.0,0.0,0.0,0.0,0.0,0.0,0.0,0.0,0.0,0.0,0.0,0.0,0.3889,0.3889,0.3889,0.3889,0.3889,0.3889,0.3916,0.3971,0.3971,0.4003,0.4127,0.4166,0.4213,0.4262,0.4282,0.4279,0.4262,0.4283,0.4292,0.4293,0.4304,0.4277,0.4224,0.4153,0.4093,0.3978,0.3912,0.3889,0.3889,0.3889,0.3889,0.3889,0.3889,0.3889,0.39,0.3956,0.4071,0.4124,0.4185,0.4245,0.4292,0.4292,0.43,0.4308,0.4308,0.4308,0.4308,0.4308,0.4308,0.4308,0.4308,0.4308,0.4308,0.4308,0.4308,0.4308,0.4308,0.4308,0.4308,0.4308,0.4308,0.4288,0.4237,0.4222,0.4195,0.4145,0.4188,0.4217,0.4217,0.4275,0.3768,0.2555,0.1344,0.0739,0.0739,0.195,0.2555,0.2555,0.2555,0.2555,0.3657,0.3754,0.4062,0.4375,0.444,0.4407,0.0,0.0,0.4308,0.0,0.0,0.0,0.0,0.0,0.0,0.0,0.0,0.0,0.0,0.0,0.0,0.0,0.0,0.0,0.0,0.0,0.0,0.0,0.0,0.0,0.0,0.3889,0.3889,0.3889,0.3889,0.3889,0.3889,0.3889,0.3916,0.3971,0.3971,0.4003,0.4124,0.4079,0.4063,0.4076,0.4183,0.4169,0.4079,0.4185,0.4229,0.4234,0.4288,0.4303,0.4282,0.4168,0.412,0.4098,0.3926,0.3889,0.3889,0.3889,0.3889,0.3889,0.3889,0.3889,0.39,0.3956,0.3977,0.406,0.4123,0.4183,0.4229,0.4229,0.4268,0.4308,0.4308,0.4308,0.4308,0.4308,0.4308,0.4308,0.4308,0.4308,0.4308,0.4308,0.4308,0.4308,0.4308,0.4308,0.4308,0.4308,0.4308,0.4304,0.4296,0.4247,0.4213,0.4204,0.4213,0.4217,0.4217,0.4275,0.4239,0.4038,0.3835,0.3701,0.3701,0.3902,0.4038,0.4038,0.4038,0.4038,0.3707,0.393,0.4143,0.4362,0.4391,0.439,0.4356,0.4327,0.4308,0.0,0.0,0.0,0.0,0.0,0.0,0.0,0.0,0.0,0.0,0.0,0.0,0.0,0.0,0.0,0.0,0.0,0.0,0.0,0.0,0.0,0.3889,0.3889,0.3889,0.3889,0.3889,0.3889,0.3889,0.3889,0.3916,0.3973,0.407,0.4082,0.4075,0.4082,0.4067,0.3977,0.4128,0.4116,0.3978,0.413,0.4185,0.4215,0.4209,0.4247,0.4293,0.417,0.4125,0.4113,0.3965,0.3915,0.3889,0.3889,0.3889,0.3889,0.3889,0.3889,0.3893,0.3919,0.3947,0.3978,0.4067,0.412,0.4165,0.4165,0.4185,0.4215,0.4249,0.4283,0.4308,0.4308,0.4308,0.4308,0.4308,0.4308,0.4308,0.4308,0.4308,0.4308,0.4308,0.4308,0.4308,0.4308,0.4308,0.4293,0.4259,0.4232,0.4202,0.4168,0.4198,0.4217,0.4217,0.4275,0.4308,0.4308,0.4308,0.4308,0.4308,0.4342,0.4341,0.4308,0.4342,0.4341,0.3684,0.3877,0.391,0.3996,0.4127,0.4226,0.0,0.0,0.0,0.0,0.0,0.0,0.0,0.0,0.0,0.0,0.0,0.0,0.0,0.0,0.0,0.0,0.0,0.0,0.0,0.0,0.0,0.0,0.0,0.0,0.3889,0.3889,0.3889,0.3889,0.3889,0.3889,0.3889,0.3903,0.3931,0.3973,0.408,0.4087,0.4059,0.4089,0.4086,0.3997,0.4106,0.4091,0.3977,0.4117,0.4166,0.4191,0.4161,0.4204,0.427,0.4147,0.4102,0.4094,0.3971,0.3923,0.3889,0.3889,0.3889,0.3889,0.3889,0.3889,0.3889,0.3889,0.3919,0.3951,0.3951,0.3994,0.4102,0.4102,0.4115,0.4142,0.4203,0.4264,0.4308,0.4308,0.4308,0.4303,0.4288,0.4285,0.4279,0.4263,0.4274,0.4285,0.4285,0.4297,0.4308,0.4308,0.4308,0.4289,0.4244,0.424,0.4219,0.4174,0.4214,0.424,0.424,0.4283,0.4308,0.4308,0.4308,0.4308,0.4308,0.4368,0.4367,0.4309,0.4369,0.4365,0.3222,0.3302,0.3191,0.3267,0.3535,0.3839,0.0,0.0,0.0,0.0,0.0,0.0,0.0,0.0,0.0,0.0,0.0,0.0,0.0,0.0,0.0,0.0,0.0,0.0,0.0,0.0,0.0,0.0,0.0,0.0,0.3889,0.3889,0.3889,0.3889,0.3889,0.3889,0.3889,0.3942,0.3969,0.3971,0.3975,0.4068,0.4119,0.4064,0.4068,0.412,0.4124,0.4091,0.3981,0.4162,0.418,0.4136,0.4191,0.4215,0.4207,0.4085,0.3977,0.3969,0.3912,0.3892,0.3889,0.3889,0.3889,0.3889,0.3889,0.3889,0.3889,0.3889,0.3891,0.3893,0.3893,0.3935,0.3977,0.3977,0.4083,0.4142,0.4203,0.4264,0.4308,0.4308,0.4308,0.4289,0.4232,0.4221,0.4202,0.4143,0.4184,0.4221,0.4221,0.4271,0.4308,0.4308,0.4308,0.4307,0.4304,0.4303,0.4301,0.4298,0.4301,0.4303,0.4303,0.4307,0.4308,0.4308,0.4308,0.4308,0.4308,0.4368,0.4367,0.4309,0.4369,0.4365,0.2996,0.3339,0.3513,0.3489,0.3759,0.3938,0.3776,0.3743,0.0,0.0,0.0,0.0,0.0,0.0,0.0,0.0,0.0,0.0,0.0,0.0,0.0,0.0,0.0,0.0,0.0,0.0,0.0,0.0,0.0,0.0,0.3889,0.3889,0.3889,0.3889,0.3889,0.3889,0.3889,0.391,0.3919,0.3919,0.3919,0.393,0.3951,0.3966,0.3983,0.4072,0.415,0.415,0.41,0.4183,0.4204,0.4179,0.4123,0.4147,0.4202,0.4079,0.3971,0.3969,0.3948,0.3919,0.3889,0.3889,0.3889,0.3889,0.3889,0.3889,0.3889,0.3889,0.3889,0.3889,0.3889,0.3903,0.3919,0.3919,0.3962,0.4074,0.4094,0.4149,0.4191,0.4191,0.4191,0.4184,0.4162,0.4158,0.4151,0.413,0.4145,0.4172,0.4211,0.4236,0.4279,0.4357,0.4365,0.438,0.4417,0.442,0.442,0.442,0.442,0.442,0.442,0.442,0.442,0.442,0.4384,0.4346,0.4308,0.4368,0.4367,0.4309,0.4369,0.4365,0.2841,0.3167,0.3455,0.0,0.3496,0.3736,0.3761,0.0,0.0,0.0,0.0,0.0,0.0,0.0,0.0,0.0,0.0,0.0,0.0,0.0,0.0,0.0,0.0,0.0,0.0,0.0,0.0,0.0,0.0,0.0,0.3889,0.3889,0.3889,0.3889,0.3889,0.3889,0.3889,0.3889,0.3889,0.3889,0.3889,0.3889,0.3891,0.3927,0.3954,0.3977,0.4142,0.4164,0.4132,0.4214,0.4222,0.4179,0.4097,0.4102,0.4143,0.3979,0.3944,0.3944,0.3944,0.392,0.3889,0.3889,0.3889,0.3889,0.3889,0.3889,0.3889,0.3889,0.3889,0.3889,0.3889,0.3889,0.3889,0.3889,0.3918,0.3944,0.3944,0.4005,0.4125,0.4125,0.4125,0.4119,0.4098,0.4094,0.4089,0.4006,0.4101,0.414,0.4181,0.4221,0.4278,0.436,0.4368,0.4391,0.445,0.4454,0.4462,0.4481,0.4482,0.4482,0.4482,0.4482,0.4482,0.4482,0.4446,0.4407,0.4367,0.4388,0.4377,0.4339,0.4379,0.4365,0.0,0.0,0.0,0.0,0.0,0.0,0.3656,0.0,0.0,0.0,0.0,0.0,0.0,0.0,0.0,0.0,0.0,0.0,0.0,0.0,0.0,0.0,0.0,0.0,0.0,0.0,0.0,0.0,0.0,0.3889,0.3889,0.3889,0.3889,0.3889,0.3889,0.3889,0.3889,0.3889,0.3889,0.3889,0.3889,0.3889,0.3889,0.3889,0.3919,0.3973,0.4098,0.4125,0.4132,0.4255,0.4234,0.4125,0.4124,0.4086,0.3965,0.391,0.3889,0.3889,0.3889,0.3889,0.3889,0.3889,0.3889,0.3889,0.3889,0.3889,0.3889,0.3889,0.3889,0.3889,0.3889,0.3889,0.3889,0.3889,0.3889,0.3889,0.3889,0.3977,0.412,0.412,0.412,0.4102,0.3979,0.3969,0.3951,0.3897,0.3985,0.4121,0.4125,0.4229,0.4304,0.4309,0.4311,0.4335,0.4395,0.4401,0.4424,0.4478,0.4482,0.4482,0.4482,0.4482,0.4482,0.4482,0.4482,0.4484,0.4485,0.4428,0.4401,0.4401,0.4399,0.4365,0.2709,0.0,0.0,0.0,0.0,0.0,0.0,0.0,0.0,0.0,0.0,0.0,0.0,0.0,0.0,0.0,0.0,0.0,0.0,0.0,0.0,0.0,0.0,0.0,0.0,0.0,0.0,0.0,0.3789,0.3889,0.3889,0.3889,0.3889,0.3889,0.3889,0.3889,0.3889,0.3889,0.3889,0.3889,0.3889,0.3889,0.3889,0.3889,0.3897,0.3918,0.4082,0.4101,0.4068,0.4191,0.4195,0.4121,0.4078,0.3986,0.3965,0.391,0.3889,0.3889,0.3889,0.3889,0.3889,0.3889,0.3889,0.3889,0.3889,0.3889,0.3889,0.3889,0.3889,0.3889,0.3889,0.3889,0.3889,0.3889,0.3889,0.3889,0.3889,0.3914,0.3936,0.3936,0.3936,0.3932,0.3915,0.3912,0.3907,0.3891,0.3916,0.3967,0.4115,0.4155,0.4226,0.436,0.4373,0.4397,0.4454,0.4459,0.4466,0.4481,0.4482,0.4482,0.4482,0.4482,0.4482,0.4482,0.4482,0.4504,0.4548,0.4488,0.4459,0.4458,0.4417,0.4365,0.0,0.0,0.0,0.0,0.0,0.0,0.0,0.3573,0.0,0.0,0.0,0.0,0.0,0.0,0.0,0.0,0.0,0.0,0.0,0.0,0.0,0.0,0.0,0.0,0.0,0.0,0.0,0.0,0.3476,0.3638,0.374,0.3739,0.3791,0.3889,0.3889,0.3889,0.3889,0.3889,0.3889,0.3889,0.3889,0.3889,0.3889,0.3889,0.3889,0.3893,0.3985,0.3991,0.3944,0.4102,0.412,0.4085,0.3986,0.3958,0.3934,0.39,0.3889,0.3892,0.3793,0.3786,0.3893,0.3793,0.3786,0.3893,0.3793,0.3739,0.3739,0.3739,0.3784,0.3889,0.3889,0.3889,0.3889,0.3889,0.3889,0.3889,0.3889,0.3889,0.3889,0.3889,0.3889,0.3889,0.3889,0.3889,0.3889,0.3889,0.393,0.3986,0.4116,0.4169,0.4243,0.4349,0.4383,0.4412,0.4444,0.4469,0.4482,0.4482,0.4482,0.4412,0.4274,0.4274,0.4204,0.4063,0.4063,0.4079,0.4112,0.436,0.447,0.4447,0.4414,0.4365,0.3669,0.4326,0.0,0.0,0.0,0.0,0.4663,0.4318,0.0,0.0,0.0,0.0,0.0,0.0,0.0,0.0,0.0,0.0,0.0,0.0,0.0,0.0,0.0,0.0,0.0,0.0,0.3088,0.3044,0.31,0.3208,0.342,0.3475,0.3639,0.3838,0.3892,0.3889,0.3889,0.3889,0.3889,0.3889,0.3889,0.3889,0.3889,0.3889,0.3889,0.3892,0.3947,0.3943,0.3903,0.3959,0.3974,0.3963,0.3963,0.3936,0.3837,0.3837,0.3841,0.3792,0.3528,0.3639,0.3793,0.3598,0.3642,0.3796,0.3607,0.3553,0.3479,0.3473,0.3689,0.3836,0.3891,0.3889,0.3889,0.3889,0.3889,0.3889,0.3889,0.3889,0.3889,0.3889,0.3889,0.3889,0.3889,0.3889,0.3889,0.3889,0.3982,0.4117,0.4125,0.4226,0.4303,0.4316,0.4367,0.4401,0.4407,0.4454,0.448,0.4473,0.4473,0.4332,0.3909,0.3909,0.3699,0.335,0.3355,0.336,0.3435,0.4064,0.4387,0.4339,0.4339,0.4311,0.6527,0.698,0.7046,0.0,0.0,0.0,0.0,0.7841,0.0,0.0,0.0,0.0,0.0,0.0,0.0,0.0,0.0,0.0,0.0,0.0,0.0,0.0,0.0,0.0,0.0,0.0,0.3065,0.2695,0.2923,0.3094,0.3149,0.3368,0.3531,0.3583,0.3789,0.3889,0.3889,0.3889,0.3889,0.3889,0.3889,0.3889,0.3889,0.3889,0.3889,0.3892,0.3947,0.3966,0.396,0.4083,0.3989,0.3905,0.3905,0.3802,0.3583,0.3583,0.342,0.3265,0.3209,0.3207,0.3271,0.3576,0.3494,0.3344,0.3959,0.3665,0.3205,0.3421,0.3528,0.3635,0.384,0.3889,0.3889,0.3889,0.3889,0.3889,0.3889,0.3889,0.3889,0.3889,0.3889,0.3889,0.3889,0.3889,0.3889,0.3889,0.3946,0.4071,0.4119,0.4189,0.4271,0.4371,0.4391,0.4417,0.4462,0.4476,0.4463,0.4418,0.4414,0.4255,0.3869,0.3799,0.3662,0.3255,0.3291,0.3328,0.3435,0.3785,0.399,0.3982,0.3982,0.4183,0.0,0.0,0.8362,0.8193,0.0,0.0,0.0,0.0,0.8951,0.0,0.0,0.0,0.0,0.0,0.0,0.0,0.0,0.0,0.0,0.0,0.0,0.0,0.0,0.0,0.0,0.0,0.2637,0.2401,0.2582,0.2752,0.31,0.3204,0.3423,0.3686,0.3842,0.3889,0.3889,0.3889,0.3889,0.3889,0.3889,0.3889,0.3889,0.3889,0.3889,0.3891,0.3919,0.3946,0.3974,0.4067,0.3999,0.3978,0.4009,0.3973,0.3873,0.3901,0.3716,0.3394,0.3221,0.3134,0.3107,0.3372,0.3282,0.3178,0.3602,0.3316,0.2927,0.3204,0.3429,0.3586,0.3842,0.3889,0.3889,0.3889,0.3889,0.3889,0.3889,0.3889,0.3889,0.3889,0.3889,0.3889,0.3889,0.3889,0.3889,0.3889,0.3936,0.4067,0.4159,0.4224,0.4308,0.4428,0.4467,0.4485,0.4482,0.4511,0.4503,0.4444,0.4414,0.4178,0.3603,0.3511,0.3229,0.2692,0.2914,0.2935,0.2817,0.3161,0.3379,0.3609,0.3609,0.3663,0.0,0.0,0.0,0.0,0.0,1.0279,0.0,0.0,0.0,1.02,0.0,0.0,0.0,0.0,0.0,0.0,0.0,0.0,0.0,0.0,0.0,0.0,0.0,0.0,0.0,0.0,0.2249,0.2224,0.2289,0.2603,0.3009,0.3193,0.3407,0.3817,0.3918,0.39,0.3889,0.3889,0.3889,0.3889,0.3889,0.3889,0.3889,0.3889,0.3889,0.3889,0.39,0.3936,0.399,0.4064,0.4105,0.4164,0.4202,0.4158,0.4109,0.4168,0.3958,0.3459,0.323,0.3056,0.294,0.3083,0.3133,0.3159,0.3012,0.281,0.2716,0.293,0.3206,0.3475,0.3735,0.3836,0.3889,0.3889,0.3889,0.3889,0.3889,0.3889,0.3889,0.3889,0.3889,0.3889,0.3889,0.3889,0.3893,0.3842,0.3891,0.3968,0.4086,0.4075,0.4221,0.4486,0.4453,0.4387,0.4433,0.4393,0.4394,0.4416,0.4302,0.407,0.3448,0.3274,0.2981,0.2299,0.257,0.2566,0.2222,0.2492,0.278,0.3229,0.3229,0.3214,0.0,0.0,0.0,0.0,1.2061,0.0,0.0,0.0,1.3492,1.3399,0.0,0.0,0.0,0.0,0.0,0.0,0.0,0.0,0.0,0.0,0.0,0.0,0.0,0.0,0.0,0.0,0.0,0.2223,0.2759,0.3041,0.2866,0.3372,0.3723,0.3729,0.3889,0.3939,0.3889,0.3889,0.3889,0.3889,0.3889,0.3889,0.3889,0.3889,0.3889,0.3892,0.394,0.3995,0.4119,0.4174,0.4232,0.4282,0.4234,0.4049,0.3833,0.3955,0.3494,0.2875,0.2879,0.258,0.2351,0.273,0.3104,0.3252,0.2507,0.251,0.2791,0.2651,0.2864,0.3207,0.3477,0.3742,0.3889,0.3889,0.3889,0.3889,0.3889,0.3889,0.3889,0.3889,0.3889,0.3889,0.3889,0.3889,0.3845,0.3583,0.3632,0.3703,0.3812,0.3562,0.3619,0.4473,0.3914,0.3621,0.399,0.3746,0.3651,0.3926,0.399,0.3917,0.3847,0.3562,0.3193,0.2745,0.2744,0.2591,0.2222,0.2222,0.2441,0.2887,0.2887,0.3042,0.0,0.0,0.0,0.0,0.0,0.0,0.0,0.0,1.4118,0.0,0.0,0.0,0.0,0.0,0.0,0.0,0.0,0.0,0.0,0.0,0.0,0.0,0.0,0.0,0.0,0.0,0.0,0.0,0.0,0.301,0.3392,0.3216,0.3315,0.3689,0.3552,0.3554,0.3691,0.3689,0.3736,0.3889,0.3889,0.3889,0.3889,0.3889,0.3889,0.3891,0.3914,0.3975,0.4128,0.4153,0.42,0.4259,0.4305,0.4269,0.4166,0.4256,0.376,0.3095,0.312,0.2742,0.2224,0.2373,0.3016,0.3521,0.2506,0.2299,0.2503,0.2586,0.2691,0.2866,0.3209,0.3478,0.3635,0.3477,0.3525,0.3635,0.3478,0.3586,0.3689,0.3689,0.3788,0.3838,0.3684,0.3787,0.3786,0.3527,0.3553,0.355,0.3482,0.3295,0.3407,0.3873,0.3568,0.3422,0.3602,0.3517,0.3435,0.3575,0.3575,0.3715,0.3926,0.3575,0.3205,0.2821,0.282,0.2595,0.2222,0.2222,0.2296,0.2446,0.2446,0.2521,1.1415,0.0,0.0,0.0,0.0,0.0,0.0,0.0,0.0,0.0,0.0,0.0,0.0,0.0,0.0,0.0,0.0,0.0,0.0,0.0,0.0,0.0,0.0,0.0,0.0,0.0,0.0,0.0,0.0,0.0,0.4257,0.3833,0.3946,0.4793,0.4467,0.4405,0.4594,0.4559,0.4579,0.4776,0.4757,0.4747,0.4747,0.4747,0.4747,0.4749,0.4768,0.4835,0.4868,0.4888,0.4797,0.459,0.4689,0.4603,0.4367,0.4518,0.4095,0.3476,0.3428,0.2893,0.2222,0.2222,0.2779,0.3273,0.2431,0.2222,0.2217,0.246,0.2512,0.2631,0.2929,0.3146,0.3312,0.3154,0.3265,0.3312,0.3154,0.3263,0.3366,0.3366,0.3526,0.3637,0.3423,0.3638,0.3688,0.3313,0.3258,0.324,0.3098,0.2968,0.306,0.3355,0.3203,0.3125,0.3206,0.3127,0.3125,0.3207,0.3358,0.3505,0.3786,0.3505,0.328,0.2974,0.2825,0.2669,0.2371,0.2226,0.2222,0.2222,0.2222,0.2222,0.0,0.0,0.0,1.1224,0.0,0.0,0.0,0.0,1.4353,0.0,0.0,0.0,0.0,0.0,0.0,0.0,0.0,0.0,0.0,0.0,0.0,0.0,0.0,0.0,0.0,0.0,0.0,0.0,0.0,0.0,0.5474,0.5824,0.6521,0.7531,0.7495,0.7455,0.7481,0.7148,0.6985,0.6981,0.6877,0.6827,0.6827,0.6827,0.6827,0.6832,0.6874,0.692,0.6934,0.6971,0.6434,0.5538,0.5544,0.5012,0.4251,0.4486,0.4358,0.3922,0.352,0.2893,0.2222,0.2222,0.2223,0.2223,0.2223,0.2222,0.2222,0.2221,0.2399,0.2571,0.2636,0.2868,0.3096,0.3097,0.3096,0.3096,0.3097,0.3096,0.3095,0.3095,0.3094,0.3094,0.3095,0.3313,0.3313,0.2688,0.2633,0.2661,0.2807,0.2445,0.2517,0.3285,0.2671,0.2373,0.2818,0.2447,0.2374,0.2819,0.3202,0.3435,0.3435,0.3435,0.3364,0.3363,0.2976,0.2819,0.2749,0.2372,0.2222,0.2222,0.2222,0.2222,0.0,0.0,1.1893,1.1937,0.0,0.0,0.0,0.0,0.0,0.0,0.0,0.0,0.0,0.0,0.0,0.0,0.0,0.0,0.0,0.0,0.0,0.0,0.0,0.0,0.0,0.0,0.0,0.0,0.0,0.0,0.0,0.6673,0.684,0.7428,0.7122,0.7092,0.7261,0.7057,0.699,0.7111,0.7075,0.6957,0.6888,0.6888,0.6888,0.6891,0.6927,0.6981,0.6988,0.7023,0.6848,0.6537,0.6602,0.6427,0.6076,0.4877,0.4249,0.3967,0.429,0.4639,0.497,0.4966,0.5268,0.5362,0.4176,0.4307,0.4703,0.4044,0.4453,0.513,0.513,0.5341,0.5557,0.5346,0.5451,0.5559,0.5348,0.5451,0.5351,0.4378,0.4344,0.4135,0.294,0.2868,0.2803,0.2633,0.2571,0.2523,0.2435,0.2296,0.2297,0.2592,0.237,0.2226,0.2372,0.2296,0.2371,0.2748,0.29,0.3126,0.3364,0.3435,0.3435,0.3435,0.328,0.3203,0.3203,0.2818,0.2595,0.2594,0.2299,0.2222,1.1086,1.135,0.0,0.0,1.2361,0.0,1.3302,0.0,0.0,0.0,0.0,0.0,0.0,0.0,0.0,0.0,0.0,0.0,0.0,0.0,0.0,0.0,0.0,0.0,0.0,0.0,0.8229,0.7889,0.0,0.0,0.0,0.0,0.8025,0.8657,0.8443,0.8368,0.8569,0.8299,0.817,0.824,0.8196,0.8045,0.7928,0.7928,0.7928,0.7928,0.7928,0.7971,0.7983,0.7983,0.7795,0.7495,0.7566,0.7409,0.7082,0.5919,0.5261,0.5076,0.5551,0.5973,0.6366,0.6332,0.6613,0.6699,0.5588,0.5717,0.605,0.5488,0.5861,0.6433,0.6433,0.6589,0.6692,0.6419,0.6589,0.6694,0.6421,0.6587,0.6415,0.5496,0.5453,0.5109,0.3511,0.3186,0.3054,0.2524,0.2458,0.2399,0.222,0.2222,0.2222,0.2222,0.2222,0.2222,0.2222,0.2222,0.2299,0.2592,0.2594,0.2672,0.2971,0.3125,0.3279,0.3364,0.3435,0.3443,0.3601,0.3205,0.3046,0.2976,0.2744,0.2522]},{"header":{"parameterUnit":"m.s-1","parameterCategory":1,"la1":30.6,"la2":29.2853,"lo1":-89.7004,"lo2":-87.6739,"dy":0.0162,"dx":0.0183,"nx":112,"ny":82,"refTime":"2024-08-21T18:00:00:Z","depth":0,"parameterNumber":3,"parameterNumberName":"V-component_of_WINDS"},"data":[0.0,0.0,0.0,0.0,0.0,0.0,0.0,0.0,0.0,0.0,0.0,0.0,0.0,0.0,0.0,0.0,0.0,0.0,0.0,0.0,0.0,0.0,0.0,0.0,0.0,0.0,0.0,0.0,0.0,0.0,0.0,0.0,0.0,0.0,0.0,0.0,0.0,0.0,0.0,0.0,0.0,0.0,0.0,0.0,0.0,0.0,0.0,0.0,0.0,0.0,0.0,0.0,0.0,0.0,0.0,0.0,0.0,0.0,0.0,0.0,0.0,0.0,0.0,0.0,0.0,0.0,0.0,0.0,0.0,0.0,0.0,0.0,0.0,0.0,0.0,0.0,0.0,0.0,0.0,0.0,0.0,0.0,0.0,0.0,0.0,0.0,0.0,0.0,0.0,0.0,0.0,2.5804,2.6025,2.6445,2.7081,2.7057,2.6374,2.4963,0.0,0.0,0.0,0.0,0.0,0.0,0.0,0.0,0.0,0.0,0.0,0.0,0.0,0.0,0.0,0.0,0.0,0.0,0.0,0.0,0.0,0.0,0.0,0.0,0.0,0.0,0.0,0.0,0.0,0.0,0.0,0.0,0.0,0.0,0.0,0.0,0.0,0.0,0.0,0.0,0.0,0.0,0.0,0.0,0.0,0.0,0.0,0.0,0.0,0.0,0.0,0.0,0.0,0.0,0.0,0.0,0.0,0.0,0.0,0.0,0.0,0.0,0.0,0.0,0.0,0.0,0.0,0.0,0.0,0.0,0.0,0.0,0.0,0.0,0.0,0.0,0.0,0.0,0.0,0.0,0.0,0.0,0.0,0.0,0.0,0.0,0.0,0.0,0.0,0.0,0.0,0.0,0.0,0.0,0.0,0.0,0.0,0.0,0.0,0.0,0.0,0.0,0.0,0.0,2.5301,2.6255,2.6523,2.6405,2.5923,2.6564,2.6122,2.4047,0.0,0.0,0.0,0.0,0.0,0.0,0.0,0.0,0.0,0.0,0.0,0.0,0.0,0.0,0.0,0.0,0.0,0.0,0.0,0.0,0.0,0.0,0.0,0.0,0.0,0.0,0.0,0.0,0.0,0.0,0.0,0.0,0.0,0.0,0.0,0.0,0.0,0.0,0.0,0.0,0.0,0.0,0.0,0.0,0.0,0.0,0.0,0.0,0.0,0.0,0.0,0.0,0.0,0.0,0.0,0.0,0.0,0.0,0.0,0.0,0.0,0.0,0.0,0.0,0.0,0.0,0.0,0.0,0.0,0.0,0.0,0.0,0.0,0.0,0.0,0.0,0.0,0.0,0.0,0.0,0.0,0.0,0.0,0.0,0.0,0.0,0.0,0.0,0.0,0.0,0.0,0.0,0.0,0.0,0.0,0.0,0.0,0.0,0.0,0.0,0.0,0.0,0.0,2.4884,2.4914,2.5768,2.5613,2.5231,2.4667,2.5239,2.4943,2.3323,2.3031,0.0,0.0,0.0,0.0,0.0,0.0,0.0,0.0,0.0,0.0,0.0,0.0,0.0,0.0,0.0,0.0,0.0,0.0,0.0,0.0,0.0,0.0,0.0,0.0,0.0,0.0,0.0,0.0,0.0,0.0,0.0,0.0,0.0,0.0,0.0,0.0,0.0,0.0,0.0,0.0,0.0,0.0,0.0,0.0,0.0,0.0,0.0,0.0,0.0,0.0,0.0,0.0,0.0,0.0,0.0,0.0,0.0,0.0,0.0,0.0,0.0,0.0,0.0,0.0,0.0,0.0,0.0,0.0,0.0,0.0,0.0,0.0,0.0,0.0,0.0,0.0,0.0,0.0,0.0,0.0,0.0,0.0,0.0,0.0,0.0,0.0,0.0,0.0,0.0,0.0,0.0,0.0,0.0,0.0,0.0,0.0,0.0,0.0,0.0,0.0,0.0,0.0,2.5704,2.5303,2.5167,2.4766,2.4292,2.3709,2.3987,2.3755,2.275,2.1914,0.0,0.0,0.0,0.0,0.0,0.0,0.0,0.0,0.0,0.0,0.0,0.0,0.0,0.0,0.0,0.0,0.0,0.0,0.0,0.0,0.0,0.0,0.0,0.0,0.0,0.0,0.0,0.0,0.0,0.0,0.0,0.0,0.0,0.0,0.0,0.0,0.0,0.0,0.0,0.0,0.0,0.0,0.0,0.0,0.0,0.0,0.0,0.0,0.0,0.0,0.0,0.0,0.0,0.0,0.0,0.0,0.0,0.0,0.0,0.0,0.0,0.0,0.0,0.0,0.0,0.0,0.0,0.0,0.0,0.0,0.0,0.0,0.0,0.0,0.0,0.0,0.0,0.0,0.0,0.0,0.0,0.0,0.0,0.0,0.0,0.0,0.0,0.0,0.0,0.0,0.0,0.0,0.0,0.0,0.0,0.0,0.0,0.0,0.0,0.0,0.0,0.0,2.5831,2.6633,2.4836,2.4847,2.4476,2.3256,2.3251,2.3009,2.2386,2.112,0.0,0.0,0.0,0.0,0.0,0.0,0.0,0.0,0.0,0.0,0.0,0.0,0.0,0.0,0.0,0.0,0.0,0.0,0.0,0.0,0.0,0.0,0.0,0.0,0.0,0.0,0.0,0.0,0.0,0.0,0.0,0.0,0.0,0.0,0.0,0.0,0.0,0.0,0.0,0.0,0.0,0.0,0.0,0.0,0.0,0.0,0.0,0.0,0.0,0.0,0.0,0.0,0.0,0.0,0.0,0.0,0.0,0.0,0.0,0.0,0.0,0.0,0.0,0.0,0.0,0.0,0.0,0.0,0.0,0.0,0.0,0.0,0.0,0.0,0.0,0.0,0.0,0.0,0.0,0.0,0.0,0.0,0.0,0.0,0.0,0.0,0.0,0.0,0.0,0.0,0.0,0.0,0.0,0.0,0.0,0.0,0.0,0.0,0.0,0.0,0.0,0.0,2.5414,2.6122,0.0,2.4755,2.428,2.2854,2.3524,2.3304,2.16,0.0,0.0,0.0,0.0,0.0,0.0,0.0,0.0,0.0,0.0,0.0,0.0,0.0,0.0,0.0,0.0,0.0,0.0,0.0,0.0,0.0,0.0,0.0,0.0,0.0,0.0,0.0,0.0,0.0,0.0,0.0,0.0,0.0,0.0,0.0,0.0,0.0,0.0,0.0,0.0,0.0,0.0,0.0,0.0,0.0,0.0,0.0,0.0,0.0,0.0,0.0,0.0,0.0,0.0,0.0,0.0,0.0,0.0,0.0,0.0,0.0,0.0,0.0,0.0,0.0,0.0,0.0,0.0,0.0,0.0,0.0,0.0,0.0,0.0,0.0,0.0,0.0,0.0,0.0,0.0,0.0,0.0,0.0,0.0,0.0,0.0,0.0,0.0,0.0,0.0,0.0,0.0,0.0,0.0,0.0,0.0,0.0,0.0,0.0,0.0,0.0,0.0,2.407,2.5992,2.6859,0.0,2.5524,2.4991,2.369,2.393,2.3339,2.1432,0.0,0.0,0.0,0.0,0.0,0.0,0.0,0.0,0.0,0.0,0.0,0.0,0.0,0.0,0.0,0.0,0.0,0.0,0.0,0.0,0.0,0.0,0.0,0.0,0.0,0.0,0.0,0.0,0.0,0.0,0.0,0.0,0.0,0.0,0.0,0.0,0.0,0.0,0.0,0.0,0.0,0.0,0.0,0.0,0.0,0.0,0.0,0.0,0.0,0.0,0.0,0.0,0.0,0.0,0.0,0.0,0.0,0.0,0.0,0.0,0.0,0.0,0.0,0.0,0.0,0.0,0.0,0.0,0.0,0.0,0.0,0.0,0.0,0.0,0.0,0.0,0.0,0.0,0.0,0.0,0.0,0.0,0.0,0.0,0.0,0.0,0.0,0.0,0.0,0.0,0.0,0.0,0.0,0.0,0.0,0.0,0.0,0.0,0.0,0.0,0.0,0.0,2.4997,2.7809,2.9265,2.7851,2.7294,2.6706,2.597,2.4382,2.3034,0.0,0.0,0.0,0.0,0.0,0.0,0.0,0.0,0.0,0.0,0.0,0.0,0.0,0.0,0.0,0.0,0.0,0.0,0.0,0.0,0.0,0.0,0.0,0.0,0.0,0.0,0.0,0.0,0.0,0.0,0.0,0.0,0.0,0.0,0.0,0.0,0.0,0.0,0.0,0.0,0.0,0.0,0.0,0.0,0.0,0.0,0.0,0.0,0.0,0.0,0.0,0.0,0.0,0.0,0.0,0.0,0.0,0.0,0.0,0.0,0.0,0.0,0.0,0.0,0.0,0.0,0.0,0.0,0.0,0.0,0.0,0.0,0.0,0.0,0.0,0.0,0.0,0.0,0.0,0.0,0.0,0.0,0.0,0.0,0.0,0.0,0.0,0.0,0.0,0.0,0.0,0.0,0.0,0.0,0.0,0.0,0.0,0.0,0.0,0.0,0.0,0.0,0.0,2.5598,2.8268,2.9525,2.7882,2.7355,2.6929,2.6451,2.5811,2.4723,2.301,0.0,0.0,0.0,0.0,0.0,0.0,0.0,0.0,0.0,0.0,0.0,0.0,0.0,0.0,0.0,0.0,0.0,0.0,0.0,0.0,0.0,0.0,0.0,0.0,0.0,0.0,0.0,0.0,0.0,0.0,0.0,0.0,0.0,0.0,0.0,0.0,0.0,0.0,0.0,0.0,0.0,0.0,0.0,0.0,0.0,0.0,0.0,0.0,0.0,0.0,0.0,0.0,0.0,0.0,0.0,0.0,0.0,0.0,0.0,0.0,0.0,0.0,0.0,0.0,0.0,0.0,0.0,0.0,0.0,0.0,0.0,0.0,0.0,0.0,0.0,0.0,0.0,0.0,0.0,0.0,0.0,0.0,0.0,0.0,0.0,0.0,0.0,0.0,0.0,0.0,0.0,0.0,0.0,0.0,0.0,0.0,0.0,0.0,0.0,0.0,0.0,0.0,2.6568,2.9146,3.0349,2.889,2.8168,2.7624,2.72,2.6537,2.5289,2.3307,0.0,0.0,0.0,0.0,0.0,0.0,0.0,0.0,0.0,0.0,0.0,0.0,0.0,0.0,0.0,0.0,0.0,0.0,0.0,0.0,0.0,0.0,0.0,0.0,0.0,0.0,0.0,0.0,0.0,0.0,0.0,0.0,0.0,0.0,0.0,0.0,0.0,0.0,0.0,0.0,0.0,0.0,0.0,0.0,0.0,0.0,0.0,0.0,0.0,0.0,0.0,0.0,0.0,0.0,0.0,0.0,0.0,0.0,0.0,0.0,0.0,0.0,0.0,0.0,0.0,0.0,0.0,0.0,0.0,0.0,0.0,0.0,0.0,0.0,0.0,0.0,0.0,0.0,0.0,0.0,0.0,0.0,0.0,0.0,0.0,0.0,0.0,0.0,0.0,0.0,0.0,0.0,0.0,0.0,0.0,0.0,0.0,0.0,0.0,0.0,0.0,0.0,2.7752,3.0162,3.1365,3.036,2.9392,2.861,2.8039,2.6806,2.5284,2.3403,0.0,0.0,0.0,0.0,0.0,0.0,0.0,0.0,0.0,0.0,0.0,0.0,0.0,0.0,0.0,0.0,0.0,0.0,0.0,0.0,0.0,0.0,0.0,0.0,0.0,0.0,0.0,0.0,0.0,0.0,0.0,0.0,0.0,0.0,0.0,0.0,0.0,0.0,0.0,0.0,0.0,0.0,0.0,0.0,0.0,0.0,0.0,0.0,0.0,0.0,0.0,0.0,0.0,0.0,0.0,0.0,0.0,0.0,0.0,0.0,3.1409,0.0,0.0,0.0,0.0,0.0,0.0,0.0,0.0,0.0,0.0,0.0,0.0,0.0,0.0,0.0,0.0,0.0,0.0,0.0,0.0,0.0,0.0,0.0,0.0,0.0,0.0,0.0,0.0,0.0,0.0,0.0,0.0,0.0,0.0,0.0,0.0,0.0,0.0,0.0,0.0,0.0,2.8641,3.043,3.1157,3.009,2.9855,2.927,2.8011,2.7556,2.6804,2.5598,0.0,0.0,0.0,0.0,0.0,0.0,0.0,0.0,0.0,0.0,0.0,0.0,0.0,0.0,0.0,0.0,0.0,0.0,0.0,0.0,0.0,0.0,0.0,0.0,0.0,0.0,0.0,0.0,0.0,0.0,0.0,0.0,0.0,0.0,0.0,0.0,0.0,0.0,0.0,0.0,0.0,0.0,0.0,0.0,0.0,0.0,0.0,0.0,0.0,0.0,0.0,0.0,0.0,0.0,0.0,0.0,0.0,0.0,0.0,0.0,0.0,3.3336,0.0,0.0,0.0,0.0,0.0,0.0,0.0,0.0,0.0,0.0,0.0,0.0,0.0,0.0,0.0,0.0,0.0,0.0,0.0,0.0,0.0,0.0,0.0,0.0,0.0,0.0,0.0,0.0,0.0,0.0,0.0,0.0,0.0,0.0,0.0,0.0,0.0,0.0,0.0,0.0,2.8998,3.0532,3.1203,3.0426,3.019,2.9678,2.861,2.8151,2.7458,2.6318,2.585,0.0,0.0,0.0,0.0,0.0,0.0,0.0,0.0,0.0,0.0,0.0,0.0,0.0,0.0,0.0,0.0,0.0,0.0,0.0,0.0,0.0,0.0,0.0,0.0,0.0,0.0,0.0,0.0,0.0,0.0,0.0,0.0,0.0,0.0,0.0,0.0,0.0,0.0,0.0,0.0,0.0,0.0,0.0,0.0,0.0,0.0,0.0,0.0,0.0,0.0,0.0,0.0,0.0,3.8149,3.8427,3.833,3.8404,3.875,3.9157,3.6627,3.6223,3.7195,0.0,0.0,0.0,0.0,0.0,0.0,0.0,0.0,0.0,0.0,0.0,0.0,0.0,0.0,0.0,0.0,0.0,0.0,0.0,0.0,0.0,0.0,0.0,0.0,0.0,3.631,3.6777,0.0,0.0,0.0,0.0,0.0,0.0,0.0,0.0,0.0,0.0,0.0,0.0,2.9354,3.0692,3.1306,3.0764,3.0411,2.99,2.91,2.8611,2.7826,2.6699,2.6635,2.6306,0.0,0.0,0.0,0.0,0.0,0.0,0.0,0.0,0.0,0.0,0.0,0.0,0.0,0.0,0.0,0.0,0.0,0.0,0.0,0.0,0.0,0.0,0.0,0.0,0.0,0.0,0.0,0.0,0.0,0.0,0.0,0.0,3.7287,3.7593,0.0,0.0,0.0,0.0,0.0,0.0,0.0,0.0,0.0,0.0,0.0,0.0,0.0,0.0,3.9187,4.0477,4.0256,3.8613,4.046,4.0719,3.9581,4.0039,4.0055,3.9737,3.9881,0.0,3.9042,3.7428,0.0,0.0,0.0,0.0,0.0,0.0,0.0,0.0,0.0,0.0,0.0,0.0,0.0,0.0,0.0,0.0,0.0,0.0,0.0,0.0,0.0,0.0,3.8993,3.8768,3.8811,3.9069,0.0,3.6442,3.3479,3.3422,0.0,0.0,0.0,0.0,0.0,0.0,0.0,0.0,3.0346,3.1089,3.1229,3.0448,3.0456,2.9987,2.8613,2.8696,2.8564,2.7983,2.7937,2.8184,2.8687,2.8112,0.0,0.0,0.0,0.0,0.0,0.0,0.0,0.0,0.0,0.0,0.0,0.0,0.0,0.0,0.0,0.0,0.0,0.0,0.0,0.0,0.0,0.0,0.0,0.0,0.0,0.0,0.0,0.0,0.0,3.7828,3.9448,3.8858,3.9586,3.9886,0.0,0.0,0.0,0.0,0.0,0.0,0.0,0.0,0.0,4.1257,4.1652,4.171,4.1431,4.2029,4.1887,4.1007,4.1477,4.1419,4.0832,4.1052,4.102,4.0848,4.1133,4.1199,4.1023,3.9675,3.8685,3.7935,0.0,0.0,0.0,0.0,0.0,3.7138,3.7882,3.8784,0.0,0.0,0.0,0.0,0.0,0.0,0.0,0.0,0.0,0.0,0.0,0.0,0.0,3.9398,3.9299,3.9398,3.9713,3.8196,3.6643,0.0,3.4739,3.3159,3.1401,0.0,0.0,0.0,0.0,0.0,3.0849,3.1234,3.1333,3.092,3.0837,3.0543,2.9798,2.9958,2.9871,2.9403,2.9926,3.0231,3.0319,2.975,2.9439,0.0,0.0,0.0,0.0,0.0,0.0,0.0,0.0,0.0,0.0,0.0,0.0,0.0,0.0,0.0,0.0,0.0,0.0,0.0,0.0,0.0,0.0,0.0,0.0,0.0,0.0,0.0,0.0,3.994,4.1649,3.9731,4.1488,4.2276,0.0,0.0,0.0,0.0,0.0,0.0,4.2687,4.2215,4.2205,4.2932,4.3437,4.3522,4.3117,4.3015,4.2886,4.2831,4.2192,4.1861,4.1785,4.1753,4.1785,4.1916,4.1867,4.2142,4.2475,4.1231,4.0592,4.0232,3.923,3.857,3.8203,3.8324,3.8521,3.8841,3.965,4.0446,4.1094,4.0746,0.0,4.1243,4.0365,0.0,0.0,0.0,0.0,3.9299,3.9299,0.0,3.9978,3.9431,3.9299,3.9299,3.9299,3.9175,3.8831,0.0,3.6833,3.5221,3.3388,0.0,0.0,0.0,0.0,3.2196,3.189,3.1893,3.1879,3.1794,3.1551,3.1349,3.1248,3.119,3.1099,3.0915,3.1721,3.2064,3.1686,3.1493,3.1334,3.1263,0.0,0.0,0.0,0.0,0.0,0.0,0.0,0.0,0.0,0.0,0.0,0.0,0.0,0.0,0.0,0.0,0.0,0.0,0.0,0.0,0.0,0.0,0.0,0.0,0.0,0.0,0.0,0.0,0.0,4.0341,4.2318,0.0,0.0,0.0,0.0,4.2252,4.1981,4.2392,4.3843,4.3115,4.2947,4.3608,4.3671,4.3862,4.4223,4.3831,4.3498,4.3181,4.28,4.2534,4.2349,4.2142,4.2333,4.2837,4.2633,4.2758,4.2956,4.1624,4.0958,4.0816,4.1252,4.1002,4.0467,4.1413,4.1759,4.1734,4.1415,4.0933,4.0558,4.116,4.1375,4.1524,4.217,4.1375,0.0,0.0,3.9812,3.9299,3.9299,3.9332,3.9348,3.9315,3.9299,3.9299,3.9299,3.8799,3.8518,0.0,3.9119,3.8473,3.6587,0.0,3.5883,3.4569,3.3836,3.3598,3.4078,3.354,3.3103,3.3119,3.2703,3.2415,3.2431,3.1946,3.195,3.2538,3.3062,3.3319,3.3288,3.3928,3.3455,3.171,3.1831,0.0,0.0,0.0,0.0,0.0,0.0,0.0,0.0,0.0,0.0,0.0,0.0,0.0,0.0,0.0,0.0,0.0,0.0,0.0,0.0,0.0,0.0,0.0,0.0,0.0,0.0,0.0,0.0,4.3979,4.5385,0.0,4.4324,4.4151,4.4423,4.511,4.467,4.4945,4.6358,4.5939,4.5961,4.6635,4.6254,4.6084,4.6236,4.5239,4.4505,4.402,4.3339,4.2846,4.2507,4.2238,4.227,4.2571,4.2365,4.2555,4.2929,4.2468,4.2384,4.2563,4.2272,4.2015,4.1768,4.1667,4.1337,4.0953,4.0817,4.058,4.0525,4.1193,4.1409,4.1375,4.1193,4.0796,4.031,3.9829,3.9497,3.9299,3.9299,3.9299,3.9299,3.9299,3.9299,3.9299,3.9299,3.9104,3.9023,3.9245,3.8952,3.8351,3.7388,3.7883,3.7715,3.5696,3.576,3.5674,3.4563,3.4127,3.3688,3.314,3.281,3.2687,3.281,3.2958,3.2875,3.2404,3.3826,3.4324,3.3496,3.4067,3.411,3.3513,3.2656,3.187,0.0,0.0,0.0,0.0,0.0,0.0,0.0,0.0,0.0,0.0,0.0,0.0,0.0,0.0,0.0,0.0,0.0,0.0,0.0,0.0,0.0,0.0,0.0,0.0,0.0,0.0,4.7049,4.5623,4.7136,4.7732,4.6165,4.6116,4.6435,4.7119,4.6641,4.6836,4.7994,4.7782,4.7845,4.8283,4.7638,4.7373,4.7506,4.6272,4.5518,4.5277,4.4087,4.346,4.327,4.2589,4.2397,4.2618,4.2492,4.2649,4.2976,4.2976,4.316,4.3383,4.3023,4.287,4.2804,4.2307,4.1558,4.0663,4.0194,4.0028,4.0144,4.0829,4.1061,4.1028,4.0796,4.0564,4.031,3.9812,3.9497,3.9299,3.9299,3.9299,3.9299,3.9299,3.9299,3.9299,3.9299,3.9299,3.9299,3.9299,3.8925,3.8542,3.8236,3.8861,3.8871,3.7237,3.741,3.7143,3.557,3.5068,3.4545,3.3736,3.3469,3.3417,3.3553,3.3942,3.3878,3.322,3.4652,3.5188,3.4393,3.4393,3.4493,3.4606,3.3433,3.3007,3.3342,0.0,0.0,0.0,0.0,0.0,0.0,0.0,0.0,0.0,0.0,0.0,0.0,0.0,0.0,0.0,0.0,0.0,0.0,0.0,0.0,0.0,0.0,0.0,4.5201,4.795,4.8784,4.5224,4.7479,4.8411,4.6102,4.6646,4.7408,4.8111,4.7844,4.7919,4.8644,4.8505,4.8394,4.8394,4.7737,4.7572,4.795,4.6913,4.6556,4.6807,4.5112,4.4464,4.4713,4.3333,4.2852,4.3157,4.3127,4.3127,4.3157,4.3157,4.3157,4.3188,4.3462,4.3582,4.3582,4.3582,4.2655,4.121,3.9856,3.9385,3.9475,4.0221,4.0453,4.0553,4.1205,4.0951,4.0403,4.0403,3.99,3.9352,3.9352,3.9325,3.9325,3.9325,3.9299,3.9299,3.9299,3.9299,3.9299,3.9299,3.9299,3.9299,3.9299,3.9299,3.9299,3.9299,3.8692,0.0,3.7235,3.6489,3.576,3.5048,3.4837,3.474,3.4757,3.4873,3.5003,3.5101,3.5541,3.5872,3.5986,3.5198,3.4782,3.4851,3.4266,3.4455,3.5426,0.0,0.0,0.0,0.0,0.0,0.0,0.0,0.0,0.0,0.0,0.0,0.0,0.0,0.0,0.0,0.0,0.0,0.0,0.0,0.0,0.0,0.0,4.8278,4.7918,4.9084,4.9802,4.937,4.9975,5.0192,4.953,4.9704,4.9913,5.0122,5.0039,5.0053,5.0261,5.0205,5.0205,5.0205,4.9546,4.9248,4.9355,4.8572,4.8046,4.7723,4.7091,4.6445,4.5671,4.506,4.4586,4.4243,4.4112,4.414,4.4243,4.4243,4.4328,4.4311,4.3532,4.3235,4.3235,4.3235,4.2563,4.1621,4.1135,4.0968,4.1087,4.1876,4.1757,4.1307,4.1485,4.1087,4.0551,4.0551,4.0472,4.0392,4.0392,4.0095,3.9791,3.9791,3.9556,3.9299,3.9299,3.9299,3.9299,3.9299,3.9299,3.9299,3.9299,3.9299,3.9299,3.9299,0.0,0.0,3.7996,3.7268,3.6721,3.6522,3.5984,3.586,3.6406,3.6259,3.5948,0.0,3.587,3.5936,3.5574,3.5742,3.5883,3.5883,3.5716,3.5805,0.0,0.0,0.0,0.0,0.0,0.0,0.0,0.0,0.0,0.0,0.0,0.0,0.0,0.0,0.0,0.0,0.0,0.0,0.0,0.0,0.0,0.0,4.8378,4.9788,5.0001,5.0265,5.055,5.0972,5.0945,5.0891,5.0891,5.0891,5.0891,5.0891,5.0891,5.0891,5.0891,5.0891,5.0891,5.0891,5.0268,4.989,4.989,4.9235,4.8893,4.8841,4.8129,4.7593,4.7202,4.6096,4.5399,0.0,4.4598,4.4462,4.4563,4.4563,4.4618,0.0,0.0,0.0,0.0,0.0,4.2668,4.2091,4.1417,4.1363,4.1672,4.2142,4.1988,4.1604,4.1604,4.1089,4.0521,4.0521,4.057,4.0618,4.0618,4.0424,4.0252,4.0252,4.0153,4.0053,3.9978,4.0036,4.0086,4.0078,0.0,0.0,3.9935,3.9582,3.9299,3.9299,3.9299,3.9033,0.0,3.7847,3.745,3.7135,3.6721,3.6638,3.7069,3.7094,0.0,0.0,0.0,3.6646,3.6249,3.6865,0.0,0.0,0.0,0.0,0.0,0.0,0.0,0.0,3.8657,3.8718,0.0,0.0,0.0,0.0,0.0,0.0,0.0,0.0,0.0,0.0,0.0,0.0,0.0,0.0,0.0,0.0,4.9817,5.101,5.1449,5.1316,5.1105,5.0918,5.0891,5.0891,5.0891,5.0891,5.0891,5.0891,5.0891,5.0891,5.0891,0.0,0.0,0.0,0.0,5.0005,5.0005,4.9415,4.9415,5.0005,4.8761,4.8413,4.884,4.6931,4.6011,4.5892,4.5071,4.472,4.4748,4.4635,4.4601,4.4629,4.4783,4.4787,4.4575,4.3383,4.2791,0.0,0.0,0.0,0.0,4.1856,4.1847,4.1786,4.1761,4.1236,4.0642,4.0642,4.0642,4.0666,4.0666,4.0689,4.0754,4.0761,4.092,4.1064,4.0949,4.107,4.1166,4.111,4.111,4.1059,4.0855,4.0087,3.9468,3.9415,3.9415,0.0,3.8524,3.84,3.8134,3.7578,0.0,0.0,3.7511,3.7763,3.7751,3.735,3.7793,3.7965,3.7773,3.8504,3.941,4.0518,4.0604,4.1446,4.2987,4.3123,4.3556,4.424,4.1153,4.075,0.0,0.0,0.0,0.0,0.0,0.0,0.0,0.0,0.0,0.0,0.0,0.0,0.0,0.0,0.0,4.9156,5.0587,5.1679,5.1647,5.1632,5.141,5.0945,5.0891,5.0891,5.0891,5.0891,5.0891,5.0891,5.0891,5.0891,5.0891,5.0891,0.0,5.0891,5.0764,5.071,5.071,5.0582,5.0582,5.0692,0.0,0.0,4.9529,4.9107,4.8538,4.791,4.716,4.6812,4.6777,4.6123,4.5862,4.576,4.4848,4.4135,4.359,4.3262,4.2721,4.2182,4.2502,4.27,4.2901,4.3436,4.3318,4.2966,4.2841,4.2432,0.0,4.2008,4.2089,4.2172,4.2172,4.1903,4.1666,4.1648,4.137,4.1087,4.1064,4.1087,4.1133,4.111,4.111,4.1087,4.1059,4.0744,4.0441,4.022,4.0195,4.0144,3.9991,3.9562,3.943,3.9873,3.9474,3.9442,4.0035,3.9617,3.9508,4.0028,4.0134,4.0182,4.0124,4.091,4.1147,4.0754,4.1364,4.1878,4.2237,4.3254,4.4143,4.4879,4.3294,4.3053,0.0,0.0,0.0,0.0,0.0,0.0,0.0,0.0,0.0,0.0,0.0,4.7876,4.878,0.0,5.1035,5.1701,5.2526,5.294,5.2554,5.214,5.174,5.135,5.1298,5.1298,5.1298,5.1298,5.1298,5.1298,5.1167,5.1167,5.1298,5.1052,5.1008,5.1298,5.1167,5.1167,5.1298,5.1298,5.1298,5.1298,5.1298,5.1068,5.0705,5.0279,4.9652,4.8848,4.8112,4.7588,4.7174,4.6767,4.6607,4.6542,4.5935,4.5312,4.4656,4.3931,4.3436,4.3097,4.2723,4.2917,4.3412,4.3738,4.3683,4.3471,4.3383,4.2897,4.2394,4.2371,4.2409,4.245,4.245,4.2292,4.2151,4.2151,4.2074,4.1997,4.1952,4.2035,4.2098,4.2,4.2,4.1976,4.1867,4.1778,4.1477,4.0844,4.075,4.075,4.075,4.0393,4.0277,4.0655,4.0298,4.0182,4.0577,4.0322,4.0294,4.0577,4.0666,4.0825,4.11,4.1835,4.2399,4.2693,4.3488,4.4091,4.4519,4.514,4.5663,4.6035,4.5441,4.5227,0.0,0.0,0.0,0.0,0.0,0.0,0.0,0.0,5.012,5.0913,5.0506,5.0507,5.2098,5.2544,5.3056,5.4239,5.4481,5.4253,5.3484,5.2804,5.2264,5.1858,5.174,5.169,5.169,5.169,5.169,5.169,5.163,5.1693,5.1922,5.1652,5.1644,5.1922,5.1718,5.1647,5.169,5.169,5.169,5.169,5.169,5.169,5.1672,5.1037,5.037,4.9703,4.88,4.7895,4.6998,4.6998,4.6998,4.6998,4.6998,4.6725,4.6174,4.4758,4.42,4.3975,4.2685,4.2759,4.3402,4.3422,4.3486,4.353,4.3465,4.3037,4.2536,4.2492,4.2472,4.2472,4.2472,4.2512,4.2571,4.2571,4.2749,4.2938,4.2899,4.2993,4.3086,4.2957,4.2938,4.2881,4.2689,4.265,4.2356,4.1464,4.1331,4.1331,4.1331,4.1208,4.1111,4.1111,4.0949,4.0814,4.0767,4.0832,4.0901,4.0968,4.1063,4.1406,4.2008,4.257,4.3336,4.4331,4.4951,4.5686,4.6511,4.6511,4.6694,4.6998,4.6998,4.6819,4.82,4.864,4.9399,5.0574,5.0367,5.0572,0.0,0.0,5.1556,5.2252,5.2178,5.2269,5.3251,5.3913,5.4545,5.5155,5.5276,5.4903,5.3807,5.3573,5.32,5.2354,5.1932,5.169,5.169,5.169,5.169,5.169,5.2325,5.2717,5.2768,5.3315,5.3369,5.2786,5.2743,5.2378,5.1708,5.169,5.169,5.169,5.169,5.169,5.169,5.1601,5.1512,5.1351,4.9834,4.8354,4.6998,4.6998,4.6998,4.6998,4.6998,4.6957,4.6733,4.5257,4.4285,4.3596,4.2935,4.2721,4.2735,4.2778,4.2894,4.3008,4.2989,4.3048,4.3105,4.3105,4.3087,4.3087,4.3087,4.3105,4.3105,4.3105,4.3142,4.316,4.316,4.3178,4.316,4.3086,4.3086,4.303,4.29,4.2881,4.271,4.2249,4.2166,4.2166,4.2166,4.219,4.2231,4.2231,4.2313,4.2272,4.2086,4.1931,4.2184,4.2926,4.2983,4.3371,4.4213,4.4272,4.4019,4.3458,4.3403,4.3868,4.4778,4.4778,4.5535,4.6998,4.6998,4.6975,4.9187,5.0518,5.1804,5.1415,5.284,5.4517,5.5185,5.5475,5.5708,5.5979,5.559,5.5594,5.6853,5.6591,5.6444,0.0,5.7068,5.6393,5.5199,5.4373,5.3426,5.22,5.208,5.2054,5.2054,5.2126,5.2354,5.284,5.3017,5.343,5.4046,5.4074,5.3844,5.3374,5.3214,5.2837,5.2174,5.2174,5.2174,5.2174,5.2174,5.2174,5.2174,5.2174,5.1922,5.1382,4.9775,4.8695,4.8069,4.7619,4.7421,4.7421,4.7421,4.7421,4.718,4.5366,4.4542,4.4184,4.308,4.2783,4.2899,4.2918,4.2994,4.3068,4.3031,4.3105,4.3196,4.316,4.3142,4.316,4.3196,4.316,4.316,4.3196,4.3214,4.3214,4.3214,4.3214,4.3196,4.316,4.316,4.3142,4.3031,4.303,4.2974,4.2803,4.2707,4.267,4.2764,4.2629,4.2472,4.2351,4.2371,4.2389,4.2308,4.2246,4.2305,4.2459,4.2559,4.2764,4.3127,4.3568,4.374,4.359,4.4488,4.5158,4.5541,4.609,4.673,4.7403,4.6913,4.6697,4.9703,5.1755,5.3745,5.2532,5.5015,5.7633,5.7159,5.7805,5.8486,5.8486,5.7862,5.7713,5.9044,5.8363,5.7887,5.8722,5.8422,5.7672,5.6473,5.5282,5.4133,5.3067,5.2744,5.2695,5.2917,5.2658,5.2824,5.3639,5.3725,5.417,5.5136,5.5047,5.468,5.405,5.3851,5.3339,5.2516,5.2498,5.2498,5.2498,5.2498,5.2498,5.2498,5.2498,5.2063,5.1212,4.9836,4.9112,4.8837,4.8022,4.7717,4.7717,4.7717,4.7717,4.7494,4.5749,4.5081,4.4831,4.354,4.3099,4.3104,4.3196,4.3233,4.3251,4.3215,4.3233,4.3269,4.3196,4.3196,4.3215,4.3251,4.3233,4.3215,4.3269,4.3268,4.3286,4.3269,4.3251,4.3233,4.3178,4.316,4.316,4.3068,4.3086,4.3104,4.3123,4.305,4.2994,4.3086,4.2879,4.2668,4.253,4.2452,4.2412,4.2412,4.2391,4.2379,4.2363,4.2465,4.2635,4.2891,4.3205,4.3617,4.4119,4.5081,4.5789,4.6302,4.6982,4.7313,4.7373,4.7011,4.6488,4.9191,5.1736,5.4844,5.4806,5.6739,5.8846,5.9543,5.9072,5.8486,5.8486,5.7862,5.754,5.8372,5.844,5.8495,5.8932,5.8868,5.8369,5.722,5.6343,5.5784,5.5607,5.4267,5.3662,0.0,5.3291,5.2824,5.3639,5.4436,5.5196,5.5921,5.6699,5.6403,5.4907,5.4846,5.4086,5.2516,5.2498,5.2498,5.2498,5.2498,5.2498,5.2498,5.2498,5.2063,5.1249,5.0416,4.9619,4.8837,4.8022,4.7717,4.7717,4.7717,4.7717,4.7609,4.6755,4.594,4.5202,4.4561,4.3797,4.3141,4.341,4.3446,4.3412,4.3463,4.3497,4.348,4.3394,4.3446,4.348,4.3394,4.3446,4.3497,4.3497,4.3479,4.348,4.3412,4.3394,4.3341,4.3141,4.3104,4.3049,4.2938,4.3012,4.3105,4.3196,4.3178,4.316,4.3104,4.3086,4.3086,4.3086,4.2843,4.2692,4.2692,4.2434,4.265,4.3501,4.3557,4.3957,4.4872,4.4068,4.4014,4.4952,4.4109,4.4548,4.6287,4.6323,4.6422,4.6558,4.7319,4.6515,4.9646,5.1319,5.3385,5.3973,5.5583,5.7368,5.8654,5.8713,5.8486,5.8486,5.7389,5.6708,5.754,5.7192,5.7115,5.8276,5.884,5.8821,5.7941,5.7296,5.6542,5.5544,5.5136,0.0,0.0,0.0,0.0,5.5132,5.5481,5.6173,5.7464,5.7795,5.7212,5.568,5.5625,5.4877,5.3306,5.3306,5.3564,5.408,5.408,5.408,5.4062,5.3545,5.314,5.2808,5.1424,5.0548,4.9994,4.8658,4.7929,4.7717,4.7717,4.7717,4.7681,4.7409,4.6794,4.5906,4.4644,4.4067,4.3814,4.3379,4.3251,4.3269,4.3286,4.3358,4.3429,4.3412,4.3358,4.334,4.3428,4.3393,4.3322,4.3411,4.3429,4.3411,4.3286,4.3269,4.3322,4.3479,4.3513,4.3546,4.366,4.3728,4.3697,4.3495,4.3393,4.3287,4.3123,4.3104,4.3067,4.2975,4.29,4.2844,4.2844,4.2749,4.2758,4.2927,4.3678,4.427,4.4599,4.5114,4.5602,4.6053,4.6365,4.6825,4.7432,4.8003,4.8316,4.835,4.8091,4.7568,4.9476,5.0903,5.2613,5.348,5.4958,5.6535,5.78,5.807,5.7975,5.7673,5.6746,5.6084,5.6381,5.6147,5.6349,5.7606,5.8459,5.8893,5.863,5.811,5.7492,5.6817,5.6405,5.6118,0.0,0.0,0.0,5.6321,5.6393,5.6943,5.8227,5.8301,5.7713,5.643,5.6136,5.5382,5.4108,5.3831,5.3962,5.4482,5.4761,5.4761,5.4463,5.3943,5.3702,5.3609,5.1936,5.1083,5.0763,4.914,4.8326,4.8093,4.8093,4.8093,4.8093,4.8093,4.7764,4.7105,4.5558,4.4721,4.4251,4.3797,4.356,4.3444,4.3444,4.3801,4.4173,4.414,4.4021,4.4043,4.4506,4.4259,4.4009,4.4475,4.4583,4.4548,4.4445,4.441,4.4461,4.4628,4.4661,4.4726,4.4885,4.4966,4.4935,4.4744,4.463,4.426,4.3395,4.3269,4.3286,4.3338,4.3338,4.3338,4.3338,4.3594,4.3705,4.3561,4.4576,4.5189,4.5189,4.5972,4.6626,4.7086,4.7694,4.8156,4.8471,4.9024,4.9148,4.8867,4.8641,4.8224,4.8717,5.0448,5.2494,5.3347,5.4769,5.614,5.6932,5.7105,5.686,5.6047,5.5839,5.5605,5.4905,0.0,5.6169,5.6918,5.7844,5.8661,5.929,5.8888,5.8752,0.0,0.0,0.0,0.0,0.0,0.0,5.7209,0.0,5.7518,5.8329,5.8366,5.7996,5.7207,5.6492,5.5719,5.4867,5.4166,5.3833,5.3833,5.4595,5.4577,5.3833,5.3777,5.3758,5.3665,5.2047,5.1304,5.1119,4.9539,4.8853,4.8799,4.8799,4.8799,4.8799,4.8799,4.8799,4.86,4.7272,4.5838,4.4583,4.4675,4.4407,4.4059,4.404,4.4795,4.5633,4.5503,4.5385,4.5512,4.6448,4.5953,4.5438,4.6455,4.6704,4.6673,4.6594,4.6597,4.6563,4.6462,4.6443,4.6443,4.6443,4.6544,4.6645,4.6704,4.6704,4.5969,4.4009,4.3758,4.389,4.4206,4.4236,4.4236,4.4236,4.4938,4.5382,4.5348,4.6202,4.6693,4.6693,4.6761,4.7203,4.8108,4.8127,4.8532,4.9345,4.9345,4.895,4.8231,4.9006,4.8532,4.904,4.9608,5.0751,5.1623,5.2092,5.271,5.4152,5.4474,5.4401,5.4175,5.3709,5.3261,5.3067,5.4099,0.0,5.6069,5.7887,0.0,6.0246,6.0299,0.0,6.034,0.0,5.9569,5.9064,5.8857,0.0,0.0,5.8371,5.8461,5.9215,5.9272,5.8914,5.8159,5.7951,5.7212,5.5866,5.5673,5.5559,5.5559,5.5767,5.5748,5.5541,5.4899,5.4597,5.4541,5.3522,5.2551,5.1647,5.0581,4.9612,4.8799,4.8799,4.8799,4.8799,4.8799,4.8799,4.8744,4.84,4.7678,4.6854,4.6322,4.6131,4.6068,4.6128,4.6334,4.6561,4.6528,4.6454,4.6446,4.6761,4.6562,4.6365,4.6632,4.6657,4.6594,4.648,4.6445,4.651,4.6727,4.6967,4.7159,4.7159,4.6972,4.684,4.6855,4.6635,4.6345,4.5969,4.5913,4.5926,4.5963,4.5944,4.5944,4.5944,4.6146,4.6246,4.6187,4.7337,4.798,4.7942,4.885,4.9474,4.9702,4.9702,4.9829,5.0051,5.0051,4.9936,4.9746,4.9955,4.9822,4.955,4.9708,5.0221,5.1074,5.1223,5.1404,5.2333,5.2769,5.283,5.2148,5.1926,5.1774,5.1376,5.2881,0.0,0.0,0.0,0.0,6.1165,6.114,6.0931,0.0,6.045,0.0,5.951,5.9472,5.9508,0.0,5.9145,5.9018,5.9454,5.9473,5.9302,5.8954,5.861,5.7729,5.6209,5.655,5.6391,5.5726,5.6105,5.6116,5.5789,5.5313,5.5085,5.5028,0.0,5.348,5.2769,5.1542,5.0648,4.9996,4.9604,4.9472,4.9472,4.9472,4.9472,4.9472,4.9472,4.92,4.8725,4.76,4.7106,4.6986,4.7071,4.7427,4.7823,4.7823,4.771,4.7711,4.8232,4.7919,4.7607,4.8041,4.8121,4.8062,4.795,4.7935,4.798,4.8178,4.8383,4.8509,4.8509,4.8337,4.8207,4.8207,4.8058,4.7999,4.8135,4.7346,4.6836,4.6944,4.6958,4.6958,4.6958,4.7325,4.7551,4.7494,4.8572,4.9199,4.9159,4.9822,5.0219,5.0219,5.0243,5.0267,5.0267,5.029,5.0302,5.0302,5.0302,5.0302,5.0489,5.0558,5.0572,5.1294,5.1345,5.1192,5.1027,5.1562,5.1711,5.0241,0.0,5.083,5.0071,5.1992,5.4185,5.5639,0.0,6.0286,6.1815,6.1519,6.1115,6.1002,6.0306,5.9813,5.9751,5.9732,5.9798,5.9963,5.9613,5.94,5.94,5.94,5.9454,5.9581,5.8874,5.7819,5.6421,5.699,5.6553,5.514,5.5883,5.5933,5.5294,5.5294,5.5294,5.5256,0.0,0.0,5.3995,5.253,5.1804,5.1517,5.076,5.0397,5.0302,5.0302,5.0302,5.0302,5.0302,5.0302,5.0066,4.8691,4.789,4.7464,4.7529,4.8161,4.8861,4.8861,4.8705,4.8732,4.9673,4.9169,4.8636,4.9499,4.9702,4.9689,4.9624,4.9624,4.9624,4.9624,4.9692,4.9749,4.9749,4.9836,4.9912,4.9912,4.9912,4.9925,4.9992,4.8409,4.7438,4.7719,4.7745,4.7745,4.7745,4.8511,4.8973,4.896,4.9689,5.0095,5.0095,5.0108,5.012,5.0133,5.0175,5.02,5.02,5.0267,5.0302,5.029,5.0302,5.0302,5.2649,5.2116,5.1566,5.169,5.1055,5.0233,4.9477,4.9967,0.0,0.0,4.9825,5.0366,5.0101,5.2056,5.4026,5.5013,5.7267,5.9535,6.1339,6.1541,6.1476,0.0,0.0,0.0,0.0,0.0,0.0,0.0,0.0,0.0,5.996,5.996,6.0007,6.0084,5.9354,5.8515,5.7518,5.6998,5.6235,5.5268,5.5421,5.5421,5.5294,5.5294,5.5294,5.5294,0.0,0.0,5.409,5.3804,5.2836,5.1575,5.1422,5.0932,5.0302,5.0302,5.0302,5.0302,5.0302,5.0302,5.0252,5.004,4.9422,4.8774,4.8848,4.8537,4.8167,4.8167,4.8146,4.8143,4.8328,4.8198,4.8048,4.8212,4.8216,4.8182,4.817,4.817,4.817,4.817,4.8622,4.8986,4.8986,4.9504,4.9912,4.9912,4.9912,4.9893,4.9925,4.966,4.9497,4.9619,4.9632,4.9632,4.9632,4.9778,4.9848,4.9796,4.9993,5.0095,5.0095,5.0139,5.0219,5.0267,5.0278,5.0267,5.02,5.0267,5.0278,5.0231,5.0278,5.0302,5.3286,5.3042,5.2569,5.2081,5.1582,5.0837,4.947,0.0,0.0,0.0,4.9733,5.0278,5.0219,5.2228,0.0,5.5015,5.7282,5.9526,6.1296,6.1201,0.0,0.0,0.0,0.0,0.0,0.0,0.0,0.0,0.0,0.0,6.0057,6.0114,6.0169,6.0198,5.9903,5.9333,5.8479,5.7638,5.6837,5.6078,5.5618,5.5444,5.5504,5.5504,5.5504,5.5504,5.5504,0.0,5.4894,5.4492,5.384,5.3072,5.2601,5.2179,5.1815,5.1815,5.1527,5.1133,5.1133,5.0856,5.0511,5.0562,5.0202,4.9792,4.9865,4.9618,4.9311,4.9311,4.9311,4.9311,4.9311,4.929,4.9124,4.8632,4.8496,4.8474,4.8474,4.8821,4.9149,4.9149,4.9408,4.9637,4.9637,4.9896,5.0253,5.0723,5.078,5.0907,5.1266,5.1317,5.0994,5.0081,5.0005,5.0005,5.0005,5.0005,4.9992,4.9952,5.0018,5.0031,5.0005,5.005,5.0089,5.0089,5.0133,5.0133,5.0108,5.017,5.0182,5.0158,5.0182,5.0194,5.3949,5.4058,5.3668,5.2938,5.2441,5.1728,5.0132,5.0184,0.0,4.9471,5.0021,5.0619,5.0616,5.2535,5.4409,0.0,5.7168,5.9207,6.0917,6.072,6.0663,0.0,0.0,0.0,0.0,0.0,0.0,0.0,0.0,0.0,6.0148,6.0246,6.0313,6.0313,6.0382,6.0007,5.9197,5.8342,5.7551,5.6836,5.5973,5.5596,5.5703,5.5703,5.5703,5.5703,5.5703,0.0,0.0,5.5011,5.4664,5.4414,5.3549,5.3203,5.3183,5.2991,5.2596,5.2173,5.2173,5.1645,5.0952,5.0952,5.0612,5.0199,5.0253,5.0139,4.9976,4.9976,4.9976,4.9976,4.9976,4.9976,4.9792,4.906,4.8896,4.8896,4.8896,4.9426,4.9899,4.9899,5.0019,5.0128,5.0128,5.0398,5.0787,5.1462,5.1698,5.1993,5.2479,5.2561,5.2007,5.0575,5.0277,5.0101,4.9931,4.9912,4.9912,4.9912,4.9952,4.9965,4.9906,4.9978,4.9992,4.9933,4.9986,4.9999,5.0005,5.007,5.0108,5.012,5.0108,5.0133,5.5867,5.5656,5.494,5.4857,5.354,5.2057,5.1157,0.0,5.0619,4.9742,5.0729,5.1718,5.1585,5.3058,5.4541,5.5351,5.6336,5.7637,5.9434,6.0303,6.0784,0.0,0.0,0.0,0.0,0.0,0.0,0.0,0.0,0.0,0.0,6.061,6.066,6.066,6.0722,6.0342,5.9477,5.8669,5.7835,5.6962,5.6096,5.5692,5.5703,5.5703,5.5703,5.5703,0.0,0.0,0.0,5.5607,5.5164,5.4414,5.3549,5.3203,5.3106,5.2308,5.2462,5.3087,5.3087,5.25,5.1788,5.1788,5.075,4.949,4.95,4.8952,4.8318,4.8318,4.8318,4.8318,4.8318,4.8318,4.8298,4.8221,4.8193,4.8193,4.8193,4.826,4.8318,4.8318,4.8855,4.932,4.932,5.0516,5.1469,5.1421,5.2037,5.2498,5.2442,5.2414,5.2357,5.2191,5.1528,5.077,4.9969,4.9912,4.9912,4.9912,4.9912,4.992,4.9992,5.0005,5.0031,5.0082,5.0095,5.0057,5.0005,5.007,5.0133,5.0188,5.0133,5.0231,5.6135,5.6319,5.5873,5.5349,5.4255,5.307,5.2143,5.1492,5.095,5.0487,5.0877,5.1411,5.1768,5.2822,5.3898,5.4754,5.5599,5.6582,5.7819,5.8742,5.9473,0.0,0.0,0.0,0.0,0.0,0.0,0.0,0.0,0.0,0.0,6.0753,6.0765,6.0765,6.0788,6.0627,6.0281,5.8954,5.8127,5.7761,5.6376,5.5703,5.5703,5.5703,5.5703,5.5703,0.0,0.0,0.0,5.5703,5.5511,5.5184,5.4838,5.4414,5.3933,5.3587,5.3356,5.3203,5.3203,5.2972,5.2596,5.2077,5.1442,5.0818,5.0317,4.9933,4.9663,4.9663,4.9663,4.9663,4.9663,4.9279,4.8875,4.8875,4.8913,4.894,4.894,4.9353,4.9737,4.9737,4.9932,5.0106,5.0106,5.0622,5.1193,5.1636,5.2422,5.3104,5.3486,5.397,5.4059,5.3485,5.2531,5.1793,5.1433,5.1395,5.1395,5.1395,5.1437,5.1464,5.1456,5.1478,5.1545,5.1592,5.1592,5.1631,5.1694,5.1719,5.1495,5.1042,5.1023,5.0795,5.5747,5.6391,5.645,5.5845,5.4849,5.3884,5.3436,5.2411,5.1618,5.1735,5.1927,5.2214,5.2645,5.3408,5.4178,5.4752,5.5318,5.6088,5.72,5.8115,5.8942,0.0,0.0,0.0,0.0,0.0,0.0,0.0,0.0,0.0,0.0,6.08,6.08,6.08,6.08,6.08,6.08,5.9146,5.83,5.828,5.653,5.5703,5.5703,5.5703,5.5703,5.5703,0.0,0.0,0.0,5.5703,5.5703,5.5684,5.5434,5.5145,5.478,5.4299,5.4049,5.3914,5.3664,5.3587,5.3491,5.2876,5.2481,5.2193,5.1664,5.1125,5.0712,5.0712,5.0712,5.0712,5.0712,5.025,4.9779,4.9779,4.9827,4.9921,5.0216,5.0741,5.1266,5.1575,5.1597,5.1554,5.1554,5.178,5.2112,5.2655,5.3455,5.4169,5.4654,5.5201,5.5314,5.4641,5.3853,5.3143,5.2572,5.252,5.252,5.252,5.2561,5.2574,5.252,5.2574,5.2513,5.2304,5.2304,5.2221,5.2052,5.2052,5.179,5.127,5.1243,5.0974,5.4832,5.5942,5.6606,5.6586,5.5279,5.4225,5.5083,5.3835,5.2727,5.3584,5.4357,5.4815,5.4699,5.5335,5.5825,5.5707,5.5684,5.6278,5.7951,5.8939,0.0,0.0,0.0,0.0,0.0,0.0,0.0,0.0,0.0,0.0,0.0,6.08,6.08,6.08,6.08,6.08,6.08,5.9146,5.83,5.828,5.653,5.5703,5.5703,5.5703,5.5703,0.0,0.0,0.0,0.0,5.5703,5.5703,5.5607,5.4818,5.4991,5.5491,5.3837,5.426,5.5549,5.4761,5.4491,5.4472,5.4472,5.3895,5.3205,5.334,5.2122,5.0712,5.0712,5.0712,5.0712,5.0712,5.0693,5.0693,5.0693,5.0693,5.0942,5.1868,5.2082,5.238,5.3385,5.3565,5.3565,5.3565,5.4297,5.4815,5.4689,5.5365,5.5831,5.5692,5.5683,5.5683,5.5683,5.5664,5.4892,5.2961,5.281,5.281,5.281,5.281,5.281,5.281,5.281,5.2428,5.1632,5.1613,5.1193,5.0321,5.0321,5.0379,5.0519,5.0446,5.0504,5.3932,5.4615,5.483,5.483,5.3951,5.3346,5.4205,5.3491,5.2866,5.3635,5.3992,5.4285,5.4744,5.5539,5.6238,5.6665,5.7226,5.7766,5.8223,0.0,0.0,0.0,0.0,0.0,0.0,0.0,0.0,0.0,0.0,0.0,0.0,6.107,6.0993,6.0812,6.08,6.0512,5.9915,5.8838,5.7992,5.7396,5.6242,5.5703,5.5703,5.5703,0.0,0.0,0.0,0.0,0.0,5.5845,5.5879,5.5955,5.5684,5.5413,5.5083,5.4568,5.4703,5.52,5.5544,5.6009,5.6397,5.5835,5.5467,5.5036,5.3895,5.3065,5.2567,5.2666,5.2676,5.2676,5.2676,5.2676,5.2676,5.2676,5.2676,5.2768,5.3068,5.3133,5.3223,5.3539,5.3604,5.3604,5.3604,5.3837,5.4005,5.3948,5.4673,5.5203,5.5163,5.5622,5.5971,5.5971,5.5971,5.5657,5.4863,5.4776,5.4776,5.4776,5.4776,5.4776,5.4776,5.4776,5.4718,5.455,5.455,5.445,5.4257,5.4257,5.3999,5.3497,5.2921,5.2351,5.3208,5.3756,5.4088,5.44,5.3834,5.3502,5.4713,5.4303,5.3984,5.5081,5.5305,5.5537,5.628,5.6848,5.7352,5.7711,5.8222,5.8772,0.0,0.0,0.0,0.0,0.0,0.0,0.0,0.0,0.0,0.0,0.0,0.0,0.0,0.0,6.1116,6.0954,6.0944,6.0538,5.9708,5.8877,5.8008,5.7139,5.6269,5.5844,5.5844,5.5844,0.0,0.0,0.0,0.0,0.0,5.5975,5.6015,5.6097,5.6097,5.5786,5.5326,5.5016,5.5093,5.5385,5.5624,5.644,5.7314,5.6816,5.6691,5.6453,5.5052,5.4071,5.3492,5.3579,5.3604,5.3604,5.3604,5.3604,5.3604,5.3604,5.3604,5.3699,5.4074,5.4163,5.429,5.466,5.4723,5.4723,5.4723,5.4723,5.4723,5.4723,5.519,5.5536,5.5536,5.5979,5.6291,5.6291,5.6291,5.6227,5.6057,5.5913,5.5839,5.5839,5.5839,5.5839,5.5839,5.5839,5.5746,5.5525,5.5525,5.5397,5.5152,5.5152,5.4917,5.4447,5.3927,5.3386,0.0,5.3383,5.4183,5.5003,5.4596,5.4439,5.6116,5.5921,0.0,5.7465,5.7855,5.8114,5.887,5.8955,5.8905,5.8888,5.8836,0.0,0.0,0.0,0.0,0.0,0.0,0.0,0.0,0.0,0.0,0.0,0.0,0.0,0.0,0.0,6.124,6.124,6.124,6.0818,5.9917,5.9101,5.8227,5.7295,5.6486,5.6097,5.6097,5.6097,0.0,0.0,0.0,0.0,0.0,5.611,5.6116,5.6142,5.6142,5.6142,5.6051,5.5293,5.5487,5.6051,5.5357,5.6135,5.7443,5.7501,5.7609,5.7548,5.6671,5.5191,5.3808,5.3808,5.3808,5.3808,5.3808,5.3808,5.3808,5.3808,5.3808,5.4069,5.5002,5.5217,5.547,5.6421,5.6606,5.6606,5.6606,5.6606,5.6606,5.6606,5.6606,5.6606,5.6606,5.6606,5.6606,5.6606,5.6606,5.6606,5.6606,5.6305,5.6142,5.6142,5.6142,5.6142,5.6142,5.6142,5.5779,5.5046,5.5027,5.4618,5.3808,5.3808,5.3844,5.391,5.391,5.3876,5.3604,0.0,5.403,5.4195,5.4111,5.4279,0.0,5.5881,5.6514,5.7587,5.8329,5.9051,5.9887,5.9497,5.943,6.0569,0.0,0.0,0.0,0.0,0.0,0.0,0.0,0.0,0.0,0.0,0.0,0.0,0.0,0.0,0.0,0.0,6.1579,6.1579,6.1579,6.0755,5.903,5.879,5.7923,5.6408,5.6194,5.6097,5.6097,5.6097,0.0,0.0,0.0,0.0,5.6257,5.6257,5.6336,5.6488,5.6488,5.6488,5.6469,5.6273,5.6312,5.6547,5.6979,5.7388,5.7818,5.8478,5.8721,5.8577,5.7702,5.6718,5.5886,5.5886,5.5886,5.5886,5.5886,5.5886,5.5886,5.5886,5.5886,5.5968,5.6196,5.6258,5.6319,5.6545,5.6606,5.6606,5.6606,5.6606,5.6606,5.6606,5.6606,5.6606,5.6606,5.6606,5.6606,5.6606,5.6606,5.6606,5.6606,5.6523,5.6488,5.6488,5.6488,5.6488,5.6488,5.6488,5.6391,5.6195,5.6195,5.6098,5.5886,5.5886,5.5906,5.5912,5.5912,5.5523,5.5092,5.511,5.5223,5.5604,5.6026,5.6562,5.7405,5.7642,5.7941,5.8819,5.9365,5.9836,6.0316,6.0648,6.0867,0.0,6.1212,0.0,0.0,0.0,0.0,0.0,0.0,0.0,0.0,0.0,0.0,0.0,0.0,0.0,0.0,0.0,6.1698,6.1698,6.131,6.0383,5.8905,5.8885,5.8203,5.6883,5.6509,5.6509,5.6864,5.6489,0.0,0.0,0.0,0.0,5.6443,5.6443,5.65,5.6606,5.6606,5.6606,5.6606,5.6606,5.6606,5.6665,5.7094,5.7758,5.848,5.8948,5.9378,5.9534,5.8656,5.8089,5.7582,5.6821,5.6606,5.6684,5.7055,5.7153,5.725,5.766,5.7445,5.7153,5.7153,5.686,5.6606,5.6606,5.6606,5.6606,5.6606,5.6606,5.6606,5.6606,5.6606,5.6606,5.6606,5.6606,5.6606,5.6606,5.6606,5.6606,5.6606,5.6606,5.6606,5.6606,5.6606,5.6606,5.6606,5.6606,5.6606,5.6606,5.6606,5.6606,5.6606,5.6606,5.6606,5.6606,5.6606,5.6321,5.6643,5.6975,5.7368,5.77,5.8545,5.9443,6.0044,5.9716,5.9485,6.0223,6.0496,6.0655,6.0932,6.181,0.0,0.0,0.0,0.0,0.0,0.0,0.0,0.0,0.0,0.0,0.0,0.0,0.0,0.0,0.0,0.0,0.0,0.0,0.0,6.1674,6.0856,5.9978,5.9117,5.8966,5.8538,5.7797,5.7113,5.7133,5.7777,5.7094,0.0,0.0,0.0,0.0,5.6606,5.6606,5.6606,5.6606,5.6606,5.6606,5.6606,5.6606,5.6606,5.6606,5.6606,5.7619,5.8905,5.8905,5.949,6.0037,5.9175,5.8902,5.857,5.7029,5.6777,5.7133,5.7816,5.7992,5.8187,5.8929,5.8538,5.7992,5.7992,5.7465,5.6938,5.6801,5.6782,5.6743,5.6626,5.6606,5.6606,5.6606,5.6704,5.6782,5.6782,5.6782,5.6782,5.6782,5.6665,5.6606,5.6606,5.6606,5.6606,5.6606,5.6606,5.6606,5.6606,5.6606,5.6606,5.6606,5.6606,5.6606,5.6606,5.6606,5.6606,5.6606,5.6606,5.6606,5.7325,5.9137,6.0311,5.823,5.8976,6.0024,5.9369,5.9685,6.0145,6.0282,6.0906,6.1865,6.3347,6.2063,6.1646,0.0,0.0,0.0,0.0,0.0,0.0,0.0,0.0,0.0,0.0,0.0,0.0,0.0,0.0,0.0,0.0,0.0,0.0,6.1625,6.0825,5.9986,5.9105,5.837,5.7933,5.7797,5.766,5.768,5.7797,5.766,5.7231,0.0,0.0,5.6606,5.6606,5.6606,5.6606,5.6606,5.6606,5.6606,5.6606,5.6606,5.6606,5.6606,5.6606,5.7204,5.7994,5.7994,5.8591,5.9147,5.8269,5.7996,5.7782,5.6803,5.7584,5.8731,5.887,5.8909,5.8929,5.9063,5.9007,5.8909,5.8909,5.8792,5.8499,5.7758,5.7621,5.7406,5.6723,5.6606,5.6606,5.6606,5.7172,5.7621,5.7621,5.7621,5.7621,5.7621,5.7016,5.6606,5.6606,5.6606,5.6606,5.6606,5.6606,5.6606,5.6606,5.6606,5.6606,5.6606,5.6606,5.6606,5.6606,5.6606,5.6606,5.6606,5.6606,5.6606,5.6819,5.8918,6.0614,5.9406,6.1119,6.2994,6.2567,6.2065,6.1699,6.1699,6.1645,6.184,6.2652,0.0,6.2277,6.3847,0.0,0.0,0.0,0.0,0.0,0.0,0.0,0.0,0.0,0.0,0.0,0.0,0.0,0.0,0.0,0.0,0.0,0.0,5.9687,5.8809,5.8396,5.7534,5.7325,5.7796,5.7804,5.8055,5.8499,5.8007,5.7597,5.7219,0.0,5.6582,5.6555,5.6555,5.655,5.6545,5.6545,5.6545,5.6545,5.6545,5.6545,5.6545,5.6545,5.7108,5.7804,5.7804,5.8383,5.902,5.8611,5.8494,5.8416,5.8026,5.8139,5.8409,5.8401,5.9095,5.9805,5.9797,5.9802,5.9807,5.9807,5.9436,5.8987,5.8577,5.8499,5.8382,5.8011,5.7953,5.7953,5.7953,5.8265,5.8499,5.8499,5.8499,5.8499,5.8499,5.7758,5.7445,5.7914,5.7523,5.7055,5.6626,5.6606,5.6606,5.6606,5.6606,5.6606,5.6606,5.6606,5.6606,5.6606,5.6606,5.6606,5.6606,5.6606,5.6606,5.6253,5.8358,6.0341,6.0555,6.2737,6.4861,6.5056,6.3965,6.2893,6.2893,6.2367,6.1899,0.0,6.2601,0.0,0.0,0.0,0.0,0.0,0.0,0.0,0.0,0.0,0.0,0.0,0.0,0.0,0.0,0.0,0.0,0.0,0.0,0.0,0.0,5.8581,5.7781,5.7781,5.692,5.704,5.8104,5.8097,5.8565,5.9372,5.8502,5.7997,5.7749,5.6924,5.655,5.6503,5.6503,5.6494,5.6501,5.6501,5.6501,5.6501,5.6501,5.6501,5.6501,5.6501,5.695,5.7492,5.7492,5.796,5.8483,5.8483,5.8483,5.8483,5.8483,5.8162,5.7843,5.8048,5.9098,6.0107,6.0099,6.0104,6.009,6.009,5.9563,5.9036,5.8841,5.8802,5.8724,5.8529,5.849,5.849,5.849,5.8666,5.8802,5.8802,5.8802,5.8802,5.8802,5.8022,5.7768,5.8431,5.7885,5.7221,5.6616,5.6775,5.6972,5.7172,5.6992,5.6875,5.6875,5.6875,5.6775,5.6577,5.6577,5.6577,5.6577,5.658,5.6582,5.6253,5.8358,6.0497,6.1295,6.2309,6.3283,6.4023,6.3517,6.2893,6.2893,6.2854,6.2815,0.0,6.3478,0.0,0.0,0.0,0.0,0.0,0.0,0.0,0.0,0.0,0.0,0.0,0.0,0.0,0.0,0.0,0.0,0.0,0.0,0.0,0.0,0.0,5.7719,5.7719,5.6901,5.735,5.9001,5.9001,5.9469,6.0288,5.9394,5.8575,5.7749,5.6875,5.6504,5.6504,5.6504,5.6504,5.6501,5.6501,5.6501,5.6501,5.6501,5.6501,5.6501,5.6501,5.653,5.6593,5.6593,5.664,5.6686,5.6686,5.6686,5.6686,5.6686,5.7229,5.7989,5.8802,5.9102,5.9199,5.9199,5.9199,5.918,5.918,5.9141,5.8868,5.8052,5.7896,5.7639,5.6839,5.6683,5.6683,5.6683,5.7385,5.7896,5.7896,5.7896,5.7896,5.7896,5.7112,5.6625,5.6683,5.6625,5.6566,5.6508,5.7264,5.8078,5.8887,5.8136,5.7702,5.7702,5.7702,5.7322,5.6508,5.6508,5.6508,5.6508,5.6503,5.6509,5.545,5.7944,6.038,6.0711,6.1841,6.3244,6.4608,6.4257,6.3653,6.3653,6.3244,6.2737,0.0,0.0,0.0,0.0,0.0,0.0,0.0,0.0,0.0,0.0,0.0,0.0,0.0,0.0,0.0,0.0,0.0,0.0,0.0,0.0,0.0,0.0,0.0,5.6955,5.6955,5.6643,5.708,5.8242,5.8784,5.9482,6.0309,5.9478,5.9189,5.9276,5.7902,5.7586,5.8028,5.7501,5.7279,5.719,5.6703,5.6508,5.6508,5.6508,5.6508,5.6508,5.6508,5.6504,5.6496,5.6496,5.6492,5.6507,5.6507,5.6507,5.6507,5.6507,5.6745,5.7065,5.7404,5.8281,5.8959,5.8421,5.8702,5.9098,5.9098,5.9098,5.9001,5.8669,5.8611,5.8494,5.8162,5.8123,5.8123,5.8123,5.8396,5.8611,5.8611,5.8611,5.8611,5.8611,5.8318,5.7909,5.7343,5.7811,5.8123,5.8123,5.7408,5.7141,5.7479,5.718,5.6982,5.6982,5.6982,5.6823,5.6501,5.6501,5.6774,5.7301,5.7307,5.7603,5.5361,5.7907,6.0379,6.0642,6.1607,6.2932,6.4608,6.4335,6.3711,6.3711,6.3069,6.2309,6.1705,0.0,0.0,0.0,0.0,0.0,0.0,0.0,0.0,0.0,0.0,0.0,0.0,0.0,0.0,0.0,0.0,0.0,0.0,0.0,0.0,0.0,0.0,0.0,5.6507,5.6507,5.6896,5.7715,5.8293,5.9189,6.0263,5.944,5.9521,6.0231,5.88,5.8484,5.8964,5.8418,5.7981,5.7617,5.6819,5.6507,5.6507,5.6507,5.6507,5.6507,5.6507,5.6507,5.6507,5.6507,5.6507,5.6507,5.6507,5.6683,5.6877,5.6877,5.7073,5.7222,5.6943,5.7579,5.8122,5.7525,5.7845,5.8281,5.8281,5.8281,5.8281,5.8281,5.8281,5.8281,5.8281,5.8281,5.8281,5.8281,5.8281,5.8281,5.8281,5.8281,5.8281,5.8281,5.8281,5.8047,5.7446,5.793,5.8281,5.8281,5.7404,5.7017,5.7301,5.7297,5.7294,5.7294,5.7567,5.7563,5.7287,5.7287,5.7595,5.818,5.8187,5.8503,5.6258,5.8361,6.0517,6.1361,6.1592,6.206,6.3711,6.3478,6.2893,6.2893,6.2211,6.1607,6.1607,0.0,0.0,0.0,0.0,0.0,0.0,0.0,0.0,0.0,0.0,0.0,0.0,0.0,0.0,0.0,0.0,0.0,0.0,0.0,0.0,0.0,0.0,0.0,5.6507,5.6507,5.6896,5.7695,5.7695,5.8592,6.0263,5.9386,5.9484,6.0263,5.9386,5.9016,5.9035,5.9016,5.849,5.7617,5.6819,5.6507,5.6507,5.6507,5.6507,5.6507,5.6507,5.6507,5.6507,5.6507,5.6507,5.6507,5.6507,5.7073,5.7703,5.7703,5.8333,5.8808,5.7949,5.7115,5.6526,5.6507,5.6507,5.6507,5.6507,5.6507,5.6507,5.6507,5.6507,5.6526,5.6507,5.6507,5.6507,5.6507,5.6507,5.6507,5.6507,5.6507,5.6507,5.6507,5.6507,5.6507,5.6507,5.6507,5.6507,5.6507,5.7267,5.8121,5.9056,5.9022,5.8991,5.8991,5.9849,5.9856,5.8996,5.8996,5.8996,5.902,5.9003,5.9011,5.5673,5.7889,6.0215,5.9865,6.159,6.3347,6.3269,6.3078,6.2893,6.2893,6.2211,6.1607,6.1607,0.0,0.0,0.0,0.0,0.0,0.0,0.0,0.0,0.0,0.0,0.0,0.0,0.0,0.0,0.0,0.0,0.0,0.0,0.0,0.0,0.0,0.0,0.0,5.6507,5.6501,5.662,5.6854,5.6852,5.7731,5.9386,5.9113,5.9815,6.1179,6.0282,6.0614,6.1607,5.9756,5.849,5.7617,5.6819,5.6503,5.6503,5.6503,5.6508,5.6492,5.6492,5.6492,5.6492,5.6492,5.6492,5.6609,5.7176,5.7514,5.783,5.8436,5.8808,5.8945,5.8671,5.8433,5.7968,5.6773,5.6507,5.6507,5.6507,5.6943,5.718,5.6617,5.7453,5.7887,5.6703,5.6966,5.7157,5.6593,5.6507,5.6706,5.7264,5.6858,5.6726,5.7286,5.6835,5.6507,5.6507,5.6507,5.6741,5.7306,5.7578,5.7817,5.8102,5.8683,5.901,5.901,5.9243,5.9259,5.8996,5.8996,5.9328,5.9912,5.9902,6.0237,5.7695,5.9496,6.1287,6.1084,6.2341,6.3496,6.3008,6.2896,0.0,0.0,6.1975,6.1604,6.1604,0.0,0.0,0.0,0.0,0.0,0.0,0.0,0.0,0.0,0.0,0.0,0.0,0.0,0.0,0.0,0.0,0.0,0.0,0.0,0.0,0.0,0.0,0.0,5.6494,5.6501,5.649,5.6492,5.6503,5.72,5.8504,5.9207,6.0475,6.2095,6.1903,6.2215,6.2758,6.0829,5.9522,5.8643,5.7826,5.7276,5.698,5.698,5.6773,5.6504,5.6504,5.6504,5.6504,5.6504,5.6504,5.6582,5.707,5.7459,5.7884,5.8742,5.9242,5.9527,5.9521,5.9523,5.9178,5.7824,5.7495,5.7495,5.7495,5.7867,5.8071,5.7597,5.8312,5.8671,5.766,5.7908,5.8051,5.7577,5.7495,5.7662,5.8153,5.7785,5.7682,5.8153,5.7785,5.7495,5.7495,5.7495,5.7709,5.8195,5.8546,5.8722,5.8722,5.9233,5.9521,5.9517,5.9856,6.0029,6.0029,6.0028,6.0297,6.0824,6.0824,6.1097,6.0935,6.2117,6.3076,6.3806,6.3495,6.3006,6.3006,6.2947,6.2655,6.1777,0.0,6.1601,0.0,0.0,0.0,0.0,0.0,0.0,0.0,0.0,0.0,0.0,0.0,0.0,0.0,0.0,0.0,0.0,0.0,0.0,0.0,0.0,0.0,0.0,0.0,0.0,5.6504,5.6504,5.6503,0.0,5.6503,5.6913,5.7752,5.9414,6.1094,6.2715,6.3672,6.3554,6.2597,6.1816,6.1015,6.0215,5.9335,5.8515,5.7812,5.7733,5.7245,5.66,5.6522,5.6503,5.6503,5.6503,5.6503,5.6503,5.6581,5.7115,5.7904,5.8858,5.9696,6.032,6.0408,6.0422,6.0217,5.9427,5.912,5.9003,5.9003,5.9061,5.9081,5.9023,5.9139,5.9197,5.9023,5.9061,5.9081,5.9003,5.9003,5.9023,5.91,5.9042,5.9023,5.91,5.9042,5.9003,5.9003,5.8925,5.8925,5.8984,5.9746,6.0215,6.0292,6.0383,6.0421,6.0419,6.1205,6.1595,6.1595,6.1604,6.1607,6.1607,6.1607,6.1607,5.9452,6.1198,6.2947,6.3113,6.3497,6.3846,6.3846,6.3359,6.2652,6.1775,6.1601,0.0,0.0,0.0,0.0,0.0,0.0,0.0,0.0,0.0,0.0,0.0,0.0,0.0,0.0,0.0,0.0,0.0,0.0,0.0,0.0,0.0,0.0,0.0,0.0,5.6504,5.6504,5.6494,5.6502,0.0,5.6503,5.6927,5.7749,5.8801,5.9863,6.0976,6.3164,6.2871,6.084,6.0664,6.0468,6.0215,5.9335,5.8881,5.8646,5.7943,5.7592,5.7356,5.6712,5.6498,5.6498,5.6498,5.6498,5.6615,5.7258,5.756,5.8013,5.9572,6.0159,6.0462,6.1143,6.1326,6.1272,6.1093,5.9993,5.9003,5.9003,5.9542,5.9826,5.9139,6.0104,6.0603,5.9235,5.956,5.9787,5.91,5.9003,5.9255,5.9939,5.9427,5.9255,5.9958,5.9408,5.9003,5.9003,5.8379,5.8261,5.8965,5.918,5.9587,6.027,6.0957,6.1324,6.1326,6.1499,6.1594,6.1594,6.1598,6.16,6.16,6.16,6.16,5.9397,6.0915,6.2372,6.2801,6.349,6.4004,6.3614,6.2874,6.2141,6.1693,0.0,0.0,0.0,0.0,0.0,0.0,0.0,0.0,0.0,0.0,0.0,0.0,0.0,0.0,0.0,0.0,0.0,0.0,0.0,0.0,0.0,0.0,0.0,0.0,5.6493,5.6493,5.6493,5.6503,5.6683,5.707,5.7073,5.752,5.8358,5.9218,6.0102,6.1002,6.233,6.2154,6.0924,6.0922,6.092,6.0881,6.041,5.9985,5.9528,5.865,5.8059,5.7578,5.678,5.6507,5.6507,5.6507,5.6507,5.6585,5.6994,5.713,5.7403,5.8685,5.9367,5.9873,6.075,6.1295,6.1607,6.1607,6.0912,6.0234,6.0234,6.0603,6.0786,6.0327,6.0983,6.1307,6.04,6.0623,6.0766,6.031,6.0234,6.04,6.0857,6.0531,6.0419,6.0877,6.0511,6.0078,5.9668,5.9202,5.8968,5.899,5.938,5.9837,6.0272,6.1144,6.1596,6.1592,6.1601,6.1601,6.1601,6.1597,6.1592,6.1592,6.1592,6.1592,5.9215,6.0599,6.1846,6.2854,6.3497,6.3711,6.3049,6.2231,6.1607,6.1607,0.0,0.0,0.0,0.0,0.0,0.0,0.0,0.0,0.0,0.0,0.0,0.0,0.0,0.0,0.0,0.0,0.0,0.0,0.0,0.0,0.0,0.0,5.6507,5.6507,5.6507,5.6507,5.6507,5.6507,5.6896,5.7695,5.7695,5.8163,5.9016,5.9581,6.0243,6.0945,6.1237,6.1198,6.0945,6.1257,6.1373,6.1393,6.1549,6.1159,6.0399,5.9386,5.8529,5.7793,5.6838,5.6507,5.6507,5.6507,5.6507,5.6507,5.6507,5.6507,5.6663,5.7481,5.8217,5.8977,5.9854,6.0711,6.1373,6.1373,6.149,6.1607,6.1607,6.1607,6.1607,6.1607,6.1607,6.1607,6.1607,6.1607,6.1607,6.1607,6.1607,6.1607,6.1607,6.1607,6.1607,6.1607,6.1607,6.1315,6.0594,6.038,5.999,5.9269,5.9893,6.0302,6.0302,6.114,6.1603,6.1607,6.1606,6.1597,6.1597,6.161,6.1607,6.1607,6.1607,6.1607,5.6738,5.9256,6.1976,6.356,6.3497,6.303,0.0,0.0,6.1607,0.0,0.0,0.0,0.0,0.0,0.0,0.0,0.0,0.0,0.0,0.0,0.0,0.0,0.0,0.0,0.0,0.0,0.0,0.0,0.0,0.0,0.0,5.6507,5.6507,5.6507,5.6507,5.6507,5.6507,5.6507,5.6896,5.7695,5.7695,5.8163,5.8977,5.8334,5.81,5.8295,5.9815,5.962,5.8334,5.9854,6.0477,6.0555,6.1315,6.1529,6.1237,5.96,5.8918,5.8607,5.7033,5.6507,5.6507,5.6507,5.6507,5.6507,5.6507,5.6507,5.6663,5.7481,5.7773,5.8061,5.8957,5.9815,6.0477,6.0477,6.1042,6.1607,6.1607,6.1607,6.1607,6.1607,6.1607,6.1607,6.1607,6.1607,6.1607,6.1607,6.1607,6.1607,6.1607,6.1607,6.1607,6.1607,6.1607,6.1549,6.1432,6.073,6.0243,6.0126,6.0243,6.0302,6.0302,6.114,6.1592,6.1606,6.1599,6.1608,6.1608,6.1595,6.1606,6.1606,6.1606,6.1606,5.6558,5.8971,6.1168,6.2387,6.2796,6.2776,6.2289,6.188,6.1607,0.0,0.0,0.0,0.0,0.0,0.0,0.0,0.0,0.0,0.0,0.0,0.0,0.0,0.0,0.0,0.0,0.0,0.0,0.0,0.0,0.0,5.6507,5.6507,5.6507,5.6507,5.6507,5.6507,5.6507,5.6507,5.6896,5.7715,5.8198,5.8373,5.8276,5.8373,5.8159,5.7773,5.9035,5.886,5.7793,5.9055,5.9854,6.0282,6.0185,6.073,6.1393,5.9639,5.8996,5.8821,5.7598,5.6877,5.6507,5.6507,5.6507,5.6507,5.6507,5.6507,5.6565,5.6935,5.7345,5.7793,5.8159,5.8918,5.9561,5.9561,5.9854,6.0282,6.0769,6.1257,6.1607,6.1607,6.1607,6.1607,6.1607,6.1607,6.1607,6.1607,6.1607,6.1607,6.1607,6.1607,6.1607,6.1607,6.1607,6.1393,6.0906,6.0516,6.0088,5.96,6.0029,6.0302,6.0302,6.114,6.1607,6.1607,6.1607,6.1607,6.1607,6.2094,6.2075,6.1607,6.2094,6.2075,5.6207,5.8172,5.9657,6.0963,6.1933,6.2396,0.0,0.0,0.0,0.0,0.0,0.0,0.0,0.0,0.0,0.0,0.0,0.0,0.0,0.0,0.0,0.0,0.0,0.0,0.0,0.0,0.0,0.0,0.0,0.0,5.6507,5.6507,5.6507,5.6507,5.6507,5.6507,5.6507,5.6702,5.7111,5.7715,5.8353,5.8451,5.8042,5.847,5.8431,5.8066,5.8724,5.8509,5.7773,5.888,5.9581,5.9932,5.9503,6.0126,6.1062,5.9308,5.8665,5.8548,5.7695,5.6994,5.6507,5.6507,5.6507,5.6507,5.6507,5.6507,5.6507,5.6507,5.6935,5.7403,5.7403,5.8027,5.8665,5.8665,5.8841,5.923,6.0107,6.0984,6.1607,6.1607,6.1607,6.1529,6.1315,6.1276,6.1198,6.0964,6.112,6.1276,6.1276,6.1451,6.1607,6.1607,6.1607,6.1334,6.0692,6.0633,6.0341,5.9698,6.0263,6.0633,6.0633,6.1257,6.1607,6.1607,6.1607,6.1607,6.1607,6.2465,6.2445,6.1627,6.2484,6.2426,5.4632,5.5996,5.7294,5.9833,6.107,6.1658,0.0,0.0,0.0,0.0,0.0,0.0,0.0,0.0,0.0,0.0,0.0,0.0,0.0,0.0,0.0,0.0,0.0,0.0,0.0,0.0,0.0,0.0,0.0,0.0,5.6507,5.6507,5.6507,5.6507,5.6507,5.6507,5.6507,5.7267,5.7656,5.7695,5.7754,5.8178,5.8899,5.812,5.8178,5.8918,5.8977,5.8509,5.7832,5.9522,5.9776,5.9152,5.9932,6.0282,6.0165,5.8412,5.7773,5.7656,5.6838,5.6546,5.6507,5.6507,5.6507,5.6507,5.6507,5.6507,5.6507,5.6507,5.6526,5.6565,5.6565,5.7169,5.7773,5.7773,5.8392,5.923,6.0107,6.0984,6.1607,6.1607,6.1607,6.1334,6.0516,6.036,6.0088,5.925,5.9834,6.036,6.036,6.1081,6.1607,6.1607,6.1607,6.1588,6.1549,6.1529,6.151,6.1471,6.151,6.1529,6.1529,6.1588,6.1607,6.1607,6.1607,6.1607,6.1607,6.2465,6.2445,6.1627,6.2484,6.2426,5.3803,5.4585,5.5455,5.8079,5.9334,6.0086,6.0644,6.1194,0.0,0.0,0.0,0.0,0.0,0.0,0.0,0.0,0.0,0.0,0.0,0.0,0.0,0.0,0.0,0.0,0.0,0.0,0.0,0.0,0.0,0.0,5.6507,5.6507,5.6507,5.6507,5.6507,5.6507,5.6507,5.6799,5.6935,5.6935,5.6935,5.7091,5.7403,5.7617,5.7871,5.8237,5.9347,5.9347,5.8626,5.9815,6.0126,5.9756,5.8957,5.9308,6.0088,5.8334,5.7695,5.7656,5.7364,5.6935,5.6507,5.6507,5.6507,5.6507,5.6507,5.6507,5.6507,5.6507,5.6507,5.6507,5.6507,5.6702,5.6935,5.6935,5.7559,5.8256,5.8548,5.9328,5.9932,5.9932,5.9932,5.9834,5.9522,5.9464,5.9367,5.9055,5.9269,5.9659,6.0224,6.0575,6.1198,6.2309,6.2426,6.264,6.3166,6.3205,6.3205,6.3205,6.3205,6.3205,6.3205,6.3205,6.3205,6.3205,6.2698,6.2153,6.1607,6.2465,6.2445,6.1627,6.2484,6.2426,5.3108,5.3696,5.4539,0.0,5.8196,5.8964,6.041,0.0,0.0,0.0,0.0,0.0,0.0,0.0,0.0,0.0,0.0,0.0,0.0,0.0,0.0,0.0,0.0,0.0,0.0,0.0,0.0,0.0,0.0,0.0,5.6507,5.6507,5.6507,5.6507,5.6507,5.6507,5.6507,5.6507,5.6507,5.6507,5.6507,5.6507,5.6526,5.7052,5.7442,5.7773,5.923,5.9542,5.9094,6.0263,6.038,5.9756,5.8587,5.8665,5.925,5.7812,5.7306,5.7306,5.7306,5.6955,5.6507,5.6507,5.6507,5.6507,5.6507,5.6507,5.6507,5.6507,5.6507,5.6507,5.6507,5.6507,5.6507,5.6507,5.6916,5.7306,5.7306,5.8183,5.8996,5.8996,5.8996,5.8899,5.8607,5.8548,5.847,5.8202,5.8646,5.9211,5.9795,6.036,6.1179,6.2348,6.2465,6.2796,6.3634,6.3692,6.3809,6.4082,6.4101,6.4101,6.4101,6.4101,6.4101,6.4101,6.3575,6.303,6.2445,6.2757,6.2601,6.2055,6.262,6.2426,0.0,0.0,0.0,0.0,0.0,0.0,6.0867,0.0,0.0,0.0,0.0,0.0,0.0,0.0,0.0,0.0,0.0,0.0,0.0,0.0,0.0,0.0,0.0,0.0,0.0,0.0,0.0,0.0,0.0,5.6507,5.6507,5.6507,5.6507,5.6507,5.6507,5.6507,5.6507,5.6507,5.6507,5.6507,5.6507,5.6507,5.6507,5.6507,5.6935,5.7715,5.8607,5.8996,5.9094,6.0847,6.0555,5.8996,5.8977,5.8431,5.7598,5.6799,5.6507,5.6507,5.6507,5.6507,5.6507,5.6507,5.6507,5.6507,5.6507,5.6507,5.6507,5.6507,5.6507,5.6507,5.6507,5.6507,5.6507,5.6507,5.6507,5.6507,5.6507,5.7773,5.8918,5.8918,5.8918,5.8665,5.7812,5.7656,5.7403,5.6624,5.789,5.8938,5.8996,6.0477,6.1549,6.1627,6.1646,6.1997,6.2854,6.2932,6.3263,6.4043,6.4101,6.4101,6.4101,6.4101,6.4101,6.4101,6.4101,6.4121,6.414,6.3322,6.2932,6.2932,6.2913,6.2426,5.1687,0.0,0.0,0.0,0.0,0.0,0.0,0.0,0.0,0.0,0.0,0.0,0.0,0.0,0.0,0.0,0.0,0.0,0.0,0.0,0.0,0.0,0.0,0.0,0.0,0.0,0.0,0.0,5.6866,5.6507,5.6507,5.6507,5.6507,5.6507,5.6507,5.6507,5.6507,5.6507,5.6507,5.6507,5.6507,5.6507,5.6507,5.6507,5.6624,5.6916,5.8373,5.8646,5.8178,5.9932,5.999,5.8938,5.8314,5.791,5.7598,5.6799,5.6507,5.6507,5.6507,5.6507,5.6507,5.6507,5.6507,5.6507,5.6507,5.6507,5.6507,5.6507,5.6507,5.6507,5.6507,5.6507,5.6507,5.6507,5.6507,5.6507,5.6507,5.6858,5.7189,5.7189,5.7189,5.713,5.6877,5.6838,5.676,5.6526,5.6896,5.7637,5.8841,5.9425,6.0438,6.2348,6.2542,6.2874,6.3692,6.377,6.3867,6.4082,6.4101,6.4101,6.4101,6.4101,6.4101,6.4101,6.4101,6.4413,6.5036,6.4179,6.377,6.375,6.3166,6.2426,0.0,0.0,0.0,0.0,0.0,0.0,0.0,5.7389,0.0,0.0,0.0,0.0,0.0,0.0,0.0,0.0,0.0,0.0,0.0,0.0,0.0,0.0,0.0,0.0,0.0,0.0,0.0,0.0,5.7864,5.7424,5.7065,5.7045,5.6885,5.6507,5.6507,5.6507,5.6507,5.6507,5.6507,5.6507,5.6507,5.6507,5.6507,5.6507,5.6507,5.6565,5.789,5.7988,5.7306,5.8665,5.8918,5.8412,5.791,5.7501,5.715,5.6663,5.6507,5.6546,5.6924,5.6807,5.6565,5.6924,5.6807,5.6565,5.6924,5.7045,5.7045,5.7045,5.6788,5.6507,5.6507,5.6507,5.6507,5.6507,5.6507,5.6507,5.6507,5.6507,5.6507,5.6507,5.6507,5.6507,5.6507,5.6507,5.6507,5.6507,5.7091,5.791,5.886,5.962,6.0672,6.2192,6.2679,6.3088,6.3556,6.3906,6.4101,6.4101,6.4101,6.4106,6.4135,6.4135,6.414,6.4129,6.4129,6.4382,6.4909,6.4364,6.3926,6.3595,6.3127,6.2426,5.2469,5.2067,0.0,0.0,0.0,0.0,5.7644,5.7259,0.0,0.0,0.0,0.0,0.0,0.0,0.0,0.0,0.0,0.0,0.0,0.0,0.0,0.0,0.0,0.0,0.0,0.0,6.0175,5.9316,5.9157,5.876,5.7985,5.7845,5.7443,5.6667,5.6546,5.6507,5.6507,5.6507,5.6507,5.6507,5.6507,5.6507,5.6507,5.6507,5.6507,5.6546,5.7345,5.7286,5.6702,5.752,5.7734,5.7578,5.7578,5.7189,5.6647,5.6647,5.6706,5.6905,5.7685,5.7443,5.6924,5.7798,5.7482,5.6963,5.7935,5.8094,5.7923,5.7825,5.7244,5.6628,5.6526,5.6507,5.6507,5.6507,5.6507,5.6507,5.6507,5.6507,5.6507,5.6507,5.6507,5.6507,5.6507,5.6507,5.6507,5.6507,5.7851,5.888,5.8996,6.0438,6.1529,6.1724,6.2445,6.2932,6.303,6.3692,6.4062,6.3965,6.3965,6.3955,6.3904,6.3904,6.3916,6.3916,6.4014,6.4111,6.4205,6.4149,6.3736,6.3034,6.3034,6.2625,5.3155,5.3019,5.3069,0.0,0.0,0.0,0.0,5.4497,0.0,0.0,0.0,0.0,0.0,0.0,0.0,0.0,0.0,0.0,0.0,0.0,0.0,0.0,0.0,0.0,0.0,0.0,6.1036,6.0213,5.9498,5.904,5.8861,5.8184,5.7724,5.7545,5.6866,5.6507,5.6507,5.6507,5.6507,5.6507,5.6507,5.6507,5.6507,5.6507,5.6507,5.6546,5.7345,5.7617,5.754,5.8392,5.7949,5.6741,5.6741,5.7061,5.7545,5.7545,5.7985,5.862,5.878,5.8741,5.8737,5.9541,5.9252,5.8889,6.0398,5.9927,5.8702,5.8005,5.7685,5.7385,5.6686,5.6507,5.6507,5.6507,5.6507,5.6507,5.6507,5.6507,5.6507,5.6507,5.6507,5.6507,5.6507,5.6507,5.6507,5.6507,5.7325,5.8217,5.8899,5.9912,6.1081,6.2503,6.2796,6.3166,6.3809,6.4004,6.3828,6.3185,6.3127,6.2825,6.2145,6.211,6.2099,6.2102,6.2804,6.3506,6.4205,6.4185,6.4095,6.3958,6.3958,6.3828,0.0,0.0,5.355,5.4821,0.0,0.0,0.0,0.0,5.4583,0.0,0.0,0.0,0.0,0.0,0.0,0.0,0.0,0.0,0.0,0.0,0.0,0.0,0.0,0.0,0.0,0.0,6.1955,6.1105,6.0648,6.0015,5.9157,5.8682,5.8044,5.7186,5.6725,5.6507,5.6507,5.6507,5.6507,5.6507,5.6507,5.6507,5.6507,5.6507,5.6507,5.6526,5.6935,5.7325,5.7734,5.8159,5.8105,5.7793,5.8241,5.8655,5.9092,5.9521,5.9689,5.9767,6.0207,5.9801,5.9293,6.0551,6.0106,5.9407,6.1085,6.073,5.9576,5.8682,5.8141,5.7603,5.6725,5.6507,5.6507,5.6507,5.6507,5.6507,5.6507,5.6507,5.6507,5.6507,5.6507,5.6507,5.6507,5.6507,5.6507,5.6507,5.7189,5.8159,5.9484,6.0399,6.1607,6.3322,6.3887,6.414,6.4101,6.451,6.4393,6.3556,6.3127,6.2693,6.2259,6.1834,6.1615,6.166,6.208,6.2529,6.2945,6.2948,6.3152,6.355,6.355,6.3292,0.0,0.0,0.0,0.0,0.0,5.5124,0.0,0.0,0.0,5.5714,0.0,0.0,0.0,0.0,0.0,0.0,0.0,0.0,0.0,0.0,0.0,0.0,0.0,0.0,0.0,0.0,6.2459,6.1757,6.1696,6.1155,5.9924,5.968,5.8866,5.7275,5.6916,5.6663,5.6507,5.6507,5.6507,5.6507,5.6507,5.6507,5.6507,5.6507,5.6507,5.6507,5.6663,5.7189,5.7968,5.812,5.8704,5.9542,6.0088,6.0404,6.0662,6.1539,6.1415,6.0917,6.1634,6.0861,5.985,6.1387,6.1052,6.0269,6.1313,6.1283,6.0681,5.9635,5.8721,5.7845,5.6987,5.6628,5.6507,5.6507,5.6507,5.6507,5.6507,5.6507,5.6507,5.6507,5.6507,5.6507,5.6507,5.6507,5.6565,5.6725,5.7446,5.8577,6.033,6.1153,6.2318,6.416,6.4691,6.4773,6.4398,6.4851,6.4871,6.4164,6.3507,6.315,6.3148,6.2473,6.2057,6.1949,6.1958,6.1861,6.1698,6.1707,6.2125,6.2925,6.2925,6.2632,0.0,0.0,0.0,0.0,5.5841,0.0,0.0,0.0,5.4366,5.3,0.0,0.0,0.0,0.0,0.0,0.0,0.0,0.0,0.0,0.0,0.0,0.0,0.0,0.0,0.0,0.0,0.0,6.1718,6.1637,6.1898,6.2512,6.1763,6.0863,5.9903,5.8367,5.7228,5.6507,5.6507,5.6507,5.6507,5.6507,5.6507,5.6507,5.6507,5.6507,5.6546,5.7247,5.8046,5.8899,5.9698,6.0516,6.1237,6.0555,6.0764,6.156,6.2433,6.2735,6.2707,6.2805,6.2212,6.1557,6.2538,6.3185,6.3374,6.2078,6.2156,6.2359,6.0723,5.9619,5.8741,5.7884,5.7084,5.6507,5.6507,5.6507,5.6507,5.6507,5.6507,5.6507,5.6507,5.6507,5.6507,5.6507,5.6507,5.6764,5.7545,5.8344,5.9475,6.1229,6.1537,6.2532,6.4983,6.4001,6.3764,6.523,6.4716,6.4291,6.4196,6.4095,6.404,6.4045,6.3963,6.3572,6.287,6.285,6.2466,6.1698,6.1698,6.2139,6.2981,6.2981,6.3325,0.0,0.0,0.0,0.0,0.0,0.0,0.0,0.0,5.4591,0.0,0.0,0.0,0.0,0.0,0.0,0.0,0.0,0.0,0.0,0.0,0.0,0.0,0.0,0.0,0.0,0.0,0.0,0.0,0.0,6.1274,6.2134,6.1361,6.071,6.0317,5.9132,5.8114,5.7264,5.7244,5.7006,5.6507,5.6507,5.6507,5.6507,5.6507,5.6507,5.6526,5.6858,5.7754,5.9035,5.9386,6.0068,6.0906,6.1568,6.2021,6.2517,6.3862,6.3756,6.301,6.3517,6.2811,6.1757,6.2123,6.2799,6.3222,6.2059,6.1969,6.1981,6.0746,6.0135,5.9658,5.878,5.7903,5.7385,5.7884,5.7627,5.7385,5.7903,5.7603,5.7244,5.7244,5.6846,5.6667,5.7166,5.6827,5.6807,5.7666,5.8094,5.9093,6.1327,6.1591,6.2407,6.4473,6.4061,6.3951,6.4685,6.4416,6.4205,6.4197,6.4197,6.4189,6.4196,6.4197,6.3826,6.3023,6.3003,6.2563,6.1698,6.1698,6.1891,6.2257,6.2257,6.2429,5.3702,0.0,0.0,0.0,0.0,0.0,0.0,0.0,0.0,0.0,0.0,0.0,0.0,0.0,0.0,0.0,0.0,0.0,0.0,0.0,0.0,0.0,0.0,0.0,0.0,0.0,0.0,0.0,0.0,0.0,6.1846,6.156,6.1221,6.0905,6.0108,5.927,5.8374,5.7926,5.7376,5.6733,5.6499,5.6382,5.6382,5.6382,5.6382,5.6402,5.6635,5.7433,5.8587,5.8821,5.9298,6.0,6.1286,6.1938,6.2445,6.4608,6.4636,6.3675,6.4068,6.3098,6.1698,6.1698,6.2106,6.2453,6.1886,6.1698,6.1562,6.0927,6.0573,6.0255,5.9615,5.8802,5.8324,5.8959,5.862,5.8324,5.8959,5.86,5.8164,5.8164,5.7646,5.7404,5.8044,5.7424,5.7225,5.8343,5.8503,5.9345,6.168,6.1784,6.2288,6.4014,6.3787,6.3615,6.3845,6.3654,6.3615,6.3865,6.4072,6.4201,6.4205,6.4201,6.392,6.3348,6.312,6.2697,6.2064,6.1815,6.1698,6.1698,6.1698,6.1698,0.0,0.0,0.0,5.2525,0.0,0.0,0.0,0.0,5.5498,0.0,0.0,0.0,0.0,0.0,0.0,0.0,0.0,0.0,0.0,0.0,0.0,0.0,0.0,0.0,0.0,0.0,0.0,0.0,0.0,0.0,6.2573,6.3385,6.3376,6.2458,6.1596,6.0716,5.9847,5.8215,5.7408,5.737,5.6517,5.6109,5.6109,5.6109,5.6109,5.6148,5.7009,5.7397,5.7513,5.8354,5.875,5.8861,5.8919,5.9535,6.0789,6.416,6.5402,6.5292,6.4474,6.3098,6.1698,6.1698,6.1718,6.1737,6.1718,6.1698,6.1698,6.1679,6.1047,6.0394,6.0372,5.9716,5.9079,5.9098,5.9079,5.9079,5.9098,5.9079,5.9059,5.9059,5.904,5.904,5.9059,5.8343,5.8343,6.0057,6.0313,6.0957,6.273,6.2217,6.2332,6.4017,6.2756,6.2123,6.2964,6.2276,6.2142,6.2984,6.3767,6.4205,6.4205,6.4205,6.4189,6.417,6.3407,6.2984,6.2967,6.2103,6.1698,6.1698,6.1698,6.1698,0.0,0.0,5.5358,5.3569,0.0,0.0,0.0,0.0,0.0,0.0,0.0,0.0,0.0,0.0,0.0,0.0,0.0,0.0,0.0,0.0,0.0,0.0,0.0,0.0,0.0,0.0,0.0,0.0,0.0,0.0,0.0,6.283,6.3087,6.3355,6.2506,6.1644,6.0779,5.9623,5.851,5.7393,5.7102,5.6664,5.6102,5.6102,5.6102,5.6121,5.6412,5.6858,5.7428,5.7719,5.7858,5.7933,5.8515,5.9281,6.0339,6.2838,6.3765,6.3724,6.3331,6.2425,6.144,6.1381,6.0984,6.0525,6.0677,6.0648,6.0599,6.0686,6.0814,6.0937,6.0937,6.0291,5.9762,6.0349,6.0046,5.9781,6.0369,6.0046,5.9663,5.9801,5.9333,5.9133,5.985,5.9716,5.9719,6.0313,6.0394,6.0826,6.1983,6.1871,6.191,6.2485,6.2044,6.1815,6.2103,6.1871,6.2064,6.2948,6.3254,6.3634,6.4189,6.4205,6.4205,6.4205,6.392,6.3787,6.3787,6.2964,6.2563,6.2544,6.1969,6.1698,5.2155,5.3397,0.0,0.0,5.3011,0.0,5.3105,0.0,0.0,0.0,0.0,0.0,0.0,0.0,0.0,0.0,0.0,0.0,0.0,0.0,0.0,0.0,0.0,0.0,0.0,0.0,5.9019,5.942,0.0,0.0,0.0,0.0,6.3085,6.3613,6.307,6.2509,6.1949,6.0488,5.9066,5.7715,5.7406,5.6796,5.5965,5.5965,5.5965,5.5965,5.5965,5.6274,5.6805,5.6805,5.6811,5.693,5.7473,5.8241,5.9285,6.1473,6.2494,6.2744,6.2665,6.2037,6.1213,6.0882,6.0381,5.9959,6.0092,6.006,6.0087,6.0454,6.0871,6.1206,6.1206,6.0777,6.049,6.107,6.0777,6.051,6.1089,6.0757,6.0402,6.0532,6.0065,5.99,6.066,6.0795,6.0802,6.0865,6.0868,6.1066,6.164,6.1698,6.1698,6.1698,6.1698,6.1698,6.1698,6.1698,6.1949,6.2505,6.2544,6.2775,6.329,6.3615,6.39,6.4189,6.4205,6.4361,6.4665,6.3826,6.3423,6.3407,6.285,6.2449]}]]